GFSSW_700_rhum_000.txt.gz
RH
53 54 56 48 42 34 28 27 93 72 68 90 83 97 89 82 73 77 58 41 26 36 73 81 74 71 67 64 62 63 65 58 55 53 43 26 29 44 46 42 40 45 44 43 38
55 54 56 58 55 42 37 35 30 55 94 97 99 90 88 85 77 72 65 55 32 28 43 84 80 77 71 70 67 67 65 56 53 58 55 35 26 37 45 44 44 45 44 42 41
54 54 55 60 53 42 39 36 35 38 43 63 72 82 96 89 71 57 74 66 48 28 34 64 89 86 80 76 71 71 69 54 52 62 64 40 20 25 41 44 45 44 45 43 41
56 54 56 59 52 45 47 46 49 38 40 53 53 68 67 78 83 60 64 69 58 34 33 47 87 93 84 81 75 75 70 57 54 61 65 51 37 20 28 37 44 45 43 42 38
63 61 58 60 52 43 52 48 48 73 69 59 51 59 75 78 52 73 71 62 63 41 35 72 75 90 84 77 78 80 71 62 60 62 63 64 45 32 19 28 34 37 38 38 37
74 75 73 63 60 45 57 55 45 54 66 66 68 79 87 78 58 76 79 66 64 49 34 74 69 65 92 89 82 80 72 65 68 59 65 64 50 60 15 14 23 26 27 26 34
80 85 84 72 74 67 54 66 64 55 62 77 86 88 76 47 78 66 78 68 65 54 34 52 62 82 96 93 89 87 82 80 64 56 56 62 49 23 20 15 14 16 15 15 26
84 97 96 90 85 68 64 75 83 70 60 73 82 91 61 72 77 63 76 69 65 56 40 48 71 82 96 98 94 93 91 88 52 58 60 56 30 14 30 14 25 31 20 21 27
100 100 100 98 83 95 75 74 80 78 78 77 77 88 83 67 68 55 69 70 64 55 42 66 89 98 98 96 91 86 85 82 67 62 49 39 24 29 24 30 38 38 32 26 31
100 100 99 100 90 94 98 99 79 86 85 82 78 99 73 67 69 65 68 68 67 54 43 98 97 97 96 99 98 78 79 76 72 64 45 41 32 29 38 39 38 36 37 36 32
100 100 99 99 96 98 98 97 91 87 84 68 60 64 73 66 71 65 68 66 74 53 64 87 98 98 86 69 71 83 84 76 67 58 48 40 37 28 34 37 33 32 34 36 33
100 99 99 99 97 98 99 99 91 83 80 74 69 70 66 78 69 72 81 77 74 53 87 100 97 95 89 73 86 86 94 85 68 65 50 45 40 32 32 31 28 30 32 34 34
100 100 99 99 98 98 98 100 98 96 96 81 66 63 75 96 81 67 76 95 81 56 85 98 95 92 94 84 94 97 98 81 74 68 62 46 38 29 30 32 32 30 34 36 35
100 100 99 99 98 98 95 98 97 97 97 88 83 66 89 92 83 65 78 86 78 56 96 100 100 100 96 90 85 96 77 78 80 83 54 49 54 40 26 33 34 35 36 35 34
99 100 100 99 98 98 98 98 98 98 96 85 83 79 78 91 72 66 75 99 79 50 95 95 95 100 100 85 80 80 66 85 86 63 52 51 51 38 28 27 32 31 36 33 33
92 100 100 99 98 98 99 98 98 98 95 84 84 87 95 75 79 60 59 79 96 51 81 100 90 98 90 92 92 84 95 83 68 53 61 47 49 34 28 33 33 33 36 36 36
38 97 100 100 98 98 98 98 98 98 94 80 84 90 90 82 92 70 65 85 95 79 96 93 89 94 88 97 97 99 96 83 64 66 70 43 46 34 23 33 31 33 35 37 38
34 50 82 99 99 98 98 98 99 98 82 77 72 63 86 69 98 83 99 100 99 59 88 96 98 99 100 86 89 100 96 57 71 74 61 49 46 28 28 29 29 30 37 39 40
40 45 63 98 100 99 98 99 94 84 98 99 76 57 66 84 96 92 97 99 99 84 80 99 91 93 85 71 84 98 88 56 56 64 68 53 42 35 32 35 31 32 33 38 42
41 44 67 97 100 98 99 98 99 98 95 96 99 87 96 97 99 99 99 98 99 88 64 87 85 83 88 96 93 80 62 58 55 66 70 57 45 40 37 36 34 30 34 39 44
46 61 73 97 100 99 98 98 100 96 87 91 89 88 96 82 99 99 93 99 99 99 68 69 68 83 83 84 88 71 58 54 51 53 64 65 41 36 35 36 35 35 40 44 48
61 70 84 100 99 99 99 99 99 91 86 81 76 96 87 96 99 100 99 99 97 82 68 72 59 70 58 56 57 55 54 51 49 54 52 50 47 40 35 35 36 40 47 49 42
84 86 95 100 100 100 100 99 99 94 88 90 91 89 86 91 92 97 100 95 95 79 69 64 56 77 79 63 56 56 55 52 49 46 45 52 43 37 36 34 36 46 45 46 46
94 93 94 92 100 100 100 99 99 99 100 100 93 92 90 87 76 87 93 95 80 73 72 60 55 53 72 65 59 56 55 54 51 52 50 48 45 40 35 34 37 42 41 43 48
85 80 89 92 96 100 100 100 100 100 100 100 98 84 83 93 82 76 79 84 94 72 70 76 57 50 46 48 51 54 44 47 52 48 52 49 50 49 42 37 40 41 42 47 49
56 59 84 87 94 100 100 100 100 100 99 98 87 90 86 70 74 70 78 71 75 86 68 85 62 61 58 49 54 53 50 49 47 49 52 56 51 44 42 42 45 47 48 45 53
40 63 77 92 99 96 99 98 100 98 100 90 76 89 81 83 69 62 69 66 64 66 70 75 60 56 54 56 57 55 51 49 54 56 56 56 52 51 49 39 45 53 54 54 53

GFSSW_700_rhum_003.txt.gz
RH
45 47 49 49 49 49 50 46 35 54 60 65 78 86 86 81 84 70 53 56 60 45 32 62 85 73 71 65 63 62 64 57 53 52 55 47 25 30 45 41 43 42 44 44 44
50 49 50 47 45 46 51 51 45 37 32 27 90 85 70 87 94 67 59 65 64 58 38 34 86 85 75 69 68 68 64 57 50 54 60 57 34 28 40 44 46 45 45 45 44
53 52 51 51 51 51 50 44 40 39 38 36 32 66 95 89 93 62 72 64 69 71 49 31 51 100 83 75 73 70 66 58 48 58 62 64 49 29 32 42 45 46 45 46 45
62 59 59 58 60 53 49 44 40 37 32 32 35 56 91 97 88 83 71 61 65 75 61 35 34 94 95 82 74 70 74 61 49 59 65 64 58 30 23 33 39 45 46 46 45
64 60 63 68 69 62 52 43 41 43 41 47 41 65 76 70 50 70 81 61 48 76 66 41 52 66 86 74 81 77 79 66 58 63 64 62 57 59 27 24 29 35 40 42 41
70 70 75 75 80 68 58 46 42 42 60 69 73 73 66 65 69 75 72 63 68 68 69 47 59 66 76 89 82 71 79 70 65 67 66 62 55 60 20 21 21 22 29 31 34
78 84 76 84 94 78 67 51 46 50 54 57 66 78 68 58 78 88 78 60 75 78 69 50 53 81 96 90 76 84 84 77 70 64 60 59 52 48 41 30 17 14 16 20 23
83 85 98 100 100 91 77 62 54 59 64 65 81 90 78 64 70 74 69 70 100 77 64 42 71 98 98 93 86 87 87 86 71 71 56 65 46 41 27 16 19 25 29 24 15
89 85 99 100 100 99 97 95 74 78 84 82 85 92 82 68 75 73 78 76 100 73 59 62 91 98 99 94 95 85 83 80 76 61 61 59 46 36 32 34 37 42 36 28 26
82 88 97 100 100 99 98 98 97 91 97 98 83 91 83 74 66 68 73 75 97 82 60 88 98 98 96 95 97 97 81 79 71 69 66 56 45 34 34 40 42 41 38 36 35
79 92 96 100 99 98 97 98 99 100 78 80 74 68 70 72 76 84 74 72 95 98 61 99 99 99 96 80 77 76 68 70 71 70 74 53 47 37 28 34 38 40 36 37 36
70 95 99 100 99 98 98 99 98 97 96 95 81 72 67 68 74 71 77 64 94 98 62 99 100 98 90 83 81 86 84 80 76 78 77 70 49 38 31 26 35 36 32 31 34
69 94 100 100 99 98 98 98 98 98 98 88 74 69 65 65 63 90 73 59 94 100 67 93 98 90 95 86 87 90 77 77 86 79 75 74 57 41 30 28 26 30 34 30 34
47 88 91 100 99 99 98 98 98 98 97 84 79 74 65 79 63 95 69 63 98 93 70 94 100 88 97 81 82 87 84 82 87 89 84 70 55 49 37 25 24 34 36 32 36
17 54 91 97 100 98 97 99 98 98 97 90 89 93 60 65 82 79 64 85 91 85 83 97 98 96 95 96 80 96 86 86 89 91 86 64 52 45 37 32 31 38 36 37 35
26 29 60 88 96 99 98 98 98 98 96 97 97 95 72 70 81 79 62 89 98 87 82 100 93 100 82 88 87 93 81 89 94 90 60 57 50 38 23 35 34 38 36 37 34
26 36 46 68 86 99 98 98 97 98 89 97 96 98 78 68 91 84 59 98 98 98 98 99 100 99 100 99 100 98 86 95 95 79 64 49 50 35 29 33 33 34 35 37 38
26 37 52 64 86 98 98 98 99 94 88 92 80 97 87 70 96 82 56 95 99 83 91 100 100 98 96 100 93 97 92 83 76 69 58 55 50 28 36 34 38 33 37 38 40
23 40 47 65 83 99 99 98 89 92 97 79 81 91 90 77 96 75 66 76 98 87 68 98 99 97 82 84 88 99 98 87 60 67 66 54 50 42 41 36 37 36 35 38 41
26 42 49 64 88 100 98 98 96 99 96 53 72 82 81 83 99 84 80 74 93 75 69 72 91 97 96 99 99 90 83 97 64 66 71 61 52 44 39 38 38 34 33 37 42
30 56 76 90 99 100 98 98 98 99 85 57 76 72 58 80 99 89 80 95 99 84 86 68 70 91 94 96 96 96 97 90 65 56 64 60 43 38 38 35 36 34 37 39 44
38 63 93 100 99 98 98 98 100 94 88 82 81 52 48 60 88 96 87 94 87 83 84 74 61 78 91 88 91 78 84 84 54 59 55 55 46 40 34 38 35 36 39 44 52
64 89 99 100 99 99 99 99 99 93 88 84 77 78 58 75 99 94 90 76 82 96 71 72 68 78 76 74 68 84 86 68 63 52 49 54 45 42 39 37 36 37 38 47 53
87 96 100 94 96 100 99 99 99 97 96 94 77 81 94 90 83 91 100 97 91 88 72 69 62 64 73 70 65 67 74 69 55 54 51 49 45 41 42 42 38 36 38 43 46
83 93 92 84 81 96 100 100 99 99 99 100 100 84 81 87 89 87 99 98 100 96 90 79 66 60 58 57 59 56 61 59 55 55 53 50 46 36 43 50 47 41 42 44 50
58 86 64 84 81 91 100 99 100 100 100 99 96 89 90 70 83 81 64 94 96 100 91 89 80 62 54 56 61 60 58 55 53 52 52 51 44 40 46 53 48 43 48 50 48
18 42 56 75 89 98 98 100 100 99 100 98 80 82 93 84 75 69 58 68 85 92 94 92 73 66 70 60 62 65 53 54 53 49 38 45 32 45 52 49 45 45 44 45 48

GFSSW_700_rhum_006.txt.gz
RH
46 46 47 47 47 48 48 46 47 49 52 63 99 94 92 81 82 66 47 52 64 64 58 39 39 77 72 69 64 60 70 60 58 58 51 55 47 28 38 42 41 41 43 43 42
50 52 51 48 47 45 44 42 43 45 44 54 79 62 74 90 95 81 64 65 59 73 62 58 35 73 85 72 70 67 74 63 66 60 49 52 60 42 33 39 43 44 43 43 44
51 51 54 52 53 54 52 48 46 48 45 42 38 37 40 88 98 84 62 79 79 80 73 68 49 38 83 81 82 77 76 69 57 52 54 53 59 57 35 34 39 43 45 44 45
49 57 55 54 55 60 60 52 46 41 38 36 36 36 36 79 88 96 69 65 74 81 76 75 58 37 69 93 90 78 63 75 55 56 60 56 56 56 47 32 36 37 44 45 44
49 63 65 67 68 64 66 58 49 42 40 39 35 32 44 65 86 98 87 59 55 71 69 79 68 41 63 92 99 75 81 71 56 58 61 60 56 58 48 28 27 29 36 44 45
49 59 65 73 70 73 71 64 53 45 43 38 40 63 53 69 50 63 92 84 64 58 58 71 77 76 91 96 99 87 90 75 65 61 68 62 54 61 42 48 36 25 28 35 37
43 52 61 75 73 80 85 73 59 48 44 49 86 90 81 64 57 54 51 61 63 59 58 66 76 89 92 98 98 98 95 88 68 64 74 62 52 51 50 45 32 28 20 22 23
32 40 58 82 85 91 93 80 73 61 56 62 88 87 83 62 64 57 61 64 63 56 52 70 72 81 99 98 99 99 98 81 73 86 73 70 58 57 45 30 27 20 22 20 18
21 30 56 88 83 98 100 96 97 76 74 77 80 81 69 56 51 63 62 59 61 67 55 79 68 96 97 97 98 100 84 78 72 86 80 82 59 52 35 34 35 40 37 32 25
17 24 71 85 88 100 100 99 96 99 98 99 98 91 70 57 58 60 73 68 68 80 88 85 79 99 99 99 95 86 82 70 73 72 65 66 55 53 44 36 40 41 41 36 31
13 14 77 92 92 96 100 99 99 100 96 77 83 80 74 61 62 61 68 74 74 84 95 93 90 98 95 99 89 70 71 75 71 70 72 72 68 59 43 36 35 39 41 38 38
14 6 77 90 97 100 99 99 98 99 97 88 95 97 94 83 66 75 77 72 72 68 100 99 98 97 100 98 95 80 76 74 66 70 75 71 71 64 48 38 30 34 39 37 34
19 8 69 85 90 93 99 98 98 98 98 97 98 97 96 86 63 78 76 72 65 73 99 88 92 100 100 100 99 82 82 68 66 78 82 79 59 54 44 36 33 30 36 36 31
50 21 28 80 68 91 99 98 98 98 98 95 99 94 94 93 71 64 83 76 88 92 98 98 99 100 99 99 99 81 85 83 82 89 69 71 50 52 43 39 33 30 28 30 32
74 35 27 24 60 81 99 98 98 98 95 88 95 98 93 80 82 60 76 88 77 95 98 84 99 100 100 96 96 80 83 87 90 90 86 70 58 44 41 40 35 28 31 36 34
81 34 30 36 43 68 99 98 98 98 92 93 98 97 94 88 79 74 89 87 92 99 99 81 96 99 99 99 96 92 90 91 90 84 70 58 55 40 36 34 33 35 40 37 37
87 31 29 36 52 70 92 98 98 97 94 98 96 97 97 69 85 92 84 80 94 98 96 95 99 99 100 100 99 93 94 98 96 88 60 53 55 40 35 33 34 36 35 36 36
88 35 27 38 61 80 96 98 97 96 96 94 96 98 98 98 99 88 99 100 95 100 85 96 99 100 99 98 97 87 85 61 63 60 47 55 47 36 36 35 31 31 37 36 36
86 35 26 53 64 76 99 98 92 97 97 96 98 96 100 99 89 98 99 92 91 99 96 98 99 100 94 99 85 99 98 73 58 59 48 46 48 42 43 38 35 39 33 37 38
88 30 42 66 71 99 98 98 97 98 98 100 87 92 83 91 77 98 90 78 94 96 100 93 99 100 99 99 98 99 94 88 68 58 54 43 46 38 39 36 38 37 36 38 39
86 31 58 88 100 100 98 98 98 99 99 89 82 86 80 84 77 94 85 85 61 85 99 96 90 98 100 99 96 100 99 96 68 58 42 40 37 39 36 32 36 36 36 36 39
72 51 71 100 100 99 98 98 98 99 78 68 70 74 70 87 89 96 81 92 65 82 95 82 70 98 96 94 91 85 87 85 70 61 56 48 37 38 35 31 34 35 36 38 42
54 82 98 100 98 99 98 98 99 100 88 78 69 81 61 83 78 96 91 56 60 77 83 80 69 78 97 91 85 98 93 87 67 55 53 47 42 39 38 35 34 35 37 40 42
47 99 99 100 100 100 99 99 99 87 92 100 80 76 44 51 69 73 98 62 84 79 78 78 70 54 57 62 70 79 81 79 78 67 54 50 44 42 40 37 38 39 38 37 42
43 88 98 98 96 100 100 99 100 99 96 100 88 74 69 77 93 93 97 92 87 85 77 89 69 71 65 60 60 62 65 68 73 68 57 51 52 48 47 42 40 44 47 44 42
51 60 93 92 80 93 100 98 99 100 98 99 98 82 88 69 67 92 69 94 90 96 74 88 79 65 64 64 65 63 58 58 58 68 60 55 53 52 51 48 42 48 50 49 45
71 35 77 79 74 89 100 99 99 100 99 100 99 97 98 86 75 66 84 90 79 81 75 94 82 74 60 59 67 67 66 60 55 57 56 56 45 53 43 40 44 47 51 49 52

GFSSW_700_rhum_009.txt.gz
RH
40 46 52 50 47 45 44 45 49 49 53 80 63 81 78 94 96 78 50 41 44 51 58 59 50 27 59 66 72 62 70 59 51 50 46 48 52 50 43 34 38 40 41 45 43
45 48 50 54 54 51 48 48 45 46 46 42 47 94 82 100 98 98 80 73 60 55 57 64 64 37 71 79 97 84 70 60 53 50 51 50 57 62 45 50 50 48 43 44 43
43 47 51 56 53 52 52 52 52 51 48 47 44 43 96 100 97 84 83 77 78 63 52 61 65 60 98 98 92 90 74 62 59 57 62 59 62 62 63 31 48 50 49 52 46
40 44 55 62 62 63 64 60 56 54 49 46 47 45 42 41 81 88 69 57 60 58 64 58 68 66 89 100 94 84 78 73 64 65 72 66 62 65 69 54 62 57 52 46 44
31 40 53 63 65 71 71 66 60 57 52 44 39 39 40 48 65 62 75 54 57 64 70 63 63 69 80 100 98 95 79 73 74 69 72 67 60 52 61 62 33 39 48 37 39
22 33 45 61 75 79 83 72 60 60 54 44 43 45 44 56 45 77 78 71 65 56 61 72 67 70 95 97 93 93 85 80 73 73 72 74 66 65 58 54 59 56 47 33 36
17 24 38 52 79 79 87 82 75 68 57 45 49 73 69 40 52 44 53 48 64 80 62 60 86 94 92 90 86 93 88 84 77 72 68 75 70 62 48 61 55 43 37 27 28
21 17 26 42 80 82 95 86 79 72 61 46 50 88 91 56 70 54 52 55 52 49 50 57 92 76 100 92 93 87 88 92 79 73 70 78 66 55 52 56 44 26 19 24 20
38 15 18 27 85 89 98 100 88 81 70 62 58 72 89 51 60 66 65 56 57 60 58 59 79 83 76 99 92 100 90 86 77 68 70 75 62 53 53 52 37 41 42 36 28
45 23 14 20 84 97 100 100 99 90 98 88 82 83 69 57 50 52 54 56 63 77 71 70 73 88 79 100 97 93 94 71 75 61 69 68 66 60 54 52 46 42 43 38 34
48 37 13 11 67 85 90 100 99 98 94 91 82 72 75 63 56 52 51 54 72 98 99 93 88 99 62 82 95 89 85 68 68 60 62 65 63 53 53 54 52 45 46 40 37
54 48 18 6 52 84 96 99 99 98 100 99 99 93 86 83 80 67 54 66 92 98 100 99 98 82 57 80 99 91 79 65 57 64 66 60 58 54 55 57 54 46 46 38 39
59 59 37 12 32 80 97 98 100 100 99 98 99 98 98 95 93 84 63 67 99 100 100 98 86 63 95 97 100 98 94 65 65 73 70 63 63 62 60 59 52 40 47 39 40
65 66 70 35 19 52 59 92 100 99 98 96 78 94 99 98 95 90 83 80 99 100 100 100 85 99 95 98 100 94 83 66 67 74 61 66 43 38 44 49 41 38 38 34 40
72 72 80 54 38 36 49 79 100 99 96 92 98 99 100 99 98 82 69 77 99 99 95 77 79 97 99 90 100 99 95 76 82 70 87 79 61 44 44 42 38 36 36 34 35
80 78 90 60 48 51 62 99 100 98 92 95 98 93 96 97 92 88 60 62 98 99 98 87 83 99 92 99 98 96 91 91 90 76 67 56 55 37 40 41 41 36 36 36 37
94 93 97 91 51 62 77 100 98 97 93 98 96 96 98 98 96 98 96 97 97 100 95 99 97 99 98 99 100 100 99 95 82 80 53 46 47 40 35 28 34 32 36 39 41
99 100 100 100 70 65 81 100 98 96 92 97 97 97 98 97 97 95 99 99 92 87 98 94 98 99 90 99 98 98 98 61 63 57 44 51 47 39 41 40 30 36 40 42 41
100 100 100 100 80 81 95 100 97 98 95 96 97 99 97 95 81 83 98 100 96 87 98 93 90 86 96 100 98 99 96 63 52 44 39 47 44 41 35 39 36 34 37 38 39
100 100 100 97 62 100 100 98 98 98 97 97 96 88 91 92 80 88 98 86 89 96 98 99 90 98 100 100 100 99 78 72 54 50 46 38 36 35 42 39 38 38 36 36 39
100 100 99 75 99 100 98 99 98 98 98 98 82 76 71 72 78 88 87 69 63 88 96 98 95 98 100 100 98 99 98 76 53 48 38 39 34 38 40 34 36 38 40 37 37
100 100 88 92 100 99 98 98 98 98 99 90 73 68 58 62 78 86 74 66 58 82 98 99 98 99 98 100 96 90 90 73 54 53 47 42 38 39 34 29 31 35 36 39 37
100 100 87 99 99 98 100 98 98 99 100 81 83 69 62 63 72 90 83 68 83 64 98 98 97 99 100 95 100 98 86 83 70 57 46 39 39 36 35 33 31 34 36 36 38
100 97 100 100 99 100 99 98 98 100 94 58 88 74 71 71 72 84 91 83 74 65 100 99 85 71 54 58 83 98 88 79 70 58 50 46 42 38 37 34 32 33 34 36 38
100 98 100 98 94 98 99 99 99 99 84 85 99 84 80 66 70 85 88 92 82 70 95 99 73 60 53 55 68 72 82 78 77 68 56 46 47 43 43 44 43 43 36 38 43
100 95 99 97 100 98 97 97 99 98 97 95 99 95 83 68 62 66 85 87 96 91 81 98 84 68 63 62 59 60 65 71 72 70 64 53 51 48 48 48 47 46 46 40 47
99 100 63 93 99 93 84 95 99 100 99 92 98 96 91 75 79 93 84 94 95 82 86 99 97 68 57 64 68 64 58 61 64 65 60 57 55 53 52 50 49 45 45 43 46

GFSSW_700_rhum_012.txt.gz
RH
17 29 44 50 48 48 46 46 47 47 49 48 45 50 73 73 75 71 66 66 50 45 46 48 58 56 37 29 66 91 81 76 66 60 51 45 46 48 48 28 36 42 43 46 44
21 35 45 48 50 52 51 48 48 48 47 47 46 54 77 68 61 79 58 78 70 56 41 36 57 62 56 30 56 84 90 64 61 56 50 48 48 49 59 52 30 50 47 45 43
23 36 45 48 55 55 52 51 50 52 53 52 50 46 45 46 89 64 72 53 56 66 67 50 54 64 63 57 77 78 79 67 63 57 53 52 53 53 59 62 29 47 52 48 49
24 28 42 48 58 61 63 65 66 65 61 59 55 51 48 47 72 79 66 44 46 56 77 65 59 74 72 73 90 96 88 83 61 61 60 58 56 54 60 62 60 55 59 52 56
36 21 30 40 53 58 65 65 60 63 63 63 58 52 47 44 39 44 55 45 41 50 70 66 66 70 76 87 96 92 94 81 77 67 64 67 64 54 57 49 51 38 34 43 46
38 29 21 30 44 52 72 66 65 65 64 61 58 53 47 42 42 42 40 48 61 57 63 70 93 88 90 87 92 96 82 80 81 72 71 69 69 71 47 54 37 50 59 59 57
37 39 20 23 35 44 70 66 66 66 69 67 62 54 48 44 51 47 51 52 68 61 96 81 82 93 100 94 92 88 89 85 75 80 73 71 70 70 43 55 40 56 60 46 38
33 42 33 18 24 35 63 80 69 76 78 74 65 54 51 47 55 39 48 41 45 56 59 80 100 100 98 100 94 91 96 87 76 78 72 73 69 62 60 55 49 53 44 36 32
27 43 44 21 18 24 59 87 84 90 93 86 69 61 53 46 46 56 64 65 60 57 53 53 79 88 99 97 96 92 93 80 74 81 77 71 65 63 52 54 55 51 44 41 28
28 42 50 34 16 19 42 88 92 84 99 98 94 80 67 54 53 54 61 67 64 58 61 67 76 77 90 90 95 98 98 85 87 73 77 70 66 64 55 53 53 49 42 41 38
33 38 54 46 19 16 25 67 72 87 96 98 95 94 88 69 61 59 59 56 61 67 85 83 87 74 52 62 51 94 88 91 77 75 71 70 64 68 63 58 52 53 46 42 39
38 37 60 56 27 14 11 51 89 98 98 98 99 99 99 96 85 72 64 64 60 80 98 100 84 32 64 81 84 84 93 89 81 72 72 65 61 58 63 58 51 54 52 44 35
40 40 67 65 50 27 14 49 87 92 100 98 98 100 98 99 96 92 80 71 58 80 98 88 33 71 88 95 96 97 97 90 98 67 78 64 62 61 56 52 51 53 56 47 43
40 44 70 74 71 54 30 39 55 94 99 96 94 95 98 99 99 95 99 94 88 88 90 97 77 88 93 94 84 94 77 87 93 96 82 71 62 52 39 50 54 57 58 46 44
43 45 75 91 90 79 53 47 53 98 98 94 99 94 96 93 99 94 97 98 96 85 94 77 80 87 97 85 78 82 87 85 97 98 86 68 64 52 42 44 52 49 52 49 44
81 58 86 98 100 88 68 57 70 99 93 90 95 83 93 85 97 99 91 98 96 96 99 81 91 87 66 63 76 89 91 85 99 97 92 94 64 50 44 44 46 46 41 44 42
100 85 100 99 99 100 68 68 99 98 82 97 90 89 91 98 100 99 98 96 95 99 99 98 91 88 78 88 82 99 99 96 100 99 92 62 67 45 39 42 42 43 42 44 43
100 100 100 100 100 100 98 78 99 86 86 94 96 96 99 98 97 98 98 94 97 86 98 98 87 63 77 88 80 99 100 100 97 98 57 51 52 46 45 41 34 36 35 41 41
100 100 100 100 98 99 98 98 88 96 96 97 98 98 100 98 98 98 93 95 80 90 99 85 90 87 64 77 100 97 99 83 85 44 51 50 46 43 42 43 41 39 32 35 37
98 100 99 99 99 99 98 77 99 100 98 97 97 85 99 96 96 93 95 85 83 90 92 88 98 97 98 100 96 77 83 100 86 58 68 52 45 39 37 34 39 35 31 34 41
100 100 98 99 99 98 99 93 100 97 98 97 96 86 74 89 72 83 74 66 80 87 99 96 97 99 100 99 98 99 100 86 82 57 56 58 42 38 34 33 37 38 38 36 35
100 100 98 99 98 98 98 98 97 98 98 98 83 87 65 87 76 86 77 91 87 87 95 92 98 99 92 98 86 98 84 74 53 54 48 41 45 41 38 35 36 38 38 39 39
99 100 100 99 98 98 96 100 98 98 98 98 74 73 62 63 67 68 81 86 88 84 78 98 98 99 95 99 100 100 96 72 64 61 49 46 45 40 34 30 30 35 37 39 42
100 99 99 99 96 99 99 99 98 98 98 100 90 79 68 61 59 89 78 90 84 75 96 99 96 99 99 88 87 98 78 64 71 65 52 45 43 41 36 34 32 32 34 37 39
99 98 97 98 91 97 99 99 99 98 99 87 67 84 67 66 70 64 81 83 80 80 89 98 99 100 81 63 66 62 62 66 74 65 57 48 44 41 38 36 33 38 42 33 34
100 100 99 98 89 99 91 97 100 98 98 84 66 80 74 73 65 68 76 91 83 90 95 97 90 70 66 66 71 74 71 66 61 71 60 52 49 46 45 46 48 47 46 46 37
99 98 99 99 95 96 91 99 98 98 98 96 83 90 84 80 87 68 88 70 98 80 86 93 74 78 64 63 58 61 62 67 62 60 64 64 51 52 50 49 48 49 48 40 43

GFSSW_700_rhum_015.txt.gz
RH
28 19 19 37 42 44 45 46 44 44 42 42 40 42 42 40 44 47 46 56 48 47 40 31 35 45 52 46 36 67 77 67 55 51 35 46 54 46 46 45 34 43 46 46 46
30 24 22 36 44 46 50 48 49 48 46 44 43 44 45 53 57 46 52 45 55 59 61 48 36 43 53 54 41 64 68 54 46 49 45 42 53 50 48 48 43 29 47 52 48
28 31 23 31 43 48 58 56 51 50 51 50 49 48 48 70 76 39 46 45 60 56 66 63 50 46 47 52 50 46 53 49 41 54 50 52 54 54 51 50 48 41 54 58 50
26 31 28 25 37 47 59 56 56 60 63 64 62 57 54 52 56 56 44 43 47 62 90 76 71 60 64 65 55 52 46 59 45 51 52 56 60 55 54 51 49 51 49 55 59
21 33 35 23 29 40 52 55 65 62 60 58 57 60 57 52 44 48 47 44 38 36 49 79 84 72 64 66 71 71 63 74 51 51 59 63 67 64 57 53 53 39 46 36 50
23 26 37 33 21 31 42 51 64 56 57 63 60 58 56 47 52 51 47 43 37 36 39 51 72 78 80 73 95 95 89 82 83 78 65 64 65 70 51 51 49 41 36 46 40
25 24 35 41 25 22 33 44 54 66 60 61 63 67 59 53 56 53 53 48 44 43 42 64 85 92 87 77 84 91 89 89 77 79 77 78 72 65 59 53 50 38 33 60 59
26 27 26 43 39 20 23 34 44 67 71 66 69 65 50 56 54 49 52 46 46 56 74 86 98 97 100 93 76 83 82 88 83 75 78 80 80 72 54 57 49 45 52 52 49
25 30 29 38 46 31 17 22 42 69 87 81 55 70 53 49 52 53 57 57 52 45 77 74 88 99 89 93 93 88 95 91 81 71 77 78 76 68 65 60 58 56 55 51 47
22 29 33 37 51 44 22 16 27 67 88 88 79 66 64 67 64 56 56 63 69 67 61 50 57 74 86 94 96 95 89 92 89 61 75 79 78 65 60 54 54 56 54 50 47
19 28 35 34 56 54 29 16 21 37 54 83 93 74 76 86 90 65 61 62 76 78 73 53 63 86 66 66 84 86 91 91 84 81 82 69 70 64 56 60 57 53 54 50 44
18 27 37 40 54 60 40 21 15 40 63 79 77 72 82 98 98 91 81 67 66 79 66 84 92 53 49 56 75 87 86 80 80 89 80 74 71 60 56 59 57 53 53 55 51
23 34 39 46 56 66 55 36 24 47 75 79 43 57 64 98 100 98 98 90 70 68 61 50 77 49 60 74 85 77 83 77 86 70 79 89 82 72 66 67 61 53 53 57 54
95 85 39 49 66 75 68 50 33 43 90 95 75 74 69 97 99 99 100 99 98 94 81 81 66 64 82 80 87 93 57 81 79 99 97 82 84 64 65 67 63 59 52 55 54
100 100 59 64 82 90 84 64 47 55 97 84 85 73 65 83 95 82 100 99 99 97 96 82 90 61 78 49 92 77 75 87 93 92 100 97 98 76 59 64 62 49 52 54 57
98 100 93 89 96 100 98 58 63 90 94 85 81 78 77 77 96 100 98 99 98 98 98 92 95 86 75 65 68 71 84 82 99 97 97 98 98 68 63 49 42 49 57 56 59
99 99 100 100 98 99 100 81 68 96 63 88 89 88 88 97 98 99 99 98 98 98 98 99 85 87 85 88 82 86 94 86 90 96 88 80 96 78 45 42 40 38 50 52 57
91 96 99 100 100 99 100 95 78 61 63 73 84 94 99 99 96 96 100 97 99 98 96 96 87 78 76 82 78 73 78 91 87 84 73 86 98 70 44 38 42 44 44 52 53
98 92 99 98 99 100 100 98 72 65 64 76 88 98 98 95 99 100 100 98 77 90 88 86 91 75 73 61 72 70 99 53 98 78 100 98 80 54 44 42 44 43 43 42 38
98 95 97 84 99 99 99 99 90 77 66 69 98 97 94 85 100 96 93 79 85 70 68 76 94 76 86 96 88 79 75 91 99 99 94 78 48 46 47 44 42 37 36 35 34
99 88 98 87 99 99 99 97 89 83 77 95 97 98 95 94 88 86 73 65 68 78 78 90 99 89 94 98 85 97 99 92 98 90 90 88 54 41 44 43 42 42 40 34 30
99 97 95 99 98 98 98 95 82 80 97 97 98 99 100 83 85 81 72 66 88 81 94 89 97 98 91 88 97 76 98 94 92 100 94 47 48 42 40 40 34 35 32 35 35
98 95 98 94 98 98 96 89 89 85 99 98 98 93 75 87 87 72 66 76 78 88 96 97 98 93 100 100 100 100 91 63 78 99 82 54 48 43 39 37 37 36 38 39 41
84 99 98 99 99 100 100 99 98 96 98 98 98 99 74 71 66 71 68 72 88 93 97 97 98 96 97 99 97 100 82 80 96 100 55 45 43 37 33 31 32 35 37 38 40
86 98 94 97 97 86 95 93 98 99 98 99 99 89 78 70 64 67 64 75 94 96 98 98 98 99 99 96 100 89 56 81 99 80 47 44 40 36 36 32 31 31 33 34 36
77 96 91 86 100 99 100 99 98 98 99 98 98 62 68 70 66 64 68 71 91 94 87 97 98 100 100 92 98 87 77 100 96 63 53 54 42 42 40 36 36 42 46 45 43
83 96 99 80 92 98 94 82 79 99 92 97 99 85 77 60 70 71 71 72 80 92 84 97 92 99 82 100 100 98 90 92 71 59 54 55 52 45 44 46 48 49 47 43 37

GFSSW_700_rhum_018.txt.gz
RH
26 29 28 20 21 37 44 45 46 46 44 41 37 36 34 37 34 29 34 51 47 43 41 31 23 30 40 44 42 41 64 58 49 44 27 35 51 51 52 48 45 40 47 47 49
26 29 32 23 26 38 43 43 49 48 46 44 44 42 42 42 42 33 50 59 62 48 47 46 47 36 29 41 49 42 48 47 32 32 29 30 47 55 53 51 49 43 39 48 48
24 30 32 30 26 33 42 47 50 53 52 47 46 45 47 46 44 37 52 54 62 42 44 51 55 55 42 39 48 47 41 41 36 34 36 33 41 45 56 54 52 47 46 52 54
21 23 33 36 27 28 37 47 50 51 56 58 60 61 60 56 54 49 47 44 43 50 61 55 58 55 52 42 41 48 42 43 39 38 40 43 40 52 56 56 58 54 46 59 52
24 22 23 36 36 25 29 37 48 53 60 58 57 60 61 55 51 51 46 45 46 49 49 49 67 65 59 55 44 56 46 46 41 40 48 53 51 59 57 60 63 59 54 48 54
28 25 24 25 39 34 23 29 39 49 58 53 54 57 59 54 56 55 47 44 46 45 45 44 39 69 71 67 63 57 69 61 55 46 43 53 51 61 54 61 62 64 56 50 45
32 24 26 26 31 41 29 23 31 42 47 63 57 58 46 63 57 58 54 50 49 48 46 42 41 65 84 81 78 74 76 73 58 60 75 76 61 59 59 54 56 55 50 40 35
25 26 26 31 29 40 40 25 22 33 38 49 68 63 48 56 55 49 50 50 50 49 53 64 52 85 97 98 92 84 78 81 66 74 76 91 58 53 64 65 60 58 49 39 41
18 24 24 32 33 40 47 35 21 21 29 45 53 63 45 41 52 51 48 49 51 51 69 100 99 98 99 99 97 97 95 90 90 66 84 75 55 56 56 62 61 56 46 47 56
14 19 22 29 37 42 52 46 29 20 22 33 40 43 42 43 63 68 60 51 53 56 63 99 100 100 100 97 97 93 83 76 79 85 71 74 73 76 67 60 64 54 57 60 59
21 42 71 30 38 46 56 54 36 28 22 24 42 45 46 52 50 70 77 58 63 76 70 66 91 94 65 66 92 86 91 88 88 95 83 94 78 74 73 61 59 59 48 57 57
77 70 87 85 48 48 52 58 43 29 26 27 40 40 63 75 79 77 85 77 66 73 81 91 92 69 47 47 65 89 94 90 87 82 89 92 83 82 67 66 64 54 58 58 55
93 82 97 100 75 48 59 65 46 36 38 37 37 34 38 80 100 99 97 91 93 76 99 96 74 58 53 54 65 62 78 86 86 63 72 91 82 72 53 58 63 54 59 61 56
96 82 97 100 79 64 62 65 52 40 45 50 44 56 61 71 99 95 100 100 99 95 81 100 86 71 63 88 70 76 57 68 84 97 96 78 86 77 58 50 62 52 57 58 59
97 89 92 100 89 69 72 73 63 51 79 62 67 61 64 72 68 79 90 100 98 96 95 88 76 69 71 61 72 83 77 80 90 97 99 71 92 80 71 74 53 41 56 58 58
98 99 91 100 99 95 99 91 66 77 88 64 63 61 69 71 89 83 99 99 99 98 99 96 96 91 77 64 64 96 95 94 96 95 97 71 82 68 63 57 49 49 52 53 64
98 99 80 96 93 99 100 90 78 84 58 79 61 70 75 77 90 94 88 100 98 99 98 98 98 93 93 82 78 86 95 87 99 96 82 64 66 62 58 51 48 49 51 57 62
98 98 87 93 100 99 94 94 79 58 66 68 65 81 91 92 97 96 98 98 92 98 98 100 97 94 88 83 81 84 94 83 91 99 71 53 79 75 46 36 44 41 53 55 56
98 99 96 94 81 97 99 98 76 73 64 64 79 98 100 95 95 96 95 99 100 87 100 96 97 90 91 76 86 86 98 55 90 78 87 66 72 41 25 43 50 49 45 42 46
98 98 97 99 97 100 98 96 95 86 83 76 78 85 97 88 97 100 94 75 88 84 92 97 95 74 73 86 96 86 70 96 94 98 95 85 95 75 27 40 50 41 42 42 44
98 88 99 97 100 99 98 97 92 98 96 95 85 95 92 95 94 93 75 65 74 72 75 84 95 78 73 83 76 99 98 87 74 70 99 81 70 62 54 38 48 43 45 43 46
98 98 93 100 99 99 100 95 94 98 98 94 94 89 99 98 97 93 83 60 68 64 66 73 95 95 81 72 84 94 80 90 84 75 70 94 70 40 49 44 49 45 42 40 40
98 96 98 99 98 98 94 94 99 99 97 97 90 90 95 98 92 80 78 67 66 78 94 92 97 97 92 95 98 97 98 81 84 65 94 97 68 47 46 45 47 42 41 40 39
97 97 100 98 95 91 93 94 99 98 99 97 98 98 95 83 86 74 78 68 69 86 98 98 98 95 91 98 84 100 94 84 91 72 79 93 77 68 44 43 39 40 39 36 43
98 99 97 97 98 97 97 100 99 99 99 98 99 98 98 95 75 76 69 73 78 92 99 98 97 97 97 99 99 98 85 91 100 91 89 76 89 55 39 37 36 37 41 45 47
97 88 80 82 90 94 96 98 100 98 94 98 99 99 100 83 68 66 68 72 75 76 99 98 93 98 99 92 99 99 98 95 95 98 85 90 97 42 35 34 32 32 36 37 38
98 71 89 87 90 99 90 89 97 100 98 99 99 100 74 72 65 66 71 82 85 91 98 98 98 98 99 100 100 99 98 96 85 97 90 99 81 40 36 34 36 46 46 42 39

GFSSW_700_rhum_021.txt.gz
RH
21 23 30 35 25 22 29 39 44 49 50 48 43 37 36 30 24 26 29 35 34 34 31 24 21 25 34 35 40 40 53 42 37 34 25 26 34 48 49 49 50 48 44 43 46
25 22 24 35 31 25 34 44 45 51 53 50 49 46 47 44 39 36 50 41 39 36 38 39 39 36 26 32 47 46 43 36 36 34 30 32 38 50 51 52 51 50 49 44 47
30 25 22 27 36 27 35 41 45 55 60 53 49 50 50 49 44 40 49 47 44 42 46 46 40 46 49 38 39 48 36 37 39 36 38 35 36 42 52 54 53 57 55 50 42
30 31 25 23 32 35 30 36 44 52 58 55 58 59 56 55 48 45 45 47 49 49 45 45 44 48 52 57 45 49 43 48 38 40 41 36 33 36 43 48 57 62 60 56 52
27 34 28 25 27 38 33 30 39 48 54 60 63 59 56 55 50 54 52 50 47 43 42 47 53 63 57 59 55 53 43 51 53 44 44 44 37 39 38 46 54 60 62 60 55
12 27 33 26 28 34 41 31 31 42 48 57 60 52 50 54 56 52 50 52 50 49 45 44 44 60 71 72 71 56 57 50 51 50 49 50 43 46 34 43 53 58 62 62 59
13 14 28 32 29 31 39 41 30 31 41 48 51 59 49 62 52 52 54 55 54 52 48 48 53 56 66 76 81 68 60 61 62 50 53 50 40 35 38 36 43 57 62 62 59
42 13 21 33 28 36 37 46 38 29 34 42 48 43 59 59 47 50 55 56 57 55 52 50 55 75 87 97 98 95 87 73 51 55 56 55 38 35 36 33 38 50 57 64 56
82 69 36 29 32 34 40 49 46 33 29 35 40 35 38 52 51 45 51 58 54 52 53 56 72 83 98 99 98 98 96 93 89 62 66 62 45 46 45 54 34 38 44 52 49
99 89 98 85 70 37 45 51 48 42 31 30 28 32 31 39 52 58 57 57 54 56 59 62 99 100 98 98 95 99 98 93 87 74 86 76 81 83 70 71 53 50 58 50 49
99 96 89 80 60 84 51 53 49 46 41 31 35 34 49 48 50 57 52 57 60 59 61 66 96 97 93 98 96 94 95 96 99 96 77 71 86 68 64 62 60 48 55 56 55
99 99 97 87 97 96 76 57 49 54 46 35 28 27 26 29 43 65 61 69 68 64 63 80 72 70 94 99 95 89 93 97 96 89 83 74 59 58 59 54 54 46 47 50 49
98 97 98 90 97 100 96 69 64 61 50 42 40 38 38 58 72 60 68 85 86 88 75 69 74 60 71 67 72 69 72 82 86 77 72 80 47 36 35 43 42 39 36 46 44
82 99 98 98 86 99 99 86 71 56 64 49 47 54 45 55 70 60 72 94 100 96 94 98 90 82 75 79 70 96 78 69 65 87 92 80 73 47 48 33 39 37 42 46 54
99 98 98 99 86 98 82 91 66 63 85 59 62 60 66 75 65 75 81 100 100 100 99 95 83 71 73 63 69 98 75 86 84 80 83 76 97 64 48 34 32 38 42 39 54
96 99 98 98 95 96 97 86 70 82 92 73 74 74 69 63 71 79 87 100 99 100 98 88 92 97 85 78 80 94 92 96 97 99 95 85 87 59 46 26 21 40 42 37 45
62 98 98 98 92 98 95 83 96 97 62 70 63 58 59 79 86 85 97 99 99 98 99 99 98 100 96 88 90 97 99 97 98 95 83 65 72 55 34 34 24 18 38 35 40
50 98 98 98 96 99 94 93 86 67 59 65 61 68 70 76 90 100 98 98 99 100 98 98 96 84 92 88 86 82 84 95 90 93 80 48 57 42 22 17 14 30 29 46 47
62 99 98 98 97 98 97 99 72 69 59 55 64 99 100 100 100 100 99 96 95 99 100 96 93 84 73 83 90 98 98 72 96 97 97 66 46 46 25 17 17 21 39 41 52
89 82 98 99 99 100 99 86 76 70 69 70 74 82 100 99 99 99 92 64 74 76 94 93 97 76 74 94 98 97 91 96 97 96 94 67 72 58 35 26 14 15 33 31 43
93 98 98 97 99 98 98 93 82 84 85 85 86 89 99 98 96 94 79 61 63 62 74 100 99 92 91 94 88 99 99 95 89 78 91 90 59 44 41 22 33 25 40 45 46
93 100 95 99 98 99 100 97 83 90 90 91 95 92 99 99 93 92 85 64 57 70 85 86 100 100 86 82 76 76 67 89 86 82 74 70 62 52 56 51 62 51 46 52 45
97 98 98 98 99 99 97 96 91 92 87 89 91 94 98 99 97 96 78 70 74 62 75 78 97 96 92 95 96 97 97 88 76 84 69 70 43 30 58 56 59 53 57 50 45
98 97 98 98 98 83 85 95 88 92 95 96 96 98 99 100 99 89 80 76 71 66 91 97 97 94 90 95 95 99 99 96 96 96 78 74 63 31 52 70 60 59 52 49 43
98 96 94 98 98 86 97 93 88 94 91 94 98 100 98 98 99 84 65 65 73 84 97 98 98 98 97 97 98 96 99 99 99 87 84 60 78 69 77 84 62 62 48 46 48
98 96 98 94 62 97 97 93 90 99 97 94 97 99 99 98 94 72 62 67 74 89 98 98 97 98 94 100 100 99 99 100 97 100 83 75 80 51 95 81 67 54 49 45 45
98 85 89 84 88 95 97 99 89 100 98 100 99 99 99 99 98 72 78 80 94 98 99 99 98 98 98 100 97 98 93 83 70 77 86 93 52 97 73 68 57 53 47 44 45

GFSSW_700_rhum_024.txt.gz
RH
26 27 25 22 24 31 27 22 33 48 51 50 47 42 37 38 47 26 25 24 16 13 12 16 26 32 31 33 39 42 50 39 34 32 27 26 29 35 44 49 44 46 47 46 42
25 26 28 24 23 28 32 26 37 48 52 56 55 53 48 49 52 36 47 39 34 34 32 33 28 25 23 29 45 48 45 36 34 33 32 31 36 42 43 50 50 51 49 48 47
14 22 30 28 24 25 32 30 37 46 57 63 61 56 52 52 50 43 47 44 42 43 39 43 42 43 43 37 34 46 42 39 38 38 35 31 32 39 47 52 54 54 54 56 51
13 18 24 33 28 26 31 34 31 44 57 62 61 60 59 59 51 49 48 46 49 59 68 56 59 56 44 44 46 48 36 36 40 42 43 35 33 31 37 45 53 56 58 60 59
56 36 75 27 36 28 28 37 33 32 49 58 60 63 61 58 56 60 58 54 47 59 57 62 66 68 56 49 50 61 48 48 46 46 40 43 37 34 30 33 42 47 56 58 60
100 80 48 94 33 31 31 32 39 32 35 50 56 62 57 56 58 58 56 57 57 55 53 48 53 70 64 61 62 57 52 46 48 48 44 40 34 43 23 29 34 42 57 60 60
96 98 60 82 72 35 30 35 40 38 32 40 48 54 57 66 55 53 53 54 57 55 59 76 87 58 57 54 62 57 57 55 47 40 40 38 32 27 26 28 31 36 48 61 62
100 100 95 74 95 71 34 39 41 44 37 35 40 41 48 62 58 54 52 56 60 59 57 56 57 68 68 68 85 92 97 75 53 54 50 51 33 35 39 29 26 30 36 49 58
92 99 99 85 78 88 66 47 48 45 44 36 37 29 31 36 54 64 52 50 60 58 58 59 56 57 66 73 91 96 99 98 95 86 73 70 57 36 39 31 31 30 29 37 48
44 100 99 96 90 84 100 87 58 50 46 43 34 32 34 39 42 44 50 50 57 60 59 60 65 90 96 77 95 93 97 88 94 95 78 78 82 48 42 48 38 33 34 31 37
4 98 99 99 91 96 98 98 76 63 43 44 41 41 38 41 44 47 59 62 62 59 57 60 77 100 95 87 89 81 89 91 90 87 93 72 66 51 53 49 37 32 32 40 33
3 41 97 100 98 99 98 100 84 63 56 53 46 39 32 28 39 47 47 60 60 59 64 74 60 66 72 93 97 97 99 100 91 65 67 63 41 39 40 39 34 32 25 28 39
10 6 55 98 98 99 97 96 89 76 74 54 48 39 32 36 38 48 58 72 76 79 73 70 65 69 71 68 99 99 100 99 80 54 58 70 35 29 23 23 24 27 25 25 30
84 8 73 97 98 98 99 98 99 94 68 52 41 43 40 47 61 49 66 85 96 93 93 92 84 90 87 79 76 82 76 68 73 92 96 68 78 47 37 26 21 17 20 22 25
90 32 74 98 98 99 94 98 100 94 83 55 60 64 63 61 61 63 69 100 100 100 94 83 82 78 88 80 86 97 80 82 93 96 98 95 98 61 42 28 22 18 18 18 20
82 60 84 98 98 98 95 98 97 70 95 74 82 93 94 92 80 77 75 95 100 100 99 97 95 98 93 88 86 90 98 99 98 95 95 84 90 57 46 31 24 18 17 19 22
57 68 98 98 98 98 96 99 89 89 63 71 87 96 99 99 100 100 94 100 96 98 99 91 94 100 95 91 93 98 98 97 98 97 86 65 80 59 42 32 23 23 16 14 26
69 68 88 99 98 98 99 93 86 70 63 73 70 80 89 74 100 100 98 99 97 100 100 96 93 82 94 86 83 88 89 94 93 94 81 54 67 53 35 27 26 22 17 20 31
71 66 52 98 97 98 99 93 71 64 57 59 72 70 77 94 96 100 99 100 100 100 99 98 95 90 81 70 92 98 98 74 97 97 98 68 51 42 34 27 29 22 18 14 22
92 69 73 98 97 98 99 80 74 68 65 62 52 71 81 98 93 99 98 56 72 86 100 99 96 84 73 78 99 99 98 99 98 96 94 70 61 56 45 46 46 42 30 16 30
98 71 96 98 98 98 99 87 79 69 70 66 73 76 85 91 100 100 77 55 55 54 74 99 97 92 97 97 72 99 100 97 96 97 86 77 50 39 64 66 68 48 26 31 25
99 94 65 97 97 98 100 97 83 77 79 82 85 84 92 92 99 100 90 70 64 63 64 86 97 94 93 72 80 91 74 92 88 88 85 76 60 46 54 48 54 74 67 60 26
100 99 97 81 97 98 96 91 82 86 90 90 85 90 89 97 95 91 87 68 78 78 67 71 98 98 93 95 100 96 88 95 94 79 70 81 53 37 33 56 58 74 62 61 49
80 92 98 98 98 87 85 100 94 87 93 93 94 100 93 95 98 89 76 81 80 75 83 84 90 93 93 88 97 97 95 97 97 96 78 79 69 39 43 37 40 60 80 82 66
72 97 91 98 98 98 91 77 80 93 91 85 96 86 91 100 97 93 96 81 80 82 94 95 95 92 93 99 98 98 98 97 97 80 91 69 72 52 63 42 66 97 94 84 73
88 94 96 86 99 100 90 88 84 82 81 88 92 94 100 100 98 92 80 74 71 82 92 98 91 96 95 97 99 100 99 99 95 87 79 74 76 70 78 87 83 100 80 73 64
98 96 90 96 84 91 92 91 87 93 94 98 99 99 97 96 98 98 99 89 84 96 100 100 100 98 92 98 99 98 99 99 98 93 86 97 28 59 49 94 98 97 68 63 58

GFSSW_700_rhum_027.txt.gz
RH
36 38 32 30 26 24 26 31 29 23 31 44 46 42 38 33 27 23 20 15 11 11 14 19 29 31 28 29 35 40 45 40 34 33 31 31 30 30 36 43 47 41 46 46 45
60 31 68 35 32 26 24 31 31 26 38 49 49 52 50 46 44 28 45 40 35 28 19 16 16 21 32 33 38 42 41 31 29 33 36 36 36 35 39 37 48 44 46 45 46
96 65 68 37 36 34 27 30 34 30 36 48 50 56 56 55 52 43 50 45 94 91 57 42 40 35 28 23 34 49 36 27 27 30 32 30 30 33 33 40 43 50 50 50 48
100 96 62 90 52 38 32 30 35 33 34 43 58 59 60 59 51 48 48 45 54 89 86 53 47 43 41 39 42 42 29 29 32 37 40 33 30 26 29 28 44 54 54 53 50
100 100 94 67 88 56 40 32 34 37 34 38 50 56 57 60 61 63 57 54 53 55 64 66 66 55 54 50 48 48 40 40 37 32 31 32 26 27 22 23 31 51 56 56 58
98 100 100 99 67 85 54 37 32 40 36 35 44 46 56 60 60 63 60 61 64 56 56 60 59 80 68 60 64 60 49 44 42 39 41 38 27 37 16 20 25 32 48 50 58
25 76 99 98 94 76 81 46 40 37 40 37 38 41 46 69 59 60 60 58 61 60 59 56 64 76 71 66 69 67 60 54 40 38 46 42 34 30 26 27 22 23 30 39 47
2 11 59 100 100 85 84 78 49 43 41 41 37 34 35 51 64 61 58 58 59 61 61 61 94 98 94 78 73 74 69 58 49 41 43 45 37 25 30 31 25 23 23 29 36
3 3 14 98 99 95 87 100 78 54 47 43 40 36 32 27 47 59 64 57 58 64 66 64 65 70 74 72 71 75 85 77 68 62 59 61 59 35 29 27 30 26 24 23 29
4 4 4 65 99 99 100 95 93 90 86 42 43 40 37 34 32 43 63 65 57 63 67 65 68 68 67 58 83 77 86 88 92 79 66 61 57 40 39 39 29 30 26 25 23
26 5 4 35 99 99 99 100 97 94 73 46 43 52 34 33 34 39 48 52 56 64 68 68 68 63 58 65 76 80 88 95 96 83 76 62 51 44 40 36 31 30 27 26 25
96 76 9 11 96 98 98 99 86 78 67 55 54 46 42 38 45 50 49 55 57 58 65 70 67 59 69 87 98 100 99 96 87 87 83 66 36 35 27 26 27 26 27 26 25
97 94 57 5 66 98 98 99 99 97 88 70 61 52 48 45 42 42 51 50 56 66 63 61 59 67 74 80 94 89 97 91 96 91 72 69 40 30 26 24 23 23 22 22 23
94 93 92 17 69 98 99 99 96 99 90 64 50 47 48 44 39 40 42 59 73 71 77 80 72 76 82 88 80 84 78 81 89 98 93 79 72 48 37 32 29 24 20 19 18
72 77 86 82 65 96 98 99 99 99 72 51 56 60 48 51 55 47 59 82 86 81 77 73 78 80 86 79 92 97 95 88 88 95 100 100 100 52 50 38 30 25 24 20 20
81 82 72 82 87 71 97 98 98 93 83 75 74 85 75 74 87 69 75 95 99 99 100 96 98 99 95 86 89 94 98 98 99 98 96 82 94 59 54 42 33 24 24 25 20
97 83 56 60 78 97 98 98 96 74 61 79 90 100 100 100 99 100 100 99 93 100 100 97 93 98 98 100 96 98 98 96 96 97 82 60 86 59 46 39 31 25 22 22 24
84 74 46 51 70 94 98 98 89 66 68 79 85 99 98 99 100 99 99 99 99 99 98 91 88 76 96 74 81 94 90 88 90 87 73 68 82 59 40 33 29 30 32 23 22
85 65 67 41 100 92 97 98 67 57 51 57 100 100 99 99 94 100 97 100 99 99 98 94 91 91 85 92 95 99 100 86 97 88 97 71 59 52 34 42 51 59 61 32 21
92 96 84 39 96 97 97 88 69 53 53 57 76 81 88 83 84 97 87 79 81 91 99 95 88 78 73 84 89 98 98 98 98 93 86 78 79 58 41 40 39 46 61 42 30
97 97 80 57 98 97 96 91 64 68 66 60 60 66 77 76 87 90 86 68 62 62 99 100 99 79 80 75 72 99 98 98 95 84 78 66 52 41 35 34 53 52 60 62 32
97 99 83 95 98 97 97 88 68 68 70 66 67 78 82 85 90 99 92 73 64 66 69 75 100 97 69 60 71 85 94 93 97 84 96 79 58 46 58 60 54 55 48 72 64
98 94 100 95 96 96 97 92 74 68 70 76 80 81 84 92 94 98 90 86 85 73 74 75 96 98 79 86 84 96 84 95 97 98 95 88 58 49 43 50 48 38 38 72 84
98 89 91 89 98 95 90 86 78 81 77 83 82 86 90 97 95 96 87 82 82 83 88 88 93 84 82 89 98 98 97 97 98 97 82 87 74 60 49 44 41 31 34 69 97
93 85 97 98 94 95 87 91 89 88 92 90 90 85 97 99 99 98 82 88 86 86 89 99 94 87 88 91 98 98 98 98 97 85 96 66 75 63 58 56 51 38 48 88 97
89 92 100 89 99 96 92 82 86 70 77 75 82 83 100 99 90 88 92 93 82 81 91 100 98 96 90 94 99 98 99 100 100 98 96 93 90 78 72 66 57 54 55 98 91
76 99 93 100 99 90 81 78 78 76 91 86 94 99 100 94 93 93 98 97 98 95 90 100 100 98 95 84 98 98 96 100 98 97 90 99 62 76 57 51 52 75 98 99 87

GFSSW_700_rhum_033.txt.gz
RH
27 63 98 68 81 84 57 42 30 26 29 30 26 26 27 26 27 19 14 16 16 14 12 13 22 24 24 24 29 45 65 49 43 33 33 34 41 45 44 42 45 44 42 48 49
2 10 57 99 81 82 73 61 38 28 27 32 28 32 43 43 42 32 28 27 23 15 12 12 18 28 26 26 33 78 64 47 37 36 39 41 49 45 46 32 41 50 41 36 40
1 6 66 63 94 84 89 71 48 33 30 32 30 39 52 57 56 41 38 47 45 35 15 14 46 38 38 29 67 85 70 50 46 53 53 56 52 56 57 51 42 43 50 48 42
1 1 12 11 55 100 92 89 70 42 33 33 33 43 57 66 82 48 54 58 63 78 83 29 25 38 57 68 50 81 75 67 60 71 50 40 61 64 59 49 48 50 51 61 45
1 1 1 2 24 91 99 89 99 75 42 36 36 46 65 68 68 56 54 55 61 84 90 79 79 92 85 75 77 88 72 69 78 83 55 39 42 52 70 44 34 51 58 54 44
2 1 1 1 2 75 97 88 96 94 60 38 38 45 66 73 66 66 63 60 59 82 98 97 97 100 98 94 82 86 87 80 80 63 43 35 23 60 40 16 20 25 36 33 40
4 2 2 2 2 4 98 100 95 99 92 47 41 44 60 71 65 67 69 66 61 58 83 100 100 99 93 84 89 70 70 74 50 34 66 62 46 28 17 21 19 17 19 20 30
36 9 3 3 2 3 35 99 98 99 96 76 45 42 51 54 63 68 68 69 70 66 72 78 88 100 98 100 91 74 89 79 64 66 76 75 62 48 48 57 46 25 21 22 18
63 33 19 9 5 3 4 78 99 99 100 88 53 45 51 44 52 68 71 68 68 70 75 94 97 96 95 99 99 94 69 66 62 72 78 75 70 58 63 50 52 51 40 42 31
70 69 61 58 47 6 5 52 100 98 99 100 76 51 46 44 42 56 71 68 68 67 75 93 100 100 98 98 73 61 66 65 61 62 75 75 71 67 66 66 68 58 56 52 39
85 76 69 72 90 83 9 85 96 98 99 97 54 44 47 38 42 43 68 73 72 82 83 72 91 92 83 86 78 68 74 66 61 69 73 66 64 60 56 46 41 44 35 34 43
90 85 80 80 92 96 86 100 98 98 98 98 62 52 44 40 46 48 64 73 96 96 100 92 80 87 83 83 82 81 78 71 67 67 68 66 43 52 24 12 14 16 18 18 20
85 68 86 76 79 82 92 99 98 98 98 96 74 58 55 45 60 52 56 81 97 100 100 98 85 70 88 89 90 84 82 79 81 80 74 68 44 22 34 26 17 12 13 14 15
68 91 94 73 67 72 71 97 97 98 98 99 90 65 54 58 56 58 63 82 99 99 99 97 87 76 80 90 86 78 74 79 82 83 65 74 54 43 32 33 37 31 17 18 22
75 90 97 97 80 84 68 82 98 98 96 97 89 82 52 59 80 68 79 86 100 98 87 88 69 98 98 90 90 90 94 91 87 83 90 71 75 45 40 43 39 38 27 35 41
84 96 98 95 93 90 73 84 97 97 97 100 98 79 62 94 73 75 91 87 99 100 100 91 99 99 98 95 98 97 95 97 95 94 87 63 54 39 34 31 31 36 41 40 41
74 94 84 86 91 89 79 98 97 97 98 100 99 92 80 100 100 74 98 98 87 98 99 100 99 100 86 99 99 100 93 70 82 91 64 39 48 50 27 37 37 41 41 46 40
81 96 96 89 90 73 93 98 97 97 98 99 100 99 99 100 99 99 100 96 100 97 95 98 88 95 93 95 92 100 95 67 58 47 39 41 44 37 36 40 45 44 43 38 29
89 93 83 90 81 73 75 95 98 93 96 100 99 99 100 98 93 100 100 100 99 100 94 92 94 83 96 95 96 98 98 67 84 70 66 47 40 38 37 38 38 40 48 56 79
98 97 89 62 81 97 95 86 97 100 70 99 98 97 100 100 100 100 95 97 98 100 98 96 95 87 99 99 98 98 92 93 97 81 60 38 36 36 34 33 37 44 52 81 95
91 95 87 56 74 100 80 84 97 99 97 97 97 96 97 99 98 99 98 84 94 95 100 99 93 96 89 68 83 96 100 95 91 92 63 55 41 36 38 42 39 66 76 88 58
85 96 92 54 76 96 94 98 97 97 87 95 99 92 93 94 92 87 87 86 60 79 100 99 99 96 86 69 78 82 96 98 97 66 91 89 72 53 51 48 59 54 73 82 80
76 97 89 91 95 96 97 98 95 94 87 92 94 92 90 93 93 94 94 76 67 58 94 96 98 88 85 85 86 88 85 88 98 98 96 89 64 47 60 60 65 74 67 64 66
92 97 94 94 78 85 97 96 93 89 78 71 78 76 81 98 93 99 94 83 73 71 96 99 99 82 72 68 79 89 92 96 98 98 84 82 76 69 63 70 76 67 68 61 68
78 90 91 84 78 73 93 96 96 89 78 77 80 89 91 96 96 92 100 82 79 80 88 96 92 100 97 93 80 81 91 91 99 97 98 78 95 79 91 84 83 87 82 78 71
68 98 78 74 73 95 90 91 99 74 80 78 80 82 77 98 95 100 100 89 99 94 94 96 99 100 89 71 94 88 94 99 99 98 99 100 94 83 76 91 89 88 86 92 97
71 83 97 94 92 99 82 93 98 81 78 73 80 84 84 84 92 93 94 97 98 98 98 97 98 97 85 76 89 93 99 99 99 99 99 99 98 100 96 94 98 87 79 85 77

GFSSW_700_rhum_036.txt.gz
RH
1 1 3 35 49 78 80 92 72 42 28 27 29 28 25 22 22 20 17 15 15 14 20 18 18 24 24 24 33 45 72 68 57 47 40 32 30 35 38 41 40 40 37 42 51
2 1 1 2 20 74 79 84 90 65 38 28 30 31 27 30 32 24 28 20 17 17 20 20 15 27 31 29 40 45 52 47 44 45 42 35 32 38 42 42 40 44 44 40 46
3 2 2 1 2 67 85 80 94 96 53 33 29 33 30 39 46 31 39 34 32 33 26 19 22 36 36 43 53 42 42 39 30 44 41 42 42 46 47 44 44 38 46 48 38
4 4 3 2 1 3 50 63 88 97 85 43 33 34 35 47 61 50 48 55 64 83 50 22 26 50 64 80 77 76 75 46 36 52 56 49 46 53 52 50 46 45 41 48 50
6 5 3 2 2 1 2 30 98 94 100 70 44 35 38 52 65 48 59 57 78 82 83 77 29 30 64 73 85 87 76 72 58 57 72 67 52 50 51 60 32 45 45 51 61
8 6 5 4 2 2 1 5 82 96 100 99 66 37 42 58 72 48 64 58 60 67 89 91 95 81 88 83 79 80 79 81 65 64 56 63 44 41 40 22 24 23 43 41 52
42 27 17 8 4 2 2 2 56 99 96 100 90 43 40 57 66 56 71 66 60 71 92 100 98 94 87 89 96 86 83 71 55 34 40 44 40 34 22 20 20 19 17 24 31
93 75 53 28 12 6 4 2 26 98 99 100 98 57 38 51 60 67 70 69 68 65 86 99 97 98 95 98 88 75 82 73 42 43 39 61 54 41 54 45 34 23 17 14 15
92 89 76 63 60 43 20 4 6 79 100 99 98 80 45 35 52 62 69 70 71 77 74 86 99 98 94 94 89 92 86 68 67 63 62 70 69 51 66 55 57 59 39 25 20
82 88 87 72 70 61 82 53 5 40 99 99 99 97 54 34 43 53 70 70 66 72 83 91 96 94 93 94 89 74 81 69 63 64 67 67 72 63 54 63 63 58 37 32 35
84 95 88 77 69 82 87 70 31 78 97 96 97 89 53 31 37 46 61 71 70 81 91 95 100 99 90 82 67 82 76 66 60 58 63 65 66 62 41 36 21 23 27 23 24
93 96 79 70 83 74 88 85 92 94 98 99 94 100 66 40 37 47 65 78 95 93 100 99 97 96 92 85 86 79 75 71 68 63 66 56 34 26 18 13 15 15 13 10 12
89 83 75 91 93 79 84 79 97 98 98 98 96 95 55 48 40 42 57 83 96 97 99 99 83 70 88 86 79 77 81 78 73 64 52 56 36 19 32 29 20 15 13 14 12
74 73 89 96 92 78 72 64 96 98 98 98 98 97 62 65 59 56 64 95 100 98 98 97 92 82 69 89 85 86 75 75 75 80 72 69 75 20 17 20 24 21 18 19 18
50 78 86 94 96 90 97 68 81 97 98 99 99 98 70 64 65 65 76 99 98 93 94 88 89 94 84 71 85 83 85 81 83 86 86 65 74 23 19 18 21 30 34 36 31
50 47 62 83 93 81 88 78 88 97 97 98 98 99 85 100 94 65 94 93 95 93 97 93 93 75 77 84 90 90 84 80 85 84 92 47 58 22 24 32 32 32 38 39 40
39 72 88 94 98 89 75 89 96 97 99 99 99 99 91 99 99 77 86 92 89 97 98 94 94 98 78 94 89 94 92 86 97 91 88 38 54 37 27 28 27 30 33 41 42
43 84 90 93 87 67 76 90 97 91 98 98 100 99 100 99 95 100 100 99 100 82 89 89 87 94 86 90 93 87 89 82 82 85 64 49 46 42 34 36 38 37 36 35 42
74 84 92 93 70 71 71 80 97 98 95 96 99 100 99 96 93 94 100 98 99 87 93 88 91 89 99 98 93 96 96 72 87 64 78 55 38 36 34 34 34 35 36 38 40
91 86 92 98 62 83 88 75 96 98 98 90 91 95 98 93 90 91 92 89 97 92 88 91 88 89 97 98 96 94 86 93 94 96 82 50 44 40 37 36 38 38 42 42 43
88 81 81 83 71 74 85 71 96 98 95 98 80 95 89 94 87 86 88 93 95 98 98 97 94 90 96 89 82 92 100 95 94 94 86 78 50 39 39 43 45 46 50 54 57
87 70 84 84 95 96 72 52 97 98 96 98 91 87 91 86 94 86 82 88 92 97 99 96 89 92 75 70 72 92 84 87 90 74 80 78 76 54 47 53 55 55 58 64 62
82 86 91 98 97 96 54 95 97 98 99 94 98 88 86 96 88 93 86 87 90 90 90 91 94 95 93 86 84 84 78 86 91 89 94 94 68 52 54 59 67 73 69 66 68
74 92 93 93 96 96 98 98 97 99 100 98 89 91 90 88 89 91 94 88 73 96 96 90 94 71 86 90 88 91 88 87 94 98 89 88 80 73 76 92 93 85 89 75 72
76 63 68 91 95 96 97 95 95 95 91 97 97 94 92 96 96 99 98 85 78 68 80 90 93 88 76 53 52 60 78 90 99 95 99 87 98 95 98 95 79 81 86 84 73
76 80 64 58 83 90 97 98 88 85 98 97 92 82 97 97 99 100 98 100 93 93 87 96 94 93 76 60 85 92 88 92 100 100 100 99 97 100 99 99 98 94 92 93 96
66 67 53 57 67 95 96 91 98 81 80 93 87 94 98 81 87 94 90 92 98 94 92 97 86 84 90 74 85 90 82 91 92 98 99 99 100 99 100 99 99 93 96 89 91

GFSSW_700_rhum_039.txt.gz
RH
4 4 3 2 1 2 15 62 74 88 78 43 29 25 27 28 25 22 20 19 17 16 14 15 17 20 27 22 22 28 64 49 32 29 25 24 35 34 38 37 35 36 40 39 42
6 6 5 4 2 2 2 8 78 79 93 69 42 28 29 29 27 24 25 24 19 16 16 15 18 22 26 25 29 36 54 50 36 28 34 39 33 36 38 39 37 38 41 40 40
8 8 6 5 4 2 1 11 56 83 86 90 57 33 32 30 28 25 33 30 28 20 18 22 27 32 34 31 34 44 51 32 28 34 54 51 44 43 43 41 38 36 41 44 44
10 10 10 7 5 3 2 3 49 70 84 99 78 45 32 33 40 34 43 42 41 37 32 30 26 30 38 39 34 41 51 51 38 30 57 53 44 41 45 46 43 37 42 46 47
20 20 18 15 8 4 3 2 36 75 62 91 100 57 35 33 33 41 62 61 60 66 81 55 28 37 65 39 46 69 49 62 55 42 58 57 47 42 46 47 41 41 38 45 53
95 98 96 43 19 9 4 3 2 11 45 98 100 93 43 32 41 40 64 61 79 88 98 91 84 32 52 60 82 80 83 76 73 58 58 57 53 48 36 49 47 37 43 45 59
98 97 90 75 55 22 6 3 3 2 47 99 100 99 58 37 48 40 60 63 60 76 94 98 97 69 75 72 87 85 79 70 58 42 40 41 41 42 27 27 39 47 36 41 49
85 91 94 77 79 77 62 18 6 3 37 100 99 99 92 46 42 46 62 70 65 61 80 99 95 91 79 87 80 81 82 75 30 40 37 40 34 24 23 26 25 18 19 18 26
89 91 85 82 85 78 64 59 21 4 32 98 99 91 97 61 36 53 69 71 70 65 83 99 98 99 95 88 82 82 74 64 61 53 60 61 53 44 41 42 38 38 33 20 13
86 84 88 88 83 75 83 65 76 7 27 97 99 100 88 68 36 48 71 74 73 82 76 95 100 100 100 100 92 78 83 74 72 66 70 69 69 62 52 56 35 33 30 26 24
74 80 88 81 69 73 73 83 82 22 36 98 98 100 82 64 42 41 62 70 74 78 94 96 100 98 86 76 72 76 85 92 68 68 70 66 66 64 37 39 38 30 29 22 20
75 79 74 67 88 92 82 80 82 87 85 99 98 99 91 54 39 59 63 76 76 77 79 99 100 85 87 84 78 82 97 87 69 64 66 60 50 47 31 14 12 9 11 11 11
65 62 65 87 86 88 84 73 73 97 99 92 98 99 95 63 47 49 59 70 76 94 98 93 95 98 97 86 92 88 86 77 71 54 44 43 24 12 14 13 14 13 13 15 14
53 50 60 92 80 94 81 69 65 94 97 98 98 99 99 70 56 63 84 77 99 98 93 92 88 86 95 87 87 84 78 78 77 72 65 61 78 12 16 16 15 16 17 17 18
47 47 50 81 97 96 96 66 98 95 97 99 98 99 97 73 53 95 100 98 92 92 95 89 90 89 90 74 89 86 83 79 77 75 79 59 61 22 15 12 15 21 24 27 25
37 37 90 96 97 91 85 76 96 96 96 98 99 94 93 93 77 81 99 93 90 88 88 87 87 91 89 83 84 88 86 79 72 81 93 38 56 30 22 23 26 25 17 20 21
35 57 99 97 95 83 74 83 93 97 98 99 99 90 84 98 96 92 100 90 88 95 99 92 88 94 85 80 89 94 85 88 86 89 88 56 67 30 25 26 28 26 26 29 32
87 96 93 93 82 72 71 68 94 94 98 98 99 95 97 94 99 100 100 93 89 86 92 88 73 83 69 90 81 90 81 75 91 98 81 60 59 37 31 26 32 34 34 35 36
89 92 94 86 90 85 89 80 96 98 98 98 99 97 99 93 93 99 98 95 85 78 72 84 86 93 98 90 88 91 91 86 87 76 86 50 37 25 30 35 36 37 38 37 39
74 88 86 81 77 85 98 95 94 98 98 96 95 92 98 96 88 96 97 95 91 78 86 89 83 96 89 97 95 86 80 93 95 96 93 66 54 40 40 40 39 40 44 42 43
82 73 99 79 92 97 90 96 97 98 97 97 95 97 92 96 84 87 82 90 78 72 93 90 84 96 93 92 80 96 95 92 89 90 93 96 63 41 41 40 45 43 44 56 69
62 65 61 57 63 78 74 91 96 98 94 94 82 74 84 86 86 82 77 93 95 90 94 91 85 86 82 76 82 85 76 88 83 65 87 89 73 53 48 44 43 56 73 77 71
64 93 98 85 96 100 64 97 98 94 95 94 87 82 80 78 77 86 94 92 95 98 85 90 90 88 92 81 89 93 94 93 90 80 85 89 68 55 56 65 83 98 100 99 95
66 88 97 92 84 80 91 98 99 100 95 83 87 82 83 89 89 98 89 89 98 96 94 88 90 71 78 92 88 84 82 84 92 98 86 83 76 72 91 99 98 99 92 77 85
48 53 69 90 96 91 89 98 100 97 92 96 96 90 87 89 91 93 97 89 87 95 97 93 86 86 75 73 78 75 66 70 82 76 98 70 95 80 98 100 99 99 99 96 97
70 47 58 75 100 93 83 92 98 98 97 95 88 94 90 96 90 94 91 79 72 78 95 89 86 88 72 72 71 79 74 86 89 92 98 98 97 91 100 100 98 100 100 98 98
60 41 48 66 98 98 94 90 90 92 100 91 95 82 90 86 93 91 93 88 81 86 83 92 90 87 78 71 83 84 80 85 86 95 100 93 82 95 98 100 99 98 100 99 99

GFSSW_700_rhum_042.txt.gz
RH
10 8 7 6 5 3 2 4 31 78 69 94 84 51 30 24 28 27 24 22 19 17 16 17 16 18 18 19 23 30 45 36 25 24 14 14 31 39 37 37 38 35 32 31 34
15 13 10 8 7 6 3 2 4 42 73 96 97 73 39 27 25 25 25 24 22 18 16 17 17 17 20 21 27 30 36 26 21 21 22 18 27 33 36 41 39 37 36 34 35
15 14 13 12 11 8 5 3 2 10 55 81 99 93 55 31 27 23 26 27 25 23 18 18 20 23 22 25 35 34 33 20 15 18 20 25 34 32 44 37 41 40 36 38 40
41 48 47 66 47 20 10 5 3 3 20 90 90 100 72 38 32 24 27 30 31 33 23 18 24 26 25 32 31 32 37 30 18 20 28 47 45 42 49 46 39 40 39 45 48
100 98 96 94 93 59 33 11 5 2 36 100 91 99 89 45 30 36 41 38 38 70 29 21 24 25 24 29 33 42 42 38 30 31 41 50 63 43 42 49 45 39 39 38 44
91 89 96 97 92 94 86 19 10 4 26 97 98 100 100 55 36 35 59 67 55 76 66 47 34 31 32 28 43 53 39 44 46 35 30 40 43 52 35 43 50 47 43 40 37
83 83 83 86 77 78 74 68 30 7 3 86 74 100 100 92 39 37 61 69 82 85 87 86 75 66 42 49 69 73 82 77 49 32 41 37 25 34 33 33 43 50 49 45 41
85 86 81 84 83 83 79 69 61 37 5 24 67 98 98 99 53 35 56 66 65 88 96 100 99 73 56 80 83 86 85 81 52 42 38 42 32 23 22 27 29 30 45 45 42
72 75 72 77 86 83 79 66 52 48 12 4 49 99 99 92 64 42 62 67 69 67 96 100 99 92 86 74 78 85 88 76 49 45 45 47 46 26 31 30 26 20 17 18 23
64 66 68 79 72 76 72 65 70 65 13 6 95 99 98 86 76 56 75 78 74 76 81 96 98 100 94 89 89 77 67 68 68 58 71 70 69 50 45 42 38 31 24 21 18
56 63 79 64 69 82 79 79 72 73 14 43 98 99 98 89 85 51 81 77 76 93 85 93 94 99 99 97 84 92 80 81 83 82 72 71 76 56 32 42 38 32 27 23 21
54 59 58 59 84 86 84 97 80 92 18 100 99 99 80 84 65 57 80 79 84 98 97 92 100 100 99 95 89 90 86 80 74 80 78 67 56 45 36 28 25 19 21 20 18
43 48 49 69 88 89 93 63 65 90 58 96 97 98 83 81 52 45 83 79 71 80 94 99 92 93 97 92 83 86 85 85 85 72 66 64 58 44 23 13 12 11 12 14 12
45 46 52 62 85 94 89 82 72 92 87 86 98 100 100 83 67 60 91 77 93 88 94 95 94 94 92 85 84 81 83 85 84 78 64 47 67 16 14 13 12 15 14 13 12
41 39 42 80 100 99 98 92 69 96 98 60 97 99 99 84 63 95 98 98 89 94 95 91 96 90 87 87 90 90 84 78 78 79 79 56 66 23 15 15 12 13 14 13 11
36 38 85 97 94 99 96 90 89 96 95 100 90 99 98 90 77 98 99 97 100 99 94 91 93 90 82 84 82 92 87 78 78 76 81 48 56 28 21 22 17 16 21 22 20
97 93 97 94 97 100 93 100 83 96 98 100 98 99 93 92 86 93 95 95 95 97 98 97 89 89 85 90 86 90 84 78 86 96 79 58 75 28 25 22 23 28 30 32 31
80 93 93 96 88 95 88 86 95 96 97 99 97 97 94 91 98 98 93 98 92 86 92 95 96 85 80 78 67 87 78 65 74 97 87 63 66 30 23 22 28 35 36 35 36
86 90 86 85 82 90 86 84 96 96 98 97 98 96 98 92 97 96 97 96 94 82 76 91 84 93 88 77 75 87 98 84 87 87 91 52 38 27 21 31 37 38 38 38 38
80 72 72 70 73 90 95 95 97 98 98 89 96 96 100 92 93 90 96 98 86 78 69 73 88 95 90 92 95 80 81 89 84 91 88 65 57 26 37 42 42 42 42 44 44
62 36 65 73 82 95 96 93 98 99 98 96 89 99 94 89 83 93 85 87 81 80 84 84 76 99 91 93 85 94 94 90 82 82 92 94 57 42 44 48 46 48 54 59 57
68 47 55 68 81 90 96 98 97 97 89 87 89 75 84 83 89 87 84 86 83 74 84 84 84 87 98 89 88 93 83 80 78 66 98 98 69 47 48 56 72 88 89 85 86
42 37 40 57 73 87 98 94 96 91 85 86 79 76 77 72 83 85 82 85 77 86 85 85 83 84 86 84 83 92 88 94 88 84 89 87 64 51 56 74 84 91 97 96 95
59 64 67 72 82 96 98 99 96 92 90 74 72 75 79 73 83 87 84 94 93 95 88 84 82 69 77 80 77 78 70 78 92 92 88 79 61 58 76 81 94 93 96 98 98
46 67 80 91 80 100 99 100 99 99 90 80 81 78 83 94 92 97 92 90 96 93 93 93 88 86 78 85 92 82 82 86 90 76 95 65 78 70 96 100 98 100 92 92 96
44 59 69 92 78 96 92 89 92 99 87 91 94 94 85 84 82 87 78 85 92 97 98 94 89 83 69 64 66 66 62 62 70 75 91 88 90 93 99 100 99 99 94 99 99
48 46 68 91 93 86 87 99 97 95 98 93 92 88 88 86 86 83 84 80 74 75 81 95 86 84 75 76 81 81 75 85 86 87 91 95 88 97 99 99 98 98 92 96 100

GFSSW_700_rhum_045.txt.gz
RH
17 17 17 16 15 10 7 5 2 4 63 83 100 96 88 50 29 24 23 26 24 20 16 16 16 18 21 24 26 32 39 37 30 27 20 18 20 23 28 40 35 36 38 37 34
14 14 16 15 19 24 13 8 4 2 18 78 84 99 95 74 42 24 24 27 26 21 19 16 16 19 21 23 29 30 35 30 24 21 22 21 22 20 35 39 38 38 38 38 35
10 27 91 96 99 100 80 24 9 4 2 49 85 100 96 93 52 26 26 28 27 24 20 18 20 22 24 24 30 30 28 20 18 18 19 21 21 19 22 35 40 43 40 38 36
24 92 91 98 95 97 99 90 47 11 3 11 85 86 100 91 63 29 25 27 30 27 23 20 20 25 25 26 28 28 25 18 15 17 19 21 19 19 21 28 37 41 42 40 40
89 88 79 80 94 92 90 91 95 40 10 4 56 100 99 99 71 37 36 29 34 32 31 22 21 21 25 25 28 34 38 25 18 17 21 22 23 19 15 19 42 39 42 42 41
91 82 78 77 74 82 89 81 72 78 26 8 17 97 97 98 89 42 57 43 40 52 59 26 22 23 29 29 31 42 37 34 30 23 25 23 22 22 13 15 36 38 44 42 42
67 73 67 72 75 75 78 78 77 78 60 16 36 100 99 99 93 45 43 69 52 62 74 29 28 45 52 41 45 46 49 37 31 28 32 27 19 19 21 20 19 37 45 47 44
82 73 56 66 67 82 81 78 75 67 55 21 70 99 100 97 97 49 61 71 81 92 88 65 48 53 55 64 58 60 57 72 42 27 27 34 20 18 22 16 18 28 38 48 49
77 71 54 63 79 74 74 65 64 68 59 28 68 99 100 74 92 54 59 74 88 98 100 94 92 89 74 92 91 94 84 69 41 45 50 60 55 24 24 22 20 18 23 36 43
67 61 69 77 70 76 82 85 79 71 65 31 49 98 70 89 99 63 62 66 75 83 100 100 99 97 96 98 96 91 74 58 59 51 66 67 73 26 26 27 33 25 16 14 14
47 45 56 54 63 82 82 88 96 80 69 37 42 99 82 99 100 68 75 71 77 84 100 100 98 98 87 80 72 76 75 75 72 72 72 56 68 44 29 45 33 27 24 24 22
54 39 46 49 80 78 88 83 90 80 73 36 97 94 97 98 97 79 89 79 90 95 95 99 98 98 100 99 95 97 97 88 74 73 82 71 61 43 28 32 34 34 31 27 26
41 43 45 48 58 74 90 92 72 79 71 48 98 96 99 98 99 79 95 90 88 98 96 97 98 97 98 99 100 97 93 85 84 74 74 72 59 37 28 31 29 16 12 12 12
32 41 43 44 62 75 94 94 67 81 42 58 98 98 100 100 96 72 99 92 100 100 98 98 93 100 100 96 94 84 75 79 80 78 79 67 72 29 19 13 11 12 15 18 15
92 94 64 56 83 97 94 89 65 81 52 58 99 99 100 93 75 99 94 88 90 90 98 97 94 97 100 99 92 85 80 80 82 76 77 58 61 26 15 13 16 14 15 16 14
81 96 94 94 96 95 96 72 83 98 97 83 98 98 98 91 82 88 100 98 93 93 97 87 92 95 90 93 93 78 85 88 84 76 79 59 61 18 20 22 16 13 20 24 25
73 79 85 96 96 95 81 79 90 96 94 98 98 98 98 99 100 99 97 96 98 98 96 97 99 96 94 88 92 90 92 71 75 90 78 62 65 20 24 29 24 18 23 29 32
71 69 69 71 77 78 88 80 95 99 96 98 99 97 97 100 98 100 97 96 97 99 92 94 98 93 95 89 80 88 84 58 64 89 84 70 68 30 24 27 26 30 35 38 36
86 63 57 51 79 77 61 91 94 89 98 99 98 93 99 97 98 97 90 96 89 80 76 85 82 87 81 76 85 85 93 75 76 93 93 54 36 21 25 26 37 40 41 42 43
48 41 50 67 79 84 85 95 95 97 98 97 95 95 98 93 97 98 92 91 86 81 72 79 85 94 90 89 88 79 72 79 71 66 82 58 46 22 36 43 46 49 51 48 46
47 36 39 52 68 83 98 97 99 98 96 88 85 95 88 88 94 90 84 84 90 85 78 79 76 96 97 96 95 90 92 79 71 71 86 89 42 35 42 48 57 76 78 83 88
44 51 56 68 83 92 100 98 93 95 85 77 88 80 81 80 88 80 83 81 87 84 83 84 81 99 96 93 93 98 78 76 63 74 100 97 57 46 49 58 74 78 78 82 87
47 49 75 79 81 92 99 100 96 85 76 73 80 74 72 68 80 86 78 88 80 86 84 82 79 87 97 96 92 91 98 93 80 82 90 83 54 51 54 76 76 78 80 84 91
57 65 84 84 91 100 98 95 97 88 73 69 67 74 72 70 75 82 79 84 73 83 86 83 78 71 73 76 74 86 72 79 95 96 84 70 53 59 82 93 86 78 96 81 83
48 65 77 96 100 97 99 100 98 92 88 81 76 73 75 77 80 85 81 88 86 88 90 91 87 84 81 84 85 81 68 69 75 74 84 52 63 79 94 96 98 99 96 94 82
42 60 69 92 96 98 98 87 82 84 82 77 83 84 77 74 81 82 78 89 89 94 93 93 89 81 69 64 69 72 77 81 75 75 78 70 81 96 98 100 99 99 100 100 92
40 56 66 91 94 86 86 84 91 91 97 98 94 89 93 84 87 92 90 87 83 84 92 98 92 83 73 82 78 70 54 44 49 66 88 95 89 99 96 100 94 99 100 99 98

GFSSW_700_rhum_048.txt.gz
RH
15 12 11 10 16 17 21 19 16 8 4 6 87 88 98 92 89 38 20 21 28 24 20 18 21 24 25 27 35 40 39 37 33 31 30 27 23 24 23 29 35 38 37 38 38
9 6 9 31 75 98 96 98 71 24 10 3 52 91 99 95 95 51 27 26 29 27 22 18 18 23 26 27 35 37 38 36 34 31 28 28 28 22 21 23 28 38 35 36 38
9 21 39 71 80 83 86 88 97 96 32 9 17 100 92 96 98 63 49 27 29 28 25 20 21 25 25 28 33 34 32 28 26 23 24 27 26 23 20 19 24 38 37 36 38
22 30 73 83 76 67 72 91 93 96 78 40 13 81 96 86 99 71 51 29 29 28 27 22 21 29 33 32 30 31 30 27 21 21 25 26 24 23 18 14 23 37 42 43 41
27 48 48 73 68 72 74 75 94 92 81 83 17 54 99 99 91 71 44 31 30 29 27 43 22 27 29 30 33 32 32 28 21 22 24 23 20 18 13 13 17 31 40 44 44
81 77 89 72 59 70 74 76 82 83 86 80 44 37 100 96 83 90 50 32 27 29 30 61 31 32 37 30 28 37 32 24 20 22 20 20 17 17 10 11 13 18 38 45 49
100 78 86 74 54 64 75 80 86 88 87 75 59 77 99 96 96 99 49 49 34 34 32 55 47 41 40 44 38 50 40 32 24 24 26 23 18 14 12 14 12 12 19 43 49
87 92 91 90 62 76 73 70 73 78 72 61 48 100 99 99 96 99 45 85 56 53 65 81 45 48 58 55 54 56 57 49 30 25 27 29 20 23 19 16 13 14 16 23 45
99 100 90 72 75 71 70 78 78 72 72 66 64 53 96 88 100 89 47 86 75 74 95 82 53 62 71 72 76 80 71 52 39 32 33 27 27 22 24 17 15 13 13 18 19
99 97 89 51 66 58 77 84 85 81 78 62 71 93 96 71 97 69 94 97 87 95 99 96 87 79 81 92 88 88 87 52 40 38 35 40 58 22 19 21 20 15 11 10 10
34 70 48 46 51 73 76 69 80 75 92 76 47 94 98 100 94 91 100 93 88 99 99 97 94 94 83 84 77 69 68 62 54 57 58 48 50 28 18 20 18 16 14 15 14
92 47 42 43 47 78 64 79 92 73 75 68 39 95 96 88 99 86 86 92 81 98 98 99 100 99 91 91 90 89 86 75 77 76 75 62 56 38 19 21 24 28 26 23 24
97 95 54 47 50 57 74 91 93 72 80 65 44 98 99 88 98 66 95 100 83 96 100 97 98 100 100 98 97 99 89 86 78 80 79 73 59 35 24 28 30 27 27 22 21
84 80 93 62 64 70 93 83 83 74 59 98 44 100 100 99 98 84 100 96 98 94 97 99 86 99 97 99 100 100 94 91 76 78 78 70 74 33 24 17 16 14 14 28 24
71 77 86 88 78 95 89 78 60 46 50 77 93 90 98 99 94 100 100 100 98 98 91 98 90 93 99 99 99 98 87 82 79 81 80 61 59 22 18 16 20 18 20 22 23
58 60 78 90 90 90 88 64 71 90 96 68 97 98 98 95 97 97 100 100 96 99 98 93 100 100 98 100 100 94 84 83 84 84 80 61 54 15 27 29 30 27 23 22 24
56 57 70 79 78 77 64 80 88 93 59 98 92 98 98 96 92 97 99 98 96 97 98 100 99 94 95 98 99 98 89 82 68 84 74 61 61 20 35 34 31 27 21 28 32
50 70 85 82 64 73 89 92 92 100 97 99 98 99 98 94 95 99 99 87 99 90 91 90 98 95 98 91 83 95 87 67 59 79 70 75 71 34 32 35 29 26 35 38 38
36 64 67 48 55 73 76 84 97 95 98 98 98 99 100 98 97 99 95 88 96 91 77 87 85 96 84 94 91 88 86 76 68 85 90 54 36 29 31 33 38 44 45 45 44
39 55 65 70 93 95 84 96 99 99 97 98 94 94 98 98 98 97 87 85 88 89 87 80 84 91 88 94 91 80 78 79 67 71 68 47 40 23 35 42 47 54 57 60 65
50 56 66 84 95 98 99 97 96 85 88 82 74 83 88 98 87 91 79 86 86 87 72 72 74 99 97 98 91 84 84 72 66 68 73 68 32 38 34 49 60 68 69 71 75
52 67 77 85 76 82 100 91 95 90 81 77 77 70 74 82 85 79 80 80 90 87 74 74 77 95 92 92 93 92 82 74 60 82 90 92 45 43 45 56 75 79 76 81 70
56 83 81 77 86 94 89 97 92 82 70 62 69 66 65 71 80 74 71 79 81 87 80 76 79 95 99 96 97 98 99 89 75 75 80 84 46 49 54 72 82 84 78 86 96
47 68 86 94 96 99 96 94 82 77 70 64 67 71 66 70 66 76 79 75 86 90 88 80 75 71 73 74 77 87 75 88 89 89 76 58 39 55 78 83 80 85 96 100 95
42 58 68 98 96 94 88 93 83 78 74 70 74 72 72 73 71 75 76 75 76 83 92 88 82 76 76 78 77 81 73 78 84 76 71 49 53 73 89 97 99 100 97 99 100
42 48 82 94 97 97 99 95 83 80 79 75 72 82 78 73 74 68 66 74 83 91 88 93 86 83 75 71 71 73 76 86 74 75 72 56 71 89 95 100 99 98 97 98 98
45 48 70 84 92 92 96 98 89 82 88 88 88 82 83 87 83 88 81 85 84 86 92 93 93 85 73 83 76 68 57 57 56 48 59 70 80 90 95 87 94 98 97 95 98

GFSSW_700_rhum_051.txt.gz
RH
14 10 6 6 10 12 27 54 80 62 20 19 8 19 100 98 96 86 40 26 28 30 23 22 24 30 32 42 45 36 39 37 27 28 26 26 26 27 26 24 24 33 39 38 36
7 6 9 17 41 87 60 72 90 94 96 64 34 5 81 88 98 77 74 60 32 31 26 22 21 28 31 37 47 47 40 32 28 28 26 28 30 30 25 22 23 30 39 38 36
10 14 24 50 62 94 88 78 63 72 82 94 87 28 24 94 96 81 96 78 36 31 30 25 24 29 32 35 35 41 42 40 37 36 34 34 34 31 27 23 23 27 32 38 36
17 36 99 97 80 81 71 73 63 57 79 93 89 78 20 99 98 90 82 84 42 32 32 32 27 31 37 34 33 39 35 36 34 33 31 31 33 31 26 22 22 23 29 36 36
46 77 98 90 96 85 64 64 70 72 80 83 84 76 41 100 98 97 73 73 43 30 31 38 24 25 39 37 36 41 39 33 27 29 25 25 31 29 20 20 18 18 22 35 39
100 100 97 93 93 77 64 61 68 73 78 79 89 84 51 95 90 97 73 67 41 28 30 59 27 27 41 49 40 47 44 33 27 26 27 26 28 27 17 16 14 14 18 28 38
93 97 94 88 92 89 72 73 67 69 82 86 91 87 56 75 85 73 64 49 59 31 29 67 62 33 31 46 44 50 45 39 25 25 28 26 22 18 15 13 11 11 12 17 34
90 86 90 96 88 80 82 72 73 78 71 73 74 75 48 82 96 97 86 94 51 40 37 54 90 71 60 57 49 56 64 38 22 24 27 31 27 28 19 16 12 11 11 12 15
86 88 50 98 70 65 69 72 74 76 79 75 67 85 75 80 94 99 80 98 49 69 58 67 79 84 80 64 73 76 67 48 40 34 35 28 27 19 19 18 15 13 12 12 12
88 94 75 42 43 56 56 70 72 78 84 85 76 92 85 95 98 100 59 100 68 67 87 95 98 80 77 71 81 83 83 48 33 30 29 32 39 29 24 19 18 17 14 11 12
78 82 86 72 42 47 58 62 69 82 70 92 75 83 78 85 95 99 76 91 92 95 92 98 96 74 64 78 76 54 42 40 34 42 51 48 52 23 22 18 16 16 16 15 14
75 85 81 83 55 50 65 58 76 94 78 85 59 99 97 86 86 97 82 99 97 99 99 100 95 83 75 84 72 72 70 68 63 63 60 53 48 22 23 21 21 19 17 18 18
64 77 78 85 71 52 61 72 91 95 79 61 58 97 98 98 88 93 99 99 98 99 98 99 97 85 86 87 94 98 82 74 73 76 74 68 48 27 28 34 31 22 22 24 24
46 63 76 89 88 70 68 73 70 68 76 64 66 98 98 99 99 87 94 99 98 98 99 99 96 99 100 95 93 93 87 90 85 77 72 65 65 29 32 29 25 21 20 22 24
41 56 88 81 82 93 78 68 43 52 67 83 77 98 97 99 96 97 74 98 97 98 97 98 99 95 99 99 100 98 92 95 84 79 77 66 51 30 27 25 28 32 28 25 27
40 40 56 58 62 69 59 48 75 79 99 80 90 97 99 98 93 81 90 89 99 90 92 88 99 100 99 98 99 98 90 86 84 80 81 65 55 27 38 38 37 36 34 31 30
57 45 52 63 78 87 88 92 91 92 87 90 91 96 98 97 91 92 99 100 95 98 98 100 100 96 93 99 99 99 93 82 63 79 77 62 63 30 39 41 40 36 26 24 31
58 65 65 60 93 83 76 74 86 100 98 94 97 98 100 98 97 100 98 95 96 88 91 95 98 98 96 94 85 96 92 75 56 65 58 66 62 36 38 40 35 31 39 40 41
56 62 75 93 69 57 59 64 92 92 88 98 98 100 99 100 96 98 96 84 89 88 74 88 99 99 98 90 89 94 93 78 61 78 76 48 41 38 36 40 40 47 48 46 47
52 65 79 84 74 64 67 99 100 100 82 96 93 88 94 92 93 98 95 86 85 87 72 78 89 99 94 100 93 84 81 78 67 73 58 41 35 26 37 44 53 52 47 50 52
59 58 77 79 67 57 95 96 88 96 85 75 74 89 98 87 91 85 81 85 82 81 84 72 71 99 96 95 88 86 82 69 59 60 57 45 27 31 44 50 51 49 53 57 58
54 59 63 69 82 88 100 91 85 78 68 70 70 70 80 79 86 80 76 72 78 78 79 72 75 92 94 92 91 85 79 67 55 72 72 82 34 42 39 53 58 68 68 69 63
45 63 67 64 75 94 95 95 87 77 69 68 68 69 72 74 76 76 75 71 80 77 76 70 77 97 97 94 94 96 85 82 73 54 55 70 40 51 52 67 87 85 76 77 88
40 55 67 77 82 91 97 93 87 79 70 65 66 65 65 75 68 80 72 79 76 88 84 74 69 68 66 70 75 88 78 82 85 74 65 44 40 40 71 81 81 83 87 98 99
42 42 74 76 94 90 90 93 85 76 71 69 71 68 66 68 67 82 73 78 77 97 92 82 70 71 71 74 73 76 76 79 86 83 63 39 41 64 85 88 97 98 98 98 98
40 44 63 80 90 83 94 91 89 83 76 71 70 73 74 74 72 65 72 74 73 78 94 91 77 74 76 73 72 72 77 83 73 72 57 50 61 84 90 92 90 94 96 96 97
13 49 52 88 88 89 89 91 92 88 85 79 81 81 80 76 79 80 74 76 75 71 85 94 89 78 74 77 81 71 59 58 62 54 52 62 80 91 81 80 85 89 88 80 75

GFSSW_700_rhum_054.txt.gz
RH
16 12 8 9 11 27 37 51 41 56 95 87 40 24 7 57 85 100 66 52 46 30 29 24 22 35 40 45 33 36 66 58 61 58 50 36 27 25 26 26 24 26 33 36 37
8 9 12 34 42 54 78 98 98 67 77 85 87 52 27 22 90 61 49 77 74 34 30 28 21 62 39 47 46 38 57 50 54 57 39 27 25 25 26 26 25 22 24 37 37
25 31 40 47 100 100 95 89 92 87 68 79 85 87 80 20 57 90 92 92 90 40 32 30 27 64 54 42 47 47 60 54 46 30 27 28 28 27 28 28 27 24 24 35 38
49 91 94 87 92 92 92 97 76 78 66 60 88 86 83 71 40 75 89 72 98 48 31 34 32 65 79 44 34 49 48 59 45 33 32 33 36 33 32 36 26 26 24 29 38
96 86 84 87 86 84 88 77 65 65 66 67 62 67 78 76 27 89 62 74 92 59 28 33 33 60 85 63 41 40 62 48 46 41 40 40 40 38 31 29 27 25 24 26 31
88 82 82 83 88 87 90 62 76 73 63 65 66 79 82 81 31 98 99 90 95 65 31 43 40 58 98 82 61 54 75 43 43 38 38 37 37 34 28 27 25 24 20 20 21
82 84 86 86 81 78 81 77 78 65 58 58 72 82 85 60 43 85 99 82 87 69 31 35 54 77 81 98 65 74 64 54 40 34 35 34 36 27 26 24 22 19 17 16 16
83 82 84 94 55 78 70 78 70 74 73 70 73 85 74 73 57 81 98 86 95 63 37 54 71 81 91 84 59 64 75 74 31 29 33 33 36 43 21 18 16 15 13 12 11
83 75 81 92 48 46 60 62 69 64 68 79 82 72 70 69 94 87 90 98 84 48 55 71 90 81 77 80 95 84 56 60 61 27 36 30 43 44 21 16 14 13 12 11 10
58 72 85 85 73 40 52 57 72 54 68 83 89 80 64 71 85 97 91 99 76 56 83 98 99 98 99 89 60 67 64 71 58 46 35 33 47 29 21 16 14 14 14 14 13
40 52 76 83 86 45 46 67 58 62 79 73 70 74 87 64 98 89 98 86 92 62 99 91 99 84 95 84 66 70 74 60 30 42 32 45 62 32 24 21 16 16 15 15 15
32 50 74 82 87 54 56 56 76 91 87 72 70 92 100 97 98 97 98 99 74 90 99 94 98 97 100 97 72 80 65 64 47 46 45 65 51 35 25 19 16 15 14 14 14
54 42 71 80 89 59 62 72 83 90 83 74 73 98 93 97 98 99 99 97 85 96 96 98 97 99 100 97 89 87 73 77 72 59 64 64 50 36 31 28 25 23 22 20 18
51 55 60 64 75 68 67 57 58 68 94 89 94 98 99 93 96 98 99 98 99 99 96 99 99 97 99 93 86 87 85 75 72 79 60 59 35 47 45 42 36 31 28 26 27
51 55 66 84 45 50 37 42 76 57 88 96 94 98 98 91 84 98 85 98 98 95 99 99 92 93 99 93 93 95 86 88 88 76 72 61 53 51 40 41 39 33 28 28 28
63 74 76 77 86 76 72 83 63 67 90 95 98 98 92 100 75 100 98 98 98 96 99 98 99 99 98 99 100 93 94 97 83 79 75 70 60 37 43 48 43 40 39 38 34
58 70 76 78 69 63 57 51 67 91 93 85 98 98 100 99 100 95 97 99 98 98 98 99 99 98 99 99 99 97 98 89 82 89 60 55 61 42 43 45 46 43 36 29 28
57 56 51 53 58 53 48 54 89 98 100 88 98 99 97 100 99 96 99 93 86 95 100 98 99 99 99 93 94 97 98 74 59 53 44 56 47 41 43 46 46 39 34 37 38
55 50 39 44 47 46 44 48 93 79 87 99 98 97 98 99 96 99 99 87 96 95 93 96 98 99 100 92 90 95 96 75 49 59 64 44 42 46 41 45 43 40 46 48 45
54 55 50 40 49 48 38 59 76 82 91 84 87 92 99 89 98 98 92 83 83 80 68 79 98 100 97 92 90 86 80 76 68 65 49 37 38 31 41 47 48 52 52 50 52
46 55 62 54 46 66 80 91 72 80 79 78 79 86 96 81 80 82 83 82 84 80 69 68 79 99 99 95 96 86 87 69 66 50 34 21 25 27 38 49 56 51 49 53 54
40 48 52 58 48 56 95 89 86 83 73 73 79 70 79 82 88 78 71 75 78 81 84 72 68 98 97 89 87 85 79 64 66 73 70 62 32 36 46 57 56 55 58 69 68
39 42 51 59 61 54 74 90 85 76 69 72 78 76 67 75 81 78 72 65 81 77 76 66 71 97 98 96 92 91 79 71 58 53 64 46 36 45 48 56 56 66 76 75 78
36 42 62 68 75 70 65 76 84 75 66 64 66 69 75 76 69 76 73 72 87 83 75 66 62 64 65 71 75 80 71 76 75 67 64 51 52 49 48 79 84 84 84 89 85
26 44 53 72 83 84 84 80 80 79 72 69 67 65 67 68 64 70 77 73 72 75 80 74 68 64 62 65 69 72 73 74 72 67 62 53 36 42 72 87 83 81 85 81 75
12 42 54 82 84 87 91 84 77 78 77 71 72 68 67 70 70 67 74 68 67 71 93 81 72 67 66 65 68 69 72 74 73 80 68 58 37 73 86 86 84 83 82 77 68
22 20 53 82 84 92 96 89 79 74 76 75 72 75 76 75 75 75 75 75 73 68 74 88 81 70 78 72 75 72 54 58 57 52 46 56 66 89 88 84 80 79 73 70 63

GFSSW_700_rhum_057.txt.gz
RH
14 15 17 20 26 31 48 71 96 96 98 91 92 97 35 15 18 95 16 28 81 49 26 26 26 28 39 44 40 63 81 62 56 47 42 44 47 46 37 37 32 36 37 45 45
17 16 26 53 78 69 74 78 91 92 96 94 89 94 95 40 17 69 54 81 98 75 33 25 27 24 51 48 54 55 74 64 58 49 49 46 49 40 28 24 33 30 31 33 38
15 43 82 83 74 70 68 71 77 87 94 93 88 96 93 92 45 15 54 98 92 96 44 29 32 37 59 56 67 47 53 56 49 50 55 52 50 38 39 35 35 38 42 24 31
20 87 89 81 79 71 76 74 82 90 86 83 79 78 88 92 72 61 24 49 69 93 58 32 34 60 74 58 50 73 61 49 52 51 51 50 48 47 46 39 43 44 34 22 21
42 85 80 83 79 72 71 73 83 73 68 73 69 69 81 89 40 64 45 73 62 88 80 40 35 45 95 99 75 72 65 63 70 50 45 46 52 52 51 50 37 32 25 22 22
94 86 83 85 81 78 72 72 70 74 72 72 70 69 66 67 70 65 64 67 93 96 85 67 32 47 96 99 90 88 77 78 73 54 48 45 59 56 45 57 34 31 24 24 24
95 87 82 92 94 83 70 72 74 71 69 69 74 75 76 55 68 69 95 48 91 73 88 55 90 97 95 99 100 98 80 83 76 64 51 48 56 52 43 45 33 29 25 24 22
81 88 57 85 91 77 48 68 66 65 65 65 67 74 76 70 74 54 100 100 63 78 97 54 98 96 96 97 97 97 85 79 71 54 54 56 47 43 35 29 29 31 22 21 20
46 40 65 76 90 68 45 62 57 59 58 63 71 78 71 66 64 49 97 98 99 98 96 48 98 95 96 95 97 90 66 59 53 57 59 41 44 44 43 28 20 23 20 17 15
53 46 68 78 88 58 46 48 55 64 56 68 79 87 59 74 67 47 91 99 98 98 81 62 84 95 94 90 73 65 58 43 44 60 56 64 60 50 45 40 18 19 28 16 12
53 52 66 78 84 56 43 48 65 61 76 88 96 74 96 83 72 90 87 98 99 91 75 94 99 96 90 72 55 47 50 37 44 52 58 59 59 50 58 26 17 17 22 21 14
59 62 57 72 78 48 48 58 64 81 93 75 71 65 87 97 100 69 79 98 98 97 98 99 92 98 88 74 63 62 51 48 59 59 54 55 61 65 45 24 25 28 20 20 17
68 69 76 63 64 68 65 56 71 87 90 85 75 80 98 91 96 90 90 91 94 96 98 99 99 90 99 85 72 63 63 52 59 70 61 65 61 48 32 21 18 15 15 15 13
66 79 76 45 41 40 57 68 64 70 95 88 82 97 92 99 100 83 87 92 99 90 98 100 100 96 99 92 73 61 61 60 80 67 42 55 25 58 44 36 29 26 24 22 20
60 51 68 77 73 59 44 43 59 77 92 92 89 78 95 97 96 99 96 99 100 97 100 95 91 98 98 90 78 64 79 87 83 74 71 62 47 46 43 49 44 36 31 29 29
59 36 51 55 33 25 25 35 52 95 94 97 99 98 98 98 98 98 98 98 92 96 94 99 98 98 99 87 79 93 90 90 86 78 70 58 45 45 45 53 64 38 32 32 32
51 41 42 48 39 37 46 50 93 95 95 98 97 99 99 97 98 95 99 97 93 97 98 98 98 99 96 97 99 96 90 92 91 89 59 64 59 41 39 54 66 57 41 40 38
49 52 33 35 42 42 46 49 86 99 100 100 98 100 97 94 97 96 99 96 96 94 98 98 98 99 99 99 97 87 87 71 64 64 50 63 47 39 49 67 51 43 39 33 34
53 53 45 37 29 36 40 49 69 86 92 96 96 84 97 96 91 96 96 99 96 79 90 96 98 99 99 99 100 99 96 76 54 50 46 42 46 51 51 64 49 45 39 38 38
43 52 51 42 42 34 41 62 82 82 94 92 87 89 88 99 93 94 88 92 88 83 84 93 96 98 98 98 97 99 92 81 66 64 43 37 32 30 42 48 50 56 50 47 44
33 43 48 49 52 42 49 74 87 84 76 96 95 94 89 88 86 83 87 80 75 76 73 86 85 99 93 95 90 82 86 71 71 55 35 23 24 33 38 49 60 57 53 50 52
24 37 49 55 49 56 57 74 77 82 77 73 97 94 84 87 84 80 83 88 80 80 80 68 94 97 99 85 88 90 77 71 70 64 58 54 39 36 55 62 49 54 51 50 59
17 32 44 57 66 60 66 70 77 72 75 82 93 84 84 86 84 86 74 60 73 80 83 70 82 94 97 86 81 87 87 80 71 56 67 41 43 49 57 56 55 52 65 72 68
15 37 41 62 64 76 76 74 72 69 65 66 73 75 82 84 78 85 74 66 64 74 72 65 64 82 66 75 81 78 70 74 70 71 58 46 53 52 51 60 80 78 76 73 70
20 36 48 66 88 77 75 77 74 70 67 66 68 68 84 81 80 83 87 72 72 74 73 67 61 55 55 59 64 71 69 67 74 62 62 50 51 56 55 70 66 74 73 71 68
25 17 50 70 77 83 92 100 80 71 67 65 74 64 65 77 77 81 89 89 84 72 81 78 68 61 59 54 57 58 66 74 70 68 77 71 58 60 64 64 76 76 73 70 66
28 20 35 66 88 93 98 98 96 75 70 65 66 71 79 66 69 72 82 89 84 89 91 93 82 68 81 70 74 76 52 56 59 55 68 79 49 73 78 79 76 74 75 76 67

GFSSW_700_rhum_060.txt.gz
RH
11 12 11 18 32 45 53 69 75 57 56 73 93 87 98 83 35 35 29 46 42 66 49 26 25 28 32 44 54 92 100 90 82 64 52 42 42 43 40 38 38 36 36 60 50
14 11 14 40 70 98 81 72 65 72 68 66 84 97 99 89 88 28 41 40 30 65 83 33 24 30 52 41 54 71 85 84 67 59 52 45 48 47 43 38 37 34 34 42 51
13 15 33 78 100 95 81 74 70 65 70 73 79 97 95 99 94 53 28 38 44 52 85 38 30 30 55 64 59 59 61 49 66 59 54 50 50 47 44 38 32 34 31 31 36
16 59 95 92 86 84 82 77 68 62 67 78 81 86 92 97 93 80 36 35 62 90 92 70 30 37 64 62 46 54 41 58 62 61 59 52 51 48 39 39 37 34 39 34 24
30 85 90 86 95 97 93 86 70 64 70 72 79 81 90 93 74 99 76 32 98 95 96 79 35 42 65 56 74 69 66 49 57 52 52 51 50 45 43 44 43 42 40 34 29
39 55 77 84 89 87 96 84 70 62 80 79 78 78 84 65 78 81 100 63 61 99 76 85 48 72 84 95 88 80 66 70 59 63 55 50 52 46 42 50 45 44 35 34 27
48 48 60 68 81 88 96 70 67 66 57 60 64 62 60 46 90 72 70 88 56 87 71 89 66 94 90 98 97 90 82 73 68 69 57 51 49 40 46 54 48 35 35 32 26
51 53 56 68 74 89 87 45 68 58 64 59 73 68 52 56 64 58 56 98 79 80 81 94 95 98 97 90 96 95 82 85 68 75 71 60 46 44 36 41 36 39 33 30 26
67 53 53 65 79 82 41 54 62 57 56 54 57 76 72 70 58 58 61 99 79 91 100 99 97 90 96 95 94 97 80 82 74 58 72 68 59 47 44 40 35 33 29 28 24
73 45 51 64 69 62 40 46 50 60 64 55 75 94 76 96 78 60 62 100 99 98 96 98 94 82 92 96 92 78 75 69 69 64 50 49 46 51 46 44 39 26 22 23 20
68 60 37 54 59 44 44 52 57 69 77 84 94 90 91 79 84 64 60 99 99 88 99 92 95 78 48 66 65 68 68 66 57 56 62 52 60 44 55 48 31 26 18 16 15
52 58 38 35 50 55 54 55 60 79 77 79 68 67 59 74 68 70 91 97 94 99 98 100 85 71 78 84 73 62 56 49 50 48 48 57 54 58 52 51 33 23 17 16 22
42 42 40 39 45 57 63 56 62 70 88 89 77 70 70 76 80 73 98 97 98 98 88 92 91 84 92 87 75 62 57 48 52 63 61 55 54 51 50 42 33 15 13 14 19
29 43 22 30 36 48 56 70 78 84 98 90 93 88 66 96 87 90 96 98 98 95 97 98 89 80 94 87 73 65 59 52 56 67 59 48 40 32 38 29 23 19 17 18 16
29 36 28 18 20 30 45 50 69 86 94 77 83 81 94 92 79 99 93 96 99 100 89 100 96 99 97 82 84 67 58 58 71 55 71 63 57 40 51 49 36 29 23 18 17
45 34 38 26 20 42 56 67 85 92 96 97 95 94 98 95 98 88 96 95 99 99 97 92 100 100 93 96 92 90 71 80 79 79 83 61 45 54 47 38 40 44 38 34 32
50 47 35 33 26 47 51 61 95 93 97 97 98 98 99 99 84 90 95 98 97 93 92 97 99 99 99 99 97 96 78 83 90 92 84 50 56 43 41 46 46 46 43 37 35
41 50 44 29 24 42 44 60 84 97 98 91 98 95 96 92 98 99 99 94 94 77 88 94 99 99 99 99 95 92 62 72 73 92 70 62 60 42 40 47 55 55 41 40 40
28 41 43 36 22 29 51 56 84 91 96 96 96 84 97 81 81 96 89 92 93 93 98 98 97 100 99 99 92 97 88 86 52 49 59 52 48 48 44 46 48 50 42 40 36
19 31 38 43 40 21 40 79 88 88 91 96 89 87 91 90 79 92 89 86 91 90 96 92 94 99 99 98 93 92 95 83 54 70 66 45 43 38 52 46 48 49 50 41 38
14 26 39 49 42 40 43 58 81 90 82 93 87 84 84 87 81 80 84 84 81 75 89 96 91 98 99 98 98 99 98 81 72 62 65 51 37 34 34 38 51 72 48 44 44
29 28 39 48 47 57 62 66 67 66 76 84 96 83 82 80 78 78 82 81 75 83 86 85 84 98 100 94 95 98 95 93 88 71 52 51 50 34 42 47 56 53 48 46 44
40 18 38 53 61 73 67 60 62 61 65 74 95 87 84 81 80 82 67 67 75 78 80 71 74 88 90 83 81 83 82 78 70 69 60 68 53 52 52 60 60 53 50 47 50
55 20 35 56 64 93 88 80 89 66 61 62 70 70 75 78 79 80 69 64 66 70 73 68 70 83 76 76 72 72 72 76 75 60 57 49 51 58 60 61 59 53 48 60 68
49 30 41 62 94 67 91 97 96 95 67 64 71 76 82 80 79 82 82 70 64 61 73 64 58 57 62 51 56 59 66 83 76 64 56 51 49 47 53 62 73 52 68 76 71
50 29 27 53 74 78 96 97 92 99 75 90 79 74 76 75 76 79 77 79 77 72 73 70 66 60 58 54 51 51 60 68 65 64 62 65 56 59 57 56 52 59 74 75 69
75 37 23 52 82 99 96 94 95 88 79 73 68 78 80 75 68 69 80 88 90 75 70 75 75 62 85 74 63 64 40 44 51 49 48 54 47 55 55 51 46 72 74 73 72

GFSSW_700_rhum_063.txt.gz
RH
21 20 16 16 36 82 99 100 99 83 64 53 57 91 59 81 91 35 20 60 32 48 62 32 27 31 39 44 72 100 100 99 86 75 56 52 54 43 40 34 37 37 36 47 50
27 26 33 78 100 99 99 96 89 82 65 65 64 66 85 86 94 62 31 32 40 42 64 47 28 30 45 53 76 85 96 90 87 70 63 66 60 41 40 35 39 38 37 45 56
20 22 35 73 90 99 98 94 87 77 67 61 65 65 69 88 80 52 70 35 45 59 78 76 41 33 52 61 81 58 51 47 83 78 79 89 67 54 52 42 37 38 35 34 54
20 33 50 57 67 84 93 94 95 89 74 60 58 66 65 78 83 72 66 46 28 44 68 74 44 39 49 57 62 62 52 63 60 96 84 70 78 54 47 45 39 37 35 32 33
46 54 36 55 58 71 78 94 95 84 68 59 66 79 82 89 60 97 99 56 30 40 72 78 45 35 43 60 59 58 76 63 64 67 72 63 62 57 51 42 42 40 36 35 29
60 42 30 49 63 74 79 96 81 70 66 83 82 70 69 64 71 94 87 76 42 67 76 91 74 37 66 80 72 48 65 67 70 62 62 59 50 53 49 42 44 47 49 41 40
59 43 36 51 61 71 86 81 47 66 70 62 63 60 64 82 80 83 97 99 83 99 99 94 83 44 58 92 74 86 67 89 69 66 60 55 55 50 49 43 43 43 46 43 40
45 41 32 40 51 50 34 40 53 64 67 56 55 56 52 64 58 86 94 96 100 100 100 99 78 79 84 90 96 87 74 85 74 69 64 57 47 48 47 45 46 35 38 41 40
36 38 34 36 47 37 37 54 57 55 53 49 48 54 70 56 61 56 59 94 100 100 100 96 89 97 97 94 90 96 86 82 79 75 59 47 43 45 37 38 34 42 35 33 32
30 26 35 36 40 41 36 41 44 51 52 55 63 85 86 77 72 59 56 80 98 87 99 95 94 88 94 94 83 82 82 63 70 76 71 52 49 48 45 42 38 39 40 36 32
40 24 30 37 43 40 40 41 51 62 61 66 74 77 76 74 73 69 52 82 98 92 99 98 96 80 50 80 79 77 81 74 65 69 69 60 53 52 42 43 38 35 33 28 26
38 29 26 34 48 57 67 54 50 55 64 70 71 72 58 56 64 62 58 68 98 96 98 99 81 73 70 80 79 74 67 68 63 66 63 58 54 49 50 40 36 32 29 29 22
32 36 27 29 35 41 47 65 75 72 83 94 81 70 66 65 55 59 65 74 96 98 99 93 98 80 73 87 73 70 68 61 62 59 67 64 66 56 47 41 40 29 24 24 20
44 36 36 33 29 46 52 71 71 82 94 98 99 84 76 98 80 46 71 85 88 98 99 99 90 83 85 72 60 72 65 59 60 66 71 62 55 39 36 31 29 28 22 23 18
48 48 40 32 31 48 58 72 78 92 96 90 94 96 99 98 77 97 97 88 84 94 76 92 78 84 86 84 84 75 65 62 56 62 60 59 55 36 34 31 27 30 28 20 18
39 47 48 28 31 41 55 61 67 80 96 96 89 97 100 87 98 99 98 98 99 98 91 98 95 90 97 74 85 80 76 66 68 70 80 61 59 35 22 19 26 35 31 24 20
23 41 41 37 27 37 46 49 60 93 95 98 98 98 91 96 94 97 98 94 92 85 98 100 99 98 97 90 92 88 84 87 88 91 88 55 66 39 37 31 37 39 33 32 29
16 32 40 42 28 26 40 40 73 90 96 100 98 89 91 98 99 99 99 95 76 63 90 99 100 100 98 94 97 93 69 65 85 98 83 63 68 52 36 41 38 36 40 37 32
34 22 42 46 36 24 42 39 84 90 88 89 69 67 74 95 99 97 98 90 86 74 61 90 98 99 99 98 96 98 85 74 65 60 66 57 56 52 43 42 39 34 36 40 36
53 18 34 46 43 37 42 56 76 86 78 84 97 82 93 91 86 89 94 98 86 90 75 91 94 95 98 99 98 93 82 77 75 62 76 63 49 47 53 44 47 46 46 44 39
56 16 33 47 46 49 56 66 68 72 79 82 84 89 95 95 81 84 85 92 88 93 87 83 91 100 100 99 98 97 93 79 72 68 66 61 44 41 40 39 44 53 53 43 42
55 18 30 48 71 78 80 77 65 67 81 93 85 94 82 83 78 80 81 75 80 96 98 94 91 98 98 97 95 84 88 80 74 71 54 57 49 35 37 43 51 52 52 50 47
58 33 34 48 93 90 78 81 82 69 67 75 82 78 79 80 77 80 69 77 77 77 78 74 88 95 98 98 97 99 92 88 87 78 64 64 49 35 38 48 57 58 59 52 45
54 36 44 62 62 99 94 94 98 80 72 67 67 75 78 81 80 71 65 70 76 76 74 72 70 72 68 63 68 86 93 93 92 92 72 58 54 48 50 50 57 58 51 46 50
57 42 36 66 73 74 98 98 97 98 71 75 76 81 83 80 78 78 72 67 66 67 72 68 60 70 70 60 57 61 72 85 81 73 63 52 49 45 50 54 60 55 47 53 73
60 60 28 32 78 82 94 97 96 97 86 77 85 70 75 75 75 78 73 66 69 64 69 70 60 55 53 51 51 50 53 63 70 71 69 57 50 52 54 60 64 61 46 70 75
64 68 64 32 78 94 95 87 90 97 88 81 83 75 74 75 74 69 67 73 84 80 66 67 66 62 71 72 62 48 34 37 45 45 50 62 54 53 59 60 57 53 53 76 77

GFSSW_700_rhum_066.txt.gz
RH
14 22 28 27 62 72 91 94 95 96 91 77 54 43 56 70 72 48 22 19 25 20 52 31 28 28 43 65 98 86 90 92 73 60 55 59 59 48 39 36 36 36 37 46 47
22 28 34 38 40 60 77 89 93 94 85 74 54 50 46 96 73 37 46 32 28 70 56 51 28 28 34 46 73 88 99 92 64 52 88 72 60 46 40 38 36 37 37 45 54
27 33 28 30 65 61 62 83 97 95 89 82 69 54 53 61 78 42 75 74 34 80 57 75 44 31 39 56 60 73 76 99 69 72 87 83 67 58 48 37 37 33 37 42 61
25 22 22 30 44 59 68 74 96 88 92 87 71 54 54 57 66 67 53 77 59 73 67 77 49 38 63 65 63 63 68 70 76 99 100 96 80 65 55 49 39 38 37 36 50
19 22 24 32 42 54 62 76 87 88 82 72 59 63 70 63 48 83 66 64 58 45 78 94 62 36 66 54 71 61 62 60 67 72 84 100 95 76 63 51 47 42 38 34 35
17 26 28 25 36 44 60 73 74 62 60 76 83 73 73 69 77 80 98 74 49 32 83 96 70 43 66 66 74 74 86 80 92 64 88 84 99 90 69 49 43 40 37 36 32
19 26 35 28 34 34 29 34 40 58 64 57 62 59 64 84 83 68 95 100 74 39 79 90 78 54 61 63 68 90 82 88 72 73 79 74 81 88 70 61 49 49 47 42 36
24 22 39 39 33 32 33 43 52 58 55 43 44 42 65 77 77 99 93 99 86 63 63 96 92 51 74 92 71 85 80 90 62 66 72 67 67 73 61 59 48 45 46 46 44
38 26 34 44 46 37 35 43 45 45 39 39 41 44 66 65 68 74 95 98 100 90 68 99 99 57 85 95 82 92 77 83 70 66 65 61 59 57 57 55 49 45 42 43 44
31 37 28 40 55 53 39 39 38 40 41 38 47 60 72 64 63 69 78 95 98 99 99 99 99 67 91 90 91 77 67 74 68 67 74 54 51 48 48 55 49 48 46 34 36
35 36 38 32 39 59 58 43 46 53 54 60 58 60 60 66 63 57 70 81 96 99 98 99 98 60 62 86 84 68 75 69 78 72 68 63 54 55 46 43 37 35 38 36 33
43 43 41 44 33 46 57 65 86 56 57 62 67 62 55 51 65 65 63 68 96 98 97 99 74 66 90 86 82 77 72 71 67 75 73 66 53 51 53 47 45 40 38 38 37
42 46 51 42 34 53 67 73 74 94 90 91 87 72 67 70 68 71 62 52 96 99 98 100 90 73 77 89 79 80 78 73 67 64 72 68 65 53 43 49 55 48 35 32 32
25 41 47 35 43 53 67 87 80 83 97 97 98 76 80 81 75 67 58 66 84 94 98 100 89 71 80 83 88 86 75 70 70 67 72 72 69 50 43 49 53 44 39 31 30
17 31 37 32 35 47 61 74 86 93 96 96 98 98 97 97 82 85 62 54 92 96 94 99 84 79 84 71 93 80 72 63 61 63 66 68 66 53 40 41 40 34 33 27 23
46 19 31 34 27 39 49 62 76 87 95 96 96 73 78 82 98 100 99 85 94 98 99 93 98 87 88 75 87 71 73 66 69 76 77 62 62 49 37 31 29 27 27 28 27
53 16 26 34 26 32 43 46 74 95 98 99 98 96 99 96 99 98 96 97 95 98 98 100 100 100 92 88 80 88 74 94 94 97 90 63 63 52 32 27 29 23 23 25 28
44 22 24 37 28 30 38 45 69 96 100 100 98 98 89 95 98 99 98 98 96 94 99 99 99 85 83 90 90 84 73 69 87 94 81 64 65 52 39 32 40 38 36 42 39
39 29 23 38 29 31 38 45 69 73 84 89 94 92 99 94 98 97 94 77 84 82 69 92 97 99 97 86 89 93 80 70 61 71 75 54 48 44 38 29 32 33 35 35 36
39 40 24 38 33 28 38 48 69 80 83 80 91 84 95 95 96 89 93 80 70 65 65 69 89 98 99 94 97 98 88 85 79 71 81 64 57 44 34 32 33 34 34 37 39
42 46 29 39 36 37 45 54 66 72 75 86 86 88 88 90 89 91 89 91 86 84 67 68 70 96 100 99 98 99 99 84 72 65 70 67 54 43 34 34 32 36 42 44 44
48 43 41 41 46 49 58 53 61 74 80 86 86 86 84 82 82 82 87 83 86 84 78 84 95 100 100 100 96 100 94 84 69 73 66 62 45 34 40 46 43 46 51 52 51
47 51 43 46 98 76 65 69 65 70 74 75 76 79 81 72 71 75 83 83 96 96 94 92 90 96 99 92 100 100 98 86 83 73 66 62 40 34 30 42 57 59 60 55 50
46 48 46 46 100 99 95 83 72 69 71 75 73 78 76 73 69 62 71 82 88 81 77 73 81 77 71 70 76 96 87 85 88 84 74 66 57 55 46 31 48 59 56 51 53
45 48 40 52 84 100 99 95 91 87 70 79 78 82 75 70 64 66 65 70 72 78 78 73 64 70 68 70 68 74 72 86 89 85 88 72 69 63 47 34 39 53 54 53 50
49 55 55 29 71 90 98 96 99 92 88 85 77 86 84 80 70 66 65 64 67 69 69 69 60 60 69 56 56 58 62 83 94 91 88 72 62 56 43 52 55 53 51 47 47
50 56 62 50 51 95 98 91 93 91 93 95 89 80 81 80 79 75 65 65 65 68 63 68 67 60 60 59 61 57 38 44 55 71 78 78 61 52 47 55 61 59 54 51 52

GFSSW_700_rhum_069.txt.gz
RH
12 23 27 19 18 23 42 43 61 94 96 81 74 66 55 48 33 49 38 33 24 24 71 36 28 27 44 86 94 84 95 91 73 55 45 41 51 50 42 42 36 36 37 40 36
14 30 29 18 16 30 38 53 59 74 96 91 77 66 50 50 70 31 48 63 33 31 64 68 33 31 62 62 85 100 96 77 59 59 55 54 56 54 46 41 39 36 38 40 43
15 32 31 25 14 26 34 48 58 76 94 95 87 68 52 50 51 60 76 88 56 46 68 77 51 35 100 80 72 100 96 92 76 75 67 60 64 56 44 42 39 38 35 37 47
15 31 31 34 18 22 32 46 68 83 93 88 86 73 55 43 58 56 69 93 62 98 62 77 62 38 74 75 63 74 97 98 86 75 74 68 71 62 49 46 45 48 42 43 42
17 24 34 33 28 23 27 36 70 84 76 75 71 62 50 51 57 78 65 82 78 39 78 95 73 38 57 71 66 80 94 96 95 97 87 89 89 84 57 49 46 45 48 43 38
27 21 33 37 39 24 26 26 38 54 57 70 72 66 61 65 68 70 94 99 78 48 51 98 76 46 50 64 75 66 88 84 84 87 100 98 82 98 68 61 49 46 41 38 36
25 32 27 38 44 31 29 31 30 52 69 58 56 57 58 61 66 62 82 94 77 54 48 98 87 52 56 72 74 87 87 87 79 85 98 98 99 96 73 65 57 53 55 40 37
30 35 35 32 44 45 32 35 43 50 54 46 46 45 55 56 66 76 58 98 62 58 46 100 96 55 78 82 74 79 98 96 68 89 97 99 90 96 88 73 74 58 51 46 38
42 38 40 38 40 49 36 36 38 42 37 39 43 52 61 63 60 68 78 98 98 88 55 96 99 60 80 80 72 89 82 81 75 85 82 98 82 81 94 78 70 63 51 47 44
37 46 49 44 44 44 53 44 40 39 44 45 46 68 89 85 79 68 88 96 98 70 100 98 99 68 91 83 82 67 76 61 62 54 66 82 80 81 73 71 72 61 49 48 48
22 43 49 48 44 48 58 57 67 51 53 55 60 65 79 89 78 78 85 97 96 92 97 94 99 70 47 80 82 65 83 72 59 67 58 72 76 82 61 63 64 62 56 49 46
33 32 44 39 44 56 70 71 80 67 66 54 59 55 60 73 65 71 82 90 95 96 99 100 96 84 68 90 77 77 86 80 73 79 73 84 83 80 65 52 49 49 54 52 52
50 20 38 37 39 55 74 84 74 86 92 92 97 58 46 56 72 73 60 65 93 98 99 98 98 81 78 89 79 88 69 76 74 79 84 78 70 67 54 55 50 46 44 41 42
44 26 31 36 34 47 67 79 84 85 96 98 82 64 64 55 66 78 66 80 88 89 99 99 95 81 88 89 85 95 86 73 75 76 81 78 77 51 47 48 48 48 49 48 39
40 47 23 34 29 37 52 72 85 90 95 96 99 95 92 87 75 74 60 69 89 98 98 98 92 82 80 88 87 81 84 84 74 73 71 72 75 56 47 36 38 33 40 44 48
34 53 19 33 32 36 44 65 72 85 98 98 85 99 98 90 97 73 87 76 94 98 99 98 92 87 83 83 84 81 80 71 68 68 83 70 71 60 47 30 32 33 36 43 45
29 51 19 33 33 32 38 50 73 95 90 95 100 95 97 98 99 100 70 74 93 98 99 98 97 88 83 74 83 83 81 93 92 92 91 70 65 61 47 39 32 33 36 39 33
31 48 19 35 32 39 38 43 79 96 92 97 98 98 99 98 89 83 69 75 93 97 99 98 99 99 92 73 83 95 84 74 86 96 85 66 68 59 43 37 34 31 31 30 31
41 45 23 30 32 35 42 43 70 86 93 88 91 96 97 99 98 100 100 73 58 92 90 93 100 99 97 81 69 85 92 75 61 74 80 64 58 48 42 36 35 30 32 29 28
46 48 31 29 32 34 49 53 66 79 84 83 87 95 96 86 95 95 98 99 87 97 74 72 88 100 98 84 87 86 82 86 72 81 89 67 57 41 32 29 33 30 30 33 38
43 49 42 32 38 38 49 61 66 74 76 84 90 96 90 95 87 88 94 90 94 86 73 71 76 100 98 92 95 96 92 85 76 67 72 71 49 40 40 36 35 28 31 35 39
42 44 57 38 46 50 57 60 68 72 79 89 90 86 84 85 82 84 87 85 86 82 73 63 65 99 100 96 92 100 99 96 75 81 72 62 54 42 37 35 38 40 43 46 49
38 48 53 41 58 57 64 69 73 76 78 85 86 84 81 76 74 76 79 80 87 86 85 81 93 98 99 97 99 99 99 100 89 74 67 69 54 36 39 30 42 48 51 52 51
37 45 49 46 56 62 69 74 72 71 77 75 77 85 83 75 69 62 73 78 85 82 80 82 84 79 74 66 79 97 97 99 96 90 77 69 57 54 49 52 45 36 53 58 60
39 43 49 46 77 93 80 80 82 84 76 84 78 85 81 76 69 67 71 76 85 82 78 80 78 81 74 66 73 80 64 87 100 91 84 73 67 58 56 55 56 39 58 64 56
40 47 52 45 51 79 98 85 83 84 85 85 84 83 80 79 67 68 71 72 80 78 82 81 69 66 75 67 72 80 74 87 90 90 87 79 79 66 69 71 54 42 54 56 53
18 21 43 56 45 86 98 95 89 86 91 90 89 86 87 82 80 76 69 68 67 69 73 75 71 63 59 58 60 52 36 44 56 62 63 83 55 77 73 57 45 43 46 53 58

GFSSW_700_rhum_072.txt.gz
RH
12 21 19 18 27 24 15 19 41 64 55 70 94 86 86 71 63 72 94 64 42 27 74 63 29 29 56 92 87 97 85 83 80 60 46 45 44 50 48 40 42 37 34 32 30
13 17 21 19 23 29 17 18 36 80 67 90 94 83 81 73 69 52 61 94 64 32 82 85 39 28 44 74 98 99 87 76 76 58 60 50 44 50 52 42 42 40 35 35 40
19 16 18 20 24 36 19 20 28 58 77 97 95 88 83 72 60 60 80 87 79 36 84 92 68 36 36 67 93 99 90 80 78 66 74 68 61 54 53 43 58 48 50 38 42
24 25 21 23 28 39 22 21 23 41 76 83 85 87 85 75 60 60 52 79 94 52 76 92 83 40 42 74 68 98 88 100 95 82 77 74 64 59 51 47 51 49 56 57 51
30 26 28 27 32 40 24 24 22 34 52 61 64 74 76 67 60 76 77 66 90 83 70 96 95 50 58 76 72 70 92 91 92 93 77 78 73 69 48 51 55 60 60 62 55
37 39 33 35 35 40 29 26 25 35 48 62 60 61 61 68 74 66 93 89 94 87 73 100 100 64 66 72 84 80 73 73 98 97 91 85 81 81 56 54 54 52 61 64 59
26 43 42 45 39 38 35 31 36 46 50 47 50 51 54 67 71 73 97 96 99 74 86 97 94 80 57 69 90 90 93 95 92 100 98 96 95 83 67 65 50 48 57 61 55
25 34 47 57 49 41 47 40 37 43 47 37 40 37 43 56 64 74 92 96 94 99 81 86 100 89 65 70 77 87 93 98 94 85 98 96 87 83 74 75 61 58 62 53 44
48 22 44 60 54 48 53 48 40 41 41 35 38 38 53 64 75 62 70 72 73 92 88 79 99 84 95 72 82 93 85 88 88 74 75 75 68 77 90 96 94 91 79 70 50
47 31 34 53 52 52 57 61 68 44 43 46 45 53 70 70 77 70 61 96 84 81 84 88 98 87 83 75 80 93 98 94 77 71 66 70 63 81 87 99 83 82 83 73 62
48 44 24 44 47 57 68 68 72 61 52 50 53 60 66 67 70 81 93 94 92 99 84 85 99 87 50 65 76 67 78 90 93 80 69 65 66 95 85 99 82 72 66 63 58
47 45 21 40 42 55 75 75 73 78 72 67 64 58 57 54 63 80 92 86 98 98 99 100 97 93 59 76 74 75 77 75 78 76 77 71 84 94 98 93 88 80 65 60 57
46 43 23 31 41 44 71 74 79 80 89 84 68 54 58 44 57 81 94 96 97 88 99 100 98 97 67 89 81 84 66 70 72 86 81 77 91 85 79 79 82 70 61 62 62
43 38 26 29 44 37 61 70 85 84 94 94 79 64 70 67 66 84 84 92 98 94 99 99 98 94 72 90 94 85 76 76 81 83 93 85 86 78 55 54 50 61 54 49 47
41 35 28 28 40 37 55 65 83 83 95 97 87 82 77 92 77 70 72 72 79 94 98 94 96 100 92 88 86 93 88 81 83 83 80 84 81 60 60 58 31 32 45 50 47
41 33 29 29 38 34 51 63 80 84 95 97 93 84 75 85 87 74 90 74 82 99 92 97 98 98 83 98 93 79 92 87 93 86 87 74 73 59 55 40 32 30 36 43 48
38 33 30 25 39 37 52 58 77 90 88 97 98 96 92 90 86 99 68 62 67 84 98 98 99 96 80 88 90 81 82 97 98 95 91 70 66 59 53 48 42 36 31 30 42
34 38 40 24 40 33 47 54 70 91 98 99 100 99 98 98 98 96 51 53 83 98 99 98 98 97 82 92 87 88 83 74 88 96 85 67 78 56 39 33 34 35 35 37 37
30 44 42 25 36 38 43 60 73 86 85 93 96 100 97 96 100 100 92 83 98 97 97 95 100 98 92 80 79 94 96 78 65 79 80 65 61 50 38 37 35 32 29 30 31
29 46 41 35 35 42 53 58 76 79 86 85 96 97 95 90 89 95 100 94 91 93 86 82 98 97 99 84 78 85 83 89 78 84 90 67 58 40 36 38 40 34 36 29 31
33 44 45 43 41 45 55 59 75 82 78 83 95 96 95 98 89 87 86 98 83 83 81 74 75 100 98 96 86 81 86 85 80 69 77 76 51 41 42 38 32 33 36 36 35
33 44 54 46 52 56 61 61 67 79 89 95 86 85 87 87 75 65 67 77 82 73 84 73 83 99 100 98 90 96 80 82 75 84 77 66 57 43 43 35 30 34 35 42 51
31 37 44 50 56 59 68 70 75 78 88 91 87 84 85 82 81 88 84 79 84 87 82 73 82 97 100 98 93 92 97 95 95 82 77 76 61 40 45 41 44 43 42 50 52
33 42 49 52 61 66 72 72 77 79 78 84 83 83 82 82 75 73 81 87 87 88 87 82 76 71 76 65 75 86 85 91 98 100 93 79 68 59 53 49 51 50 49 48 55
28 38 47 50 56 62 79 82 80 82 79 82 85 82 79 75 71 70 80 86 95 91 88 83 78 82 79 75 71 72 72 85 98 95 94 80 74 58 56 58 56 57 60 51 48
17 21 36 54 48 67 71 85 87 87 82 89 86 91 83 76 70 71 74 79 85 86 86 84 77 71 93 90 75 79 85 91 96 100 99 93 83 67 69 69 64 61 61 51 49
18 14 14 35 48 76 92 85 83 90 87 90 90 88 88 83 80 79 73 70 74 82 74 82 79 75 64 64 70 64 46 51 57 64 59 93 42 67 68 72 72 65 59 42 57

GFSSW_700_rhum_075.txt.gz
RH
18 14 14 16 19 19 23 31 18 18 36 68 63 76 95 91 79 70 92 99 92 53 25 41 54 30 45 65 93 95 96 96 78 65 51 44 42 42 49 44 43 41 39 35 32
20 20 19 20 22 22 28 32 20 20 28 64 74 93 95 86 78 72 58 83 98 78 28 58 52 36 43 66 97 99 99 88 76 67 54 56 47 46 48 48 41 42 38 37 43
29 29 24 24 28 27 32 35 22 20 32 73 88 91 94 91 77 64 56 58 94 92 51 94 78 39 42 75 91 97 93 84 92 79 72 69 60 48 51 50 45 48 46 44 51
20 28 34 32 36 32 36 42 20 20 31 52 80 96 91 94 73 63 49 76 73 94 60 100 93 44 40 78 99 93 86 92 93 87 82 72 70 59 54 50 49 49 44 44 53
36 23 35 43 42 37 39 42 21 23 36 47 57 75 83 81 71 64 69 73 87 97 78 99 98 55 46 70 85 100 99 83 95 93 81 71 72 69 60 52 59 53 50 53 60
44 36 27 45 46 39 40 42 26 30 42 52 56 61 67 60 64 59 76 96 88 97 82 98 100 80 63 60 76 92 100 97 98 98 97 78 74 68 69 61 64 57 53 56 57
42 39 24 41 49 42 42 48 37 34 44 46 44 42 46 62 66 69 73 96 80 84 65 95 99 96 65 59 80 90 77 92 96 92 98 77 77 62 67 74 67 74 57 63 61
37 43 32 36 47 44 48 57 53 34 42 44 41 37 44 48 58 67 61 87 98 88 75 99 91 98 68 70 85 87 91 76 72 69 99 97 75 66 61 72 67 67 66 66 64
33 46 41 27 43 44 56 60 60 57 39 43 37 41 50 62 54 63 64 70 96 87 89 98 97 97 78 71 90 100 87 95 88 85 72 80 85 64 69 80 71 74 75 62 53
31 45 42 23 40 44 62 68 66 63 50 43 43 46 62 78 67 57 68 71 88 92 97 96 98 99 82 73 95 96 99 100 98 98 97 76 65 74 86 84 74 86 78 67 52
32 42 40 24 35 43 61 71 68 67 65 56 48 53 60 73 71 61 67 56 52 98 95 100 98 97 79 74 79 75 96 98 96 87 92 85 82 81 72 70 85 89 93 85 62
33 39 39 27 33 41 58 73 75 72 76 75 72 56 51 56 70 73 95 95 77 82 96 95 98 98 85 73 73 74 86 95 94 81 78 72 70 85 74 68 65 94 86 81 74
28 34 39 29 34 40 55 72 80 75 80 84 68 50 56 56 64 94 96 88 98 86 98 100 85 94 84 92 91 81 70 78 72 79 89 84 76 63 67 69 69 84 76 69 64
21 35 38 28 41 39 47 68 79 77 88 93 91 81 58 68 80 97 97 97 97 100 99 98 98 98 92 86 85 83 71 57 63 74 95 90 82 56 52 53 59 97 75 67 64
18 36 38 28 37 35 44 62 78 79 94 98 98 78 64 84 91 94 93 87 95 97 92 98 88 97 87 79 88 79 74 81 79 84 83 87 83 64 52 48 45 60 73 60 58
18 33 36 29 38 38 46 63 82 82 97 97 96 71 60 75 82 98 91 90 90 80 90 96 95 99 70 92 82 76 90 88 88 81 90 79 84 65 59 40 41 46 57 83 55
19 30 40 36 34 38 43 62 78 88 93 98 96 81 72 61 84 100 96 89 75 96 98 94 86 98 94 94 92 93 86 95 94 97 86 74 80 71 55 54 51 47 45 42 58
20 28 42 37 33 40 40 53 72 95 93 97 96 97 94 97 95 92 75 67 62 95 99 94 99 98 95 96 83 93 81 71 87 92 82 75 77 53 43 40 42 40 41 40 32
17 28 46 38 33 45 47 63 70 89 94 96 97 97 99 99 90 94 53 54 73 91 86 83 98 100 83 96 88 85 80 70 70 80 79 65 65 39 35 38 39 39 39 36 37
18 32 44 44 37 51 57 65 76 83 88 95 99 99 98 97 86 70 63 72 96 96 95 98 98 100 100 95 89 84 75 81 74 83 82 66 54 36 39 41 38 33 30 36 35
26 32 38 52 45 56 61 70 81 82 81 95 99 95 97 99 96 97 81 73 91 98 95 91 88 99 91 96 89 91 87 87 74 73 70 72 48 42 42 40 32 31 33 31 36
26 38 36 50 56 65 67 68 72 80 91 93 89 89 93 91 91 87 93 78 77 81 82 92 83 99 100 88 95 87 81 86 77 84 79 70 57 41 46 42 44 45 36 38 38
26 35 36 49 62 68 72 72 75 78 92 92 88 81 85 84 86 93 92 84 73 86 77 72 89 93 94 96 98 99 91 83 84 75 71 74 60 48 51 44 49 52 47 44 47
27 32 37 48 60 71 78 73 74 78 85 89 86 84 80 75 71 81 82 91 94 93 86 77 72 64 68 59 66 79 73 85 87 90 83 75 64 44 41 42 48 52 56 55 47
18 22 29 40 58 67 78 84 81 76 78 83 78 83 82 78 74 72 84 92 97 93 93 86 79 74 76 76 72 69 68 72 74 77 91 67 63 41 38 49 58 58 58 61 61
16 15 15 28 49 65 72 85 88 89 78 82 81 85 84 77 76 78 80 81 90 93 92 90 82 74 69 82 82 84 73 70 73 77 75 76 55 52 50 56 67 73 66 66 65
19 16 13 16 30 53 68 74 92 96 92 88 89 91 89 82 79 81 80 78 77 84 81 84 83 78 70 65 72 67 48 52 51 51 64 94 39 61 56 63 68 76 82 69 67

GFSSW_700_rhum_078.txt.gz
RH
21 23 22 23 22 22 26 22 36 35 18 16 24 64 72 78 96 83 68 83 99 61 60 43 39 29 34 60 76 88 85 75 76 71 68 45 41 36 50 47 40 36 33 30 35
26 22 26 34 30 29 29 27 42 32 15 16 37 81 86 94 94 81 70 81 94 85 50 65 67 45 38 57 68 89 91 80 71 75 74 56 49 41 44 52 43 40 37 33 32
35 33 23 33 38 34 31 32 46 29 15 18 33 74 90 96 95 79 70 67 98 96 56 76 67 69 43 69 69 78 84 79 81 82 80 62 61 53 45 48 46 44 41 37 33
31 38 33 25 41 35 35 37 49 30 18 26 37 63 84 89 92 68 57 58 52 88 96 77 76 69 82 73 70 85 90 92 96 87 80 76 62 64 54 47 47 47 45 42 41
27 39 39 25 37 36 37 41 51 34 24 38 48 53 56 74 78 63 61 52 84 86 94 98 89 88 94 95 78 82 99 96 98 91 84 76 62 75 62 52 50 53 60 46 55
21 35 42 33 33 37 40 46 53 44 34 42 42 39 46 60 60 59 55 52 99 98 96 99 97 95 100 99 85 80 85 92 90 84 87 80 67 69 74 61 56 54 56 52 60
21 32 42 42 28 40 45 51 57 56 36 46 37 35 36 48 58 57 47 72 99 98 94 98 91 90 91 91 93 85 90 84 88 98 98 88 78 66 72 76 63 72 60 57 60
26 33 41 42 26 41 48 59 62 61 42 47 43 36 38 43 51 58 58 78 98 97 91 97 96 97 70 71 74 88 93 98 92 92 83 90 84 59 66 73 73 81 78 62 59
22 38 39 43 25 40 47 64 65 67 58 43 46 42 44 54 56 60 81 76 96 93 81 99 98 98 70 76 93 97 72 73 92 92 94 86 90 90 92 68 70 74 87 73 66
17 36 36 40 26 38 47 67 66 68 64 52 48 43 53 64 61 59 74 81 91 96 76 99 98 98 94 89 75 84 75 82 86 90 89 88 95 93 80 72 67 72 76 89 71
18 31 30 41 25 42 48 68 69 69 72 64 66 49 53 53 60 57 82 68 91 98 85 98 97 96 96 81 67 85 87 92 97 92 87 96 97 74 64 68 77 79 73 86 76
20 24 33 42 25 42 46 64 75 70 76 80 63 50 48 45 53 61 85 72 71 97 97 98 96 94 98 97 84 82 83 79 96 83 94 92 69 64 62 64 71 70 78 78 81
19 21 33 41 25 40 44 62 75 74 76 87 77 53 48 51 54 81 90 98 55 94 99 97 97 96 86 85 81 79 72 79 78 86 100 98 87 67 49 52 46 61 68 76 80
18 20 34 41 28 37 45 60 71 74 84 94 82 65 55 56 82 97 98 99 66 92 99 92 99 100 94 91 77 87 84 84 72 84 70 88 47 67 69 45 46 38 54 58 82
15 21 35 37 25 36 42 58 72 76 82 95 90 74 63 70 93 97 99 99 88 92 90 94 91 94 91 95 86 75 63 80 78 67 78 85 74 51 56 52 49 57 59 74 78
14 20 34 36 28 36 42 63 80 79 95 92 88 68 64 76 90 100 100 97 99 87 87 98 94 98 98 85 78 60 74 87 84 76 71 64 68 48 62 62 60 44 51 79 80
13 19 35 39 31 35 41 62 78 94 91 100 86 77 66 76 97 97 97 86 95 96 98 99 96 98 89 97 96 83 79 86 86 85 60 71 76 54 57 58 53 47 44 70 84
13 20 31 40 35 35 42 56 87 91 94 94 95 87 94 95 96 99 100 75 73 74 85 98 98 96 92 85 89 87 68 62 61 62 49 73 63 52 46 38 40 49 49 41 55
12 22 32 42 38 36 43 61 76 90 88 92 100 98 97 88 90 94 99 77 74 83 92 85 97 96 88 94 94 92 88 65 68 71 62 56 57 42 37 36 39 42 48 48 47
15 21 33 42 44 40 48 61 80 89 96 99 86 91 96 96 97 87 68 68 77 74 88 83 98 98 93 96 94 91 85 73 67 74 57 50 50 33 42 37 36 35 33 39 43
18 23 29 50 45 48 53 68 83 86 93 98 90 98 84 89 85 88 89 84 96 99 86 87 90 99 92 96 92 87 88 80 71 66 46 41 34 44 46 42 42 39 35 36 36
17 28 28 46 54 50 59 67 75 86 98 97 96 93 95 84 78 81 87 92 97 94 95 87 86 99 99 93 91 93 91 81 70 72 73 60 39 42 42 48 44 44 44 42 38
17 22 32 44 61 58 60 68 80 90 96 93 92 88 88 87 91 80 83 93 90 96 89 88 93 97 98 92 86 94 88 80 87 78 87 58 41 39 36 45 42 42 41 47 48
16 21 29 45 52 62 65 73 77 85 93 88 87 86 82 79 81 87 88 96 85 95 87 77 72 76 69 64 73 80 64 71 75 91 72 68 53 48 43 44 45 46 39 43 50
14 16 19 34 51 56 69 79 79 79 82 89 82 79 80 74 73 77 82 94 90 92 88 81 79 71 69 68 63 62 65 66 71 66 80 64 60 62 43 40 38 36 43 55 51
13 16 14 19 38 53 65 78 83 81 78 80 79 80 76 73 65 75 80 88 86 89 94 88 82 76 72 73 78 77 74 70 69 68 90 88 76 64 48 55 46 49 58 66 69
16 17 16 17 25 43 61 65 74 87 83 82 84 88 87 79 72 76 83 83 84 88 87 84 82 79 81 70 73 73 50 61 60 54 52 77 41 50 54 63 64 60 64 60 73

GFSSW_700_rhum_084.txt.gz
RH
10 12 23 24 36 31 23 26 26 29 36 43 38 26 18 13 19 55 51 66 93 83 99 74 20 48 61 78 99 98 98 89 73 53 54 52 52 39 46 49 43 46 64 74 55
11 12 18 21 34 36 25 28 30 34 43 48 35 22 17 23 36 74 87 96 74 87 97 94 37 56 72 62 94 99 100 82 62 59 67 69 56 43 40 53 44 36 49 52 63
12 13 20 21 34 42 27 31 31 39 49 51 31 23 29 40 59 80 82 88 80 94 83 98 91 59 76 78 97 98 97 85 71 68 88 83 61 48 44 69 47 26 38 42 44
14 14 20 25 38 44 28 30 35 44 53 52 30 29 29 42 98 87 93 95 88 86 83 99 82 85 75 84 83 99 94 78 71 77 92 85 70 57 42 66 58 38 33 43 47
16 15 17 29 41 44 30 31 40 51 56 55 33 33 27 39 97 64 84 82 64 69 81 98 77 98 86 61 81 93 89 79 78 96 77 87 79 63 44 51 52 45 39 40 42
18 15 17 24 39 42 32 29 43 57 59 58 39 36 32 82 74 45 57 63 63 63 79 95 90 83 87 92 94 91 75 84 72 97 100 95 92 76 55 43 44 46 43 40 44
19 16 16 23 36 39 30 31 43 61 61 61 46 44 39 81 46 38 52 54 60 92 88 95 98 96 97 90 85 85 75 92 89 84 97 93 93 82 69 54 44 48 48 46 54
18 13 16 23 32 40 25 40 50 64 63 60 51 48 49 62 48 42 66 97 61 75 98 88 95 98 92 97 74 96 78 73 71 91 92 82 85 80 72 67 61 60 53 54 51
15 10 16 24 32 40 27 42 58 64 60 59 47 48 92 63 58 55 52 58 56 62 97 97 97 97 86 97 91 88 87 76 74 83 79 72 71 81 75 73 67 62 58 72 58
13 10 17 27 33 33 36 42 62 65 65 67 69 62 84 92 54 57 58 65 80 55 95 99 97 97 83 99 92 86 83 73 79 69 91 76 77 76 90 78 78 75 62 75 61
9 10 17 29 35 30 37 46 66 73 71 81 73 67 99 44 38 44 52 58 86 71 94 98 95 90 95 70 74 69 61 66 72 70 88 86 74 87 75 86 77 78 66 60 76
7 11 18 31 35 33 36 49 69 70 79 90 66 50 42 41 45 79 60 73 86 94 97 98 97 99 98 88 66 64 58 73 65 74 75 68 87 74 70 78 59 60 67 64 64
6 11 18 31 32 34 36 51 74 72 94 97 69 57 52 68 91 82 68 80 93 95 98 98 99 84 89 94 91 75 61 94 88 93 83 73 73 72 70 73 65 44 48 58 66
7 12 19 32 33 30 36 60 70 72 97 99 100 72 67 87 99 88 82 82 97 94 97 97 97 88 88 81 74 78 59 66 72 66 66 69 57 50 42 46 43 40 40 52 66
8 13 21 34 32 32 40 67 68 81 91 96 80 70 83 94 95 97 85 86 89 85 81 96 95 99 98 96 86 78 64 67 68 69 71 68 68 43 48 56 54 44 41 44 73
10 16 23 34 31 34 46 68 73 98 92 84 74 93 98 89 100 94 100 94 96 83 97 98 81 71 79 91 82 96 76 75 71 66 68 60 62 43 48 50 52 55 54 48 49
12 19 23 32 32 34 50 67 92 87 83 78 85 99 95 94 97 99 80 84 98 94 99 92 89 74 87 84 72 75 68 74 82 84 78 51 53 54 48 40 40 50 56 60 56
13 20 26 28 36 37 55 66 87 94 97 77 79 90 97 92 80 82 86 92 92 82 92 89 95 88 87 90 79 79 55 62 65 77 62 52 51 44 41 45 47 46 39 50 64
15 20 25 33 39 40 52 96 87 80 80 84 88 96 84 61 75 91 92 70 80 84 91 86 97 100 84 87 79 74 71 70 65 51 60 56 46 47 46 38 36 29 30 37 49
17 20 25 36 38 45 46 69 77 84 96 84 99 90 80 63 77 81 88 68 67 70 86 91 85 95 95 84 80 78 79 62 59 73 48 49 42 39 42 41 37 35 33 33 38
16 18 26 37 42 46 74 79 78 87 82 96 87 80 73 69 71 81 83 77 62 63 70 88 87 94 97 92 85 85 88 75 62 59 70 56 40 35 40 42 38 34 33 32 32
15 16 26 35 46 51 95 65 63 83 90 86 84 83 83 82 81 84 83 82 84 73 81 85 83 93 92 76 79 77 81 76 71 67 55 54 49 44 40 36 39 41 39 36 33
15 15 26 32 49 66 64 67 68 81 88 86 87 86 87 88 88 89 89 76 79 81 90 94 88 84 90 86 77 88 79 83 77 71 68 69 44 46 42 38 38 38 40 39 36
14 14 21 31 43 89 75 68 73 78 82 80 85 77 80 84 82 87 81 72 77 85 84 83 89 80 86 84 83 82 70 72 82 85 76 68 48 47 46 45 44 40 51 44 39
14 14 15 21 36 51 92 88 90 84 84 81 77 81 85 80 88 93 95 79 78 83 84 82 83 86 80 71 68 74 68 83 84 75 87 63 66 53 53 51 54 56 58 55 53
14 14 15 16 22 43 73 84 97 85 83 88 90 74 74 84 82 90 94 88 83 80 88 84 90 80 73 70 69 65 64 62 71 77 88 77 69 44 45 51 54 58 59 66 63
15 16 18 15 21 45 67 100 100 82 76 98 93 86 83 71 70 72 81 88 97 95 85 93 88 83 83 79 70 65 46 45 48 57 61 83 58 54 68 72 76 73 62 46 52

GFSSW_700_rhum_090.txt.gz
RH
8 9 8 7 7 9 14 27 37 35 25 24 24 30 41 45 41 32 23 22 21 23 21 17 32 32 52 35 79 100 100 96 82 65 48 43 52 41 41 41 47 52 54 58 62
8 9 9 8 8 10 15 29 39 35 26 28 28 40 50 47 35 28 26 22 20 29 70 54 42 65 53 29 82 98 99 98 78 67 51 47 53 46 40 42 49 58 70 74 68
8 10 9 8 10 12 18 29 40 34 28 31 38 53 54 42 33 29 33 58 64 65 76 95 70 70 77 74 74 70 100 100 88 70 53 57 55 50 42 39 44 58 56 59 72
10 10 9 8 11 12 22 28 41 33 31 38 54 58 52 41 33 34 41 39 51 63 74 88 88 86 88 86 73 99 97 99 92 75 64 60 54 57 50 45 44 55 64 70 62
19 8 10 9 10 13 25 31 41 29 38 53 61 58 50 40 35 38 38 27 46 86 86 95 85 92 97 80 92 92 92 98 100 83 72 62 57 54 52 48 47 48 54 67 80
30 8 9 8 10 16 26 38 33 36 47 63 62 56 48 42 46 52 38 40 84 94 96 90 73 82 98 84 89 72 94 97 99 100 83 77 64 60 56 52 48 48 44 60 69
38 10 9 8 11 18 28 39 32 44 60 64 60 55 45 45 54 46 43 52 73 80 85 96 89 97 99 76 66 89 88 76 99 100 100 92 83 65 62 54 52 49 51 46 46
58 11 9 8 12 23 33 33 36 52 64 63 62 47 42 40 50 65 55 58 66 73 73 94 98 92 98 88 72 98 95 97 97 99 99 95 94 80 78 73 64 56 45 49 46
61 14 9 8 12 26 33 33 39 60 65 68 55 54 56 58 74 56 52 55 77 81 84 91 96 97 100 99 84 100 91 91 99 98 100 98 92 91 80 76 71 58 47 41 48
69 18 9 9 14 28 31 35 49 66 68 61 52 55 57 53 61 50 47 52 89 87 89 89 95 96 99 97 94 97 87 88 96 99 99 99 89 96 91 77 79 74 51 45 43
64 18 8 9 16 28 30 38 58 71 74 62 44 45 46 55 62 46 57 62 97 100 88 95 88 81 95 98 82 75 78 76 77 82 88 87 92 93 96 88 86 91 71 54 50
65 16 8 9 19 26 30 40 65 72 73 60 58 60 78 87 95 85 61 87 96 96 99 93 67 92 97 99 93 83 63 76 84 74 72 80 93 100 94 87 70 87 78 64 51
75 16 7 12 22 26 30 50 62 66 66 61 64 84 95 93 81 64 64 87 96 97 99 94 73 88 98 99 91 78 60 66 88 99 94 74 74 72 91 90 80 90 75 72 62
94 16 8 15 24 24 33 56 62 68 72 48 71 92 92 72 74 62 92 97 97 98 98 86 82 79 98 94 74 83 68 69 77 91 99 92 90 66 60 76 91 61 56 51 60
99 12 10 16 24 27 39 53 69 74 71 51 75 82 84 76 79 89 90 94 98 100 99 99 92 97 100 88 77 68 75 73 73 88 99 99 92 60 48 57 55 54 48 47 54
96 10 13 20 23 26 46 58 69 64 80 62 79 83 80 88 97 88 97 97 98 100 100 99 99 99 91 84 73 77 86 92 84 99 95 76 90 41 46 33 28 34 37 41 44
84 10 16 21 23 29 54 59 58 67 48 57 81 96 92 93 94 85 81 88 92 93 95 100 94 100 79 81 89 72 79 98 98 97 77 68 83 46 41 43 42 46 42 38 33
51 11 19 21 28 37 53 61 54 50 53 62 73 77 84 80 75 88 84 90 79 77 88 95 98 97 99 90 98 87 86 70 90 89 68 70 70 46 50 49 50 45 44 40 44
24 14 20 21 30 44 54 58 37 34 43 60 64 55 54 71 77 78 77 84 85 72 73 66 95 95 98 98 96 87 87 68 59 63 60 56 50 44 48 47 45 46 45 42 39
12 18 24 24 32 48 50 54 50 59 36 54 76 57 67 67 78 76 70 66 84 73 68 66 79 83 84 93 90 75 67 60 58 70 64 65 54 38 40 40 42 41 39 37 32
12 22 24 29 36 50 52 57 59 55 49 60 85 55 71 80 83 87 80 59 65 83 70 71 67 78 76 73 78 78 69 64 63 63 65 68 51 42 41 41 42 37 37 30 30
14 22 26 33 44 49 46 57 66 57 60 61 75 54 68 79 81 76 75 80 69 66 93 88 83 97 83 79 69 70 71 69 59 64 62 62 48 40 42 44 38 34 35 34 35
17 20 29 37 45 38 50 63 71 58 62 60 74 82 78 84 81 86 77 68 69 55 74 78 86 93 79 80 77 71 67 72 68 78 74 69 46 47 47 44 39 43 45 46 44
23 25 30 42 46 43 41 53 70 75 62 57 58 78 74 88 83 77 76 69 74 70 69 71 74 73 80 80 78 69 60 66 79 83 68 64 46 47 48 48 49 55 55 55 49
20 20 18 26 39 38 43 44 61 69 77 77 70 75 82 80 84 84 79 71 77 82 80 76 76 78 80 81 81 74 81 65 63 65 81 50 61 51 54 54 52 59 63 61 60
18 19 17 23 46 46 46 46 54 65 69 75 77 79 76 70 75 77 79 73 80 82 78 79 78 73 69 71 74 71 66 66 73 73 74 62 55 49 49 55 54 55 56 57 61
20 20 18 27 45 52 43 44 51 58 69 72 77 72 80 78 80 78 80 79 84 84 80 79 74 70 72 78 76 64 59 60 58 57 56 56 50 51 53 56 56 55 59 60 63

GFSSW_700_rhum_093.txt.gz
RH
46 39 8 8 8 8 7 10 19 21 30 32 25 25 26 35 44 46 37 33 29 26 23 19 19 24 28 35 31 59 99 100 88 83 59 43 41 40 46 47 46 46 50 59 74
92 60 13 8 9 8 9 12 21 22 33 31 27 28 33 47 51 45 37 32 28 62 61 26 23 23 40 32 47 77 100 99 97 92 74 47 43 42 45 45 51 56 52 61 62
90 83 23 10 9 10 12 15 23 28 35 31 28 34 47 55 48 40 40 39 42 36 47 40 38 71 68 71 45 77 87 88 88 94 78 60 46 50 46 44 43 50 53 56 54
99 94 32 11 11 11 13 19 24 36 36 28 34 48 59 54 42 41 34 36 39 35 46 55 52 87 70 68 56 75 77 80 100 93 82 66 53 51 51 46 44 47 47 52 72
100 97 80 17 12 12 16 24 30 38 28 32 48 61 58 52 43 38 38 40 30 38 57 75 55 94 89 78 77 79 80 60 100 89 98 74 57 51 55 50 53 56 57 54 56
100 99 91 51 13 13 17 28 36 31 35 42 62 60 58 45 39 36 40 36 49 76 92 95 81 75 83 85 81 72 74 89 86 99 99 79 63 56 61 56 56 63 57 58 65
100 100 97 75 16 13 20 34 34 33 40 60 62 62 50 44 37 42 40 44 60 79 94 98 96 96 73 70 86 90 87 96 88 98 100 92 68 62 59 58 65 61 68 70 70
100 100 98 94 19 14 26 38 32 36 55 64 62 56 54 48 54 49 43 51 69 83 83 76 99 85 76 84 86 88 100 90 97 98 98 100 90 72 59 56 55 62 60 60 72
99 100 98 85 21 16 31 36 33 45 65 62 49 48 62 54 50 59 48 42 59 98 89 94 97 91 83 99 96 80 96 79 94 94 99 100 99 93 71 59 54 52 52 53 59
100 100 100 76 23 17 33 35 37 60 66 54 52 50 54 49 61 43 43 48 64 89 95 95 97 96 86 99 96 86 98 93 87 97 98 99 100 97 79 64 58 55 52 51 54
100 100 100 77 21 19 33 35 43 64 60 47 61 62 74 76 74 46 52 69 77 93 99 99 99 92 97 90 93 72 84 88 98 99 97 93 96 100 93 75 68 64 60 55 45
100 100 100 86 19 24 33 34 57 61 44 60 66 76 81 77 52 54 46 76 94 96 99 99 96 93 97 99 88 73 79 79 99 93 93 92 97 98 95 81 75 73 64 61 57
99 100 100 96 18 26 32 38 55 49 46 54 59 64 67 56 49 61 83 92 96 98 95 99 96 81 96 97 86 80 73 78 75 99 96 94 95 91 88 80 74 80 64 60 66
100 100 100 97 16 28 31 44 61 46 37 45 61 65 72 62 72 88 97 98 98 98 100 98 88 92 97 98 86 72 71 63 64 84 95 89 96 99 84 59 71 79 68 55 57
99 100 100 73 20 28 32 52 61 57 52 36 64 85 88 81 82 96 97 100 100 100 100 94 91 96 99 91 75 70 70 58 68 75 96 99 84 71 61 73 79 70 53 51 52
100 99 100 46 23 28 40 57 62 44 45 48 60 85 96 98 97 98 99 94 92 100 98 99 99 95 90 85 71 80 76 78 84 74 94 83 86 51 53 49 42 44 45 41 44
100 98 100 27 25 30 46 53 53 41 34 55 72 86 91 95 89 96 97 97 98 96 99 98 98 96 94 89 82 82 80 98 94 96 88 75 74 49 45 47 36 32 37 38 41
100 100 99 19 27 33 51 65 56 29 36 53 68 78 81 79 76 83 78 81 98 95 89 97 89 90 89 77 97 94 71 75 91 95 76 86 71 51 38 36 45 43 35 34 31
100 100 93 23 29 37 57 65 30 27 32 50 59 61 68 72 68 71 78 81 79 72 78 85 98 94 91 91 92 90 72 69 61 69 66 78 64 49 50 50 47 43 40 38 38
97 100 41 28 35 39 60 56 27 29 34 43 57 58 70 73 73 62 64 78 87 80 64 83 94 99 97 98 88 76 74 64 55 75 57 63 55 37 39 50 50 46 44 43 41
99 90 25 31 42 42 58 62 35 29 38 39 40 62 83 85 76 72 59 61 78 80 71 66 70 94 91 87 90 77 70 61 62 63 63 73 49 47 42 44 43 44 46 44 34
100 57 26 32 44 44 51 58 51 38 36 41 44 65 74 83 80 69 68 67 50 71 66 66 78 88 85 76 73 74 68 63 52 68 62 61 51 45 40 49 47 38 38 38 38
99 24 34 37 43 38 46 67 58 52 53 52 47 61 74 80 77 76 67 68 54 49 59 64 74 83 80 77 68 67 68 72 69 67 68 64 46 48 48 47 41 43 43 46 44
74 28 42 42 41 46 43 70 71 68 66 55 47 59 69 79 77 71 68 69 67 63 60 62 65 61 65 69 72 73 69 68 74 77 69 60 46 43 48 52 51 49 48 48 48
22 27 20 30 40 42 46 68 63 69 71 62 56 56 59 77 78 69 63 64 70 71 71 68 66 76 81 82 79 74 77 67 62 63 71 56 56 51 56 58 60 58 54 57 62
30 23 20 24 37 46 53 64 65 62 58 54 58 68 66 60 69 66 63 63 64 75 77 77 78 74 74 70 69 68 69 68 68 68 57 57 56 55 49 48 51 56 60 57 54
30 24 24 25 42 52 46 55 72 66 61 63 63 67 66 68 61 63 68 72 69 77 75 77 74 69 72 76 70 64 62 60 60 59 59 59 52 47 44 43 43 44 47 47 47

GFSSW_700_rhum_096.txt.gz
RH
100 99 98 92 30 8 8 9 11 15 15 20 30 32 29 30 31 32 40 39 37 34 31 28 24 24 26 25 37 52 96 97 96 100 77 62 54 44 46 50 58 54 56 70 84
100 100 100 100 85 14 10 10 12 19 19 25 32 31 31 31 35 44 42 42 38 39 38 39 27 24 24 32 40 60 100 94 93 90 95 71 66 46 44 49 61 57 52 59 70
99 100 100 100 98 47 12 14 13 22 24 33 35 32 32 37 45 48 46 43 39 37 34 34 45 39 32 52 50 64 68 34 84 90 96 88 78 60 44 52 57 50 50 60 64
98 100 100 100 98 95 21 16 15 24 30 34 30 34 40 51 52 52 45 38 34 32 36 30 34 42 42 72 60 71 48 72 77 93 89 96 81 69 46 46 51 52 46 56 85
100 100 100 100 100 100 45 16 19 28 37 30 36 46 57 57 55 51 43 38 37 35 28 29 34 49 44 63 80 80 46 64 69 72 73 100 85 76 47 45 50 58 56 72 65
99 95 100 100 100 100 46 15 25 35 34 36 50 60 58 57 52 45 40 38 35 43 68 80 82 86 78 66 82 73 53 76 62 64 85 98 92 87 56 50 57 64 65 71 60
99 99 98 100 100 99 46 16 29 34 36 48 60 59 55 57 45 39 37 44 54 59 63 87 98 99 84 86 83 82 87 71 77 81 99 99 98 80 66 58 65 62 71 72 73
100 97 100 98 100 100 39 19 32 34 42 60 59 49 48 47 47 53 50 50 49 55 79 92 96 98 100 85 90 93 99 84 75 88 90 99 97 84 70 65 65 61 70 76 63
100 97 100 100 100 99 33 24 33 38 54 59 50 41 48 49 51 53 59 48 39 55 89 96 96 97 99 96 94 89 90 86 84 83 97 98 99 94 72 70 66 66 71 80 84
92 100 100 100 100 100 23 28 36 48 54 43 47 54 58 69 68 77 47 34 40 64 87 97 97 95 96 96 93 91 87 80 88 87 98 91 98 97 92 77 71 71 64 70 76
94 99 99 100 100 99 18 31 38 47 45 43 65 66 63 82 72 72 42 33 44 76 96 98 97 89 65 63 90 93 75 78 82 82 83 95 99 98 100 80 72 65 61 55 56
93 91 100 100 100 89 18 31 46 29 46 57 66 56 57 62 53 51 46 53 72 88 97 95 93 90 95 82 93 93 78 96 92 80 85 93 97 98 99 89 82 64 58 54 49
34 76 99 100 100 64 23 31 50 29 45 58 54 49 65 61 75 95 95 91 93 86 94 100 99 94 94 99 98 80 88 91 91 86 99 81 91 92 97 92 90 74 61 55 48
43 88 99 100 99 53 24 34 52 38 37 48 61 76 77 73 94 96 99 99 100 95 96 98 98 94 97 99 96 72 70 65 63 98 98 97 92 88 91 88 93 78 64 57 54
84 94 99 99 99 32 29 47 53 32 42 42 62 73 88 98 98 98 100 98 96 95 99 98 99 91 98 88 90 67 82 69 67 66 69 88 88 84 94 96 94 78 71 63 58
93 95 99 99 98 35 29 54 41 42 38 40 56 76 91 96 99 89 82 92 98 99 98 98 92 97 99 92 84 80 74 73 79 68 81 86 73 60 79 77 65 61 68 65 67
100 96 99 99 83 30 33 56 51 42 38 52 68 78 86 93 98 100 93 89 97 90 84 95 99 97 88 86 76 75 69 92 87 82 87 77 68 54 53 75 49 44 43 61 63
100 98 99 99 48 28 39 56 60 35 40 50 69 75 78 81 88 91 97 93 87 80 78 82 96 91 88 84 98 88 69 74 91 94 80 85 80 51 48 46 47 44 37 44 53
99 98 99 99 35 32 51 61 41 26 32 50 61 63 71 73 72 76 80 84 91 71 73 94 99 100 90 95 97 89 71 62 66 73 79 85 67 49 51 54 53 51 48 44 46
98 98 99 95 34 40 54 57 42 25 30 43 46 51 66 68 67 61 66 79 81 71 78 89 97 100 99 95 84 79 67 63 53 75 58 64 60 44 44 53 49 48 45 45 46
98 99 98 53 35 47 56 57 37 37 36 41 37 56 66 70 74 65 64 77 82 74 71 68 78 99 91 96 78 69 62 58 60 60 64 67 48 48 44 48 50 46 46 45 43
98 99 98 44 44 46 53 52 38 36 39 40 45 57 72 66 65 62 64 61 76 76 70 63 86 89 98 92 75 72 66 56 49 64 60 58 53 50 43 49 50 44 37 39 39
99 99 98 39 45 43 50 51 43 32 40 47 60 58 62 61 60 59 66 56 53 63 71 72 75 81 80 76 70 74 68 64 57 57 58 58 51 51 50 47 43 39 39 38 38
99 97 75 47 41 50 47 51 53 48 38 51 57 58 62 65 64 60 62 62 53 56 66 66 66 60 67 71 71 67 64 64 63 61 59 48 48 44 44 44 47 48 46 45 43
99 87 47 31 38 48 51 57 51 52 58 55 60 54 55 59 62 59 59 61 66 64 58 61 78 83 79 77 76 73 70 64 64 66 66 56 53 45 48 53 55 53 49 48 47
97 32 22 25 35 49 51 58 57 49 51 55 52 60 63 61 62 58 62 62 68 75 68 69 72 72 68 70 71 72 72 70 69 70 68 64 55 56 56 54 51 49 46 45 52
71 28 24 27 39 46 43 54 62 55 58 58 60 67 68 64 57 59 64 64 70 74 71 68 69 66 62 65 61 57 62 62 63 63 61 58 52 48 44 41 40 40 41 44 47

GFSSW_700_rhum_099.txt.gz
RH
97 97 94 99 100 100 98 85 21 11 11 13 18 23 32 33 31 29 30 33 37 36 33 35 34 31 27 25 30 64 79 93 94 94 76 70 88 67 64 67 54 51 60 60 82
98 99 99 99 99 100 100 96 48 10 13 18 24 33 35 33 30 32 36 41 45 42 40 37 34 32 29 29 38 70 85 72 70 84 85 72 79 80 75 64 60 51 57 66 70
99 95 95 98 99 99 100 99 32 11 18 27 33 40 35 29 33 39 48 63 59 44 44 44 53 54 58 48 66 75 46 52 47 90 99 80 86 79 90 68 53 56 66 65 65
70 88 100 100 100 98 100 99 36 13 25 37 35 34 33 38 49 59 55 50 46 39 32 31 28 28 27 46 55 76 43 52 47 95 83 91 92 64 88 69 58 58 73 78 77
81 86 99 95 99 100 100 99 61 15 32 37 36 39 49 57 58 58 55 47 34 27 28 29 29 31 28 27 46 56 52 62 56 71 84 81 94 94 87 68 68 67 77 73 78
56 87 99 94 99 98 100 99 35 27 33 36 41 58 58 56 49 45 42 34 29 28 26 29 40 57 57 36 55 37 55 60 84 71 77 69 84 95 79 76 69 72 66 63 76
33 82 96 99 100 100 100 99 28 30 34 41 57 60 53 42 39 41 40 34 32 34 42 54 63 88 86 79 58 58 81 79 72 74 74 88 67 95 99 86 65 72 68 72 73
17 80 97 98 100 100 100 99 27 32 42 56 60 46 37 35 40 42 41 39 35 43 44 55 78 94 94 96 75 68 99 95 46 76 88 93 95 86 97 87 74 77 80 74 80
4 72 89 99 100 99 99 98 32 36 52 56 44 41 37 46 51 52 62 55 47 38 40 67 92 98 97 96 87 85 92 90 73 66 84 71 92 75 100 84 78 65 84 77 73
5 14 82 97 100 99 100 78 34 48 48 42 39 46 47 56 58 52 53 41 24 33 56 82 95 97 95 99 93 94 90 85 92 67 88 67 70 92 100 94 83 77 82 80 73
9 6 57 84 100 99 99 28 35 49 44 42 46 48 37 37 50 41 38 37 31 38 56 84 97 96 87 78 82 97 78 73 82 84 83 84 74 91 93 98 98 84 82 83 78
11 8 28 56 96 99 99 36 42 33 45 49 53 53 47 55 76 91 82 72 69 66 79 100 92 98 87 76 80 96 83 83 84 89 82 83 72 81 77 87 100 81 85 93 89
14 15 45 40 81 97 98 38 44 39 44 44 57 62 60 65 88 94 96 96 90 88 92 95 94 96 94 70 88 96 78 90 97 99 99 82 63 83 93 100 93 92 84 83 79
19 19 58 54 100 99 70 38 52 51 39 45 64 76 81 79 85 98 90 85 95 90 96 97 97 99 98 85 94 90 85 67 72 76 98 80 91 93 97 85 98 91 77 67 65
23 20 100 58 100 99 48 44 59 45 45 43 64 74 85 99 99 96 78 90 97 98 98 99 97 99 100 92 95 75 86 68 82 65 63 92 94 95 100 95 96 95 66 65 60
21 32 84 84 98 98 47 55 58 41 37 44 65 81 84 89 99 91 85 99 99 98 99 97 94 98 99 91 93 57 85 76 81 64 82 84 66 77 82 99 99 84 71 66 65
18 72 100 95 99 97 52 59 51 40 39 50 69 79 89 91 100 98 92 98 99 94 96 98 99 100 94 99 91 81 77 83 74 77 80 78 67 75 73 98 95 96 91 83 86
97 73 98 100 98 84 59 64 57 33 46 56 64 79 88 93 94 91 86 91 88 81 90 94 98 96 93 89 97 81 64 66 85 87 83 95 74 79 66 93 69 54 48 46 69
98 98 100 98 98 82 69 71 43 32 44 55 59 62 72 79 81 82 78 88 84 77 81 82 99 97 90 83 77 65 60 65 71 79 80 81 56 61 64 80 61 51 52 46 49
99 100 98 96 98 61 72 64 53 31 46 53 46 53 65 67 68 65 72 85 90 83 88 90 97 97 99 96 78 72 64 60 57 71 71 62 56 52 56 55 55 53 49 48 48
100 100 98 98 93 72 75 68 49 30 44 45 34 51 59 70 64 63 72 78 79 76 69 76 80 94 93 89 78 68 62 55 58 58 58 57 54 51 51 54 53 51 48 46 44
98 98 97 98 77 71 69 66 45 30 41 37 39 48 64 66 63 67 64 68 67 63 72 79 82 94 95 85 75 69 60 50 47 59 56 51 61 55 53 54 52 46 41 40 39
95 98 97 96 76 60 66 62 43 38 37 31 42 50 58 59 63 63 64 54 56 59 63 67 77 74 75 76 73 62 66 56 48 49 55 52 58 60 54 50 48 48 47 47 46
94 94 97 89 56 56 58 56 48 41 36 30 37 51 54 53 58 58 64 55 52 55 60 58 59 57 68 71 65 59 62 61 56 47 50 51 58 52 54 55 57 56 51 46 44
98 94 86 70 47 52 56 51 56 44 40 33 41 46 54 49 54 55 57 59 61 56 54 63 74 68 70 69 68 69 67 65 65 63 56 57 50 54 49 46 49 50 53 54 52
98 98 93 37 45 48 49 50 61 43 30 31 35 47 60 62 59 54 54 54 58 65 59 57 67 67 65 65 68 72 70 67 66 64 65 62 58 59 54 52 50 50 50 49 47
98 34 34 30 40 49 40 55 66 51 43 40 41 54 64 66 64 58 56 54 58 65 66 67 65 66 67 62 57 59 60 58 62 63 63 59 59 53 48 46 43 40 38 37 38

GFSSW_700_rhum_102.txt.gz
RH
73 75 81 98 94 96 99 100 98 96 55 8 10 18 24 32 32 33 30 29 31 31 29 30 34 36 33 29 27 37 98 80 61 60 59 60 81 92 74 82 87 64 61 72 66
47 54 80 96 100 100 97 98 99 99 98 12 14 26 33 36 35 32 32 36 39 40 40 39 38 38 37 37 38 84 89 74 66 62 62 64 87 90 92 95 81 78 64 64 63
26 33 76 94 96 98 89 94 98 99 98 18 20 32 30 30 31 33 40 47 55 63 56 46 44 42 43 44 84 94 86 75 82 84 83 88 95 92 94 88 88 78 75 68 74
21 28 33 88 86 89 98 99 99 98 75 24 26 32 34 39 44 56 53 54 53 52 47 40 32 29 28 37 82 96 56 88 90 98 98 91 94 93 95 78 86 88 83 77 77
3 12 25 66 100 95 100 98 100 100 52 29 28 33 44 55 56 56 54 48 39 33 31 28 28 29 29 30 47 89 47 79 96 73 62 84 93 90 99 92 100 80 75 82 83
3 3 16 45 95 94 99 100 100 100 51 29 37 51 60 54 48 42 39 38 35 31 28 27 31 38 39 39 61 63 74 62 95 69 46 88 70 86 90 60 85 81 86 87 85
4 4 3 32 86 91 100 100 99 99 35 38 53 53 48 43 35 35 36 38 36 35 33 37 43 50 66 83 95 51 79 86 84 40 73 64 98 84 77 83 75 83 80 85 97
5 5 4 19 96 99 100 100 99 66 34 51 46 41 42 35 38 41 43 46 42 35 37 41 41 72 94 87 84 82 92 77 73 83 86 67 66 69 81 81 88 88 72 85 97
9 7 6 4 61 97 100 99 97 33 48 39 36 38 42 40 48 44 47 56 55 38 35 34 54 75 81 92 96 97 68 73 67 80 84 70 89 93 88 53 83 75 74 87 92
12 11 10 5 26 96 100 99 79 34 38 35 34 47 47 53 50 45 36 45 41 30 36 73 84 92 87 96 83 71 76 62 74 89 86 78 78 92 71 65 93 72 77 83 92
24 15 32 92 76 93 91 100 72 42 39 41 40 46 51 57 70 75 64 42 34 31 34 65 88 89 95 93 98 73 80 67 81 83 92 90 88 62 76 64 99 87 79 74 87
38 22 14 41 100 100 100 97 49 39 46 46 52 58 65 69 81 89 84 83 82 76 78 99 96 97 100 100 100 89 90 75 84 97 85 91 61 60 61 79 90 96 80 73 82
37 31 17 18 73 82 96 94 41 38 50 44 63 74 88 74 78 95 88 88 80 84 96 97 94 97 99 100 100 88 97 76 89 95 89 97 92 67 70 74 79 77 72 78 83
32 31 77 88 99 99 100 50 38 53 45 38 70 82 90 75 91 90 76 86 95 95 97 97 100 94 97 92 85 99 82 86 93 81 84 99 78 67 54 76 59 90 79 86 91
38 42 80 98 62 100 99 37 56 60 69 39 68 85 84 81 84 79 84 95 98 99 99 100 97 99 100 84 91 83 94 99 79 73 90 85 74 85 98 98 100 99 97 94 85
39 51 97 54 100 100 90 40 62 54 54 48 70 86 80 84 96 95 99 99 98 99 96 93 92 91 93 89 93 90 97 97 80 70 85 88 80 99 98 99 100 100 99 99 98
32 46 39 61 92 99 76 66 62 67 38 58 79 83 76 89 94 99 95 95 96 98 98 99 100 97 90 95 94 97 98 93 81 79 78 89 75 97 99 100 100 100 98 99 83
23 92 100 96 93 98 59 65 70 42 54 64 78 74 76 82 92 91 93 98 92 95 95 95 98 98 100 87 97 99 80 68 65 60 67 84 96 97 100 99 98 98 98 96 84
38 88 94 99 98 98 67 67 62 39 51 66 75 69 70 72 74 75 81 89 88 85 91 95 98 96 95 95 94 71 73 66 73 76 58 70 74 88 91 80 67 69 79 68 54
99 89 99 99 98 98 78 74 59 42 52 57 48 54 67 63 66 63 75 81 80 85 87 90 98 91 85 71 68 66 62 64 62 58 58 52 53 62 66 60 60 53 46 44 42
100 99 100 94 98 96 72 77 56 48 53 43 38 51 53 60 60 65 74 74 72 68 70 78 86 98 85 76 66 69 66 54 56 57 37 40 52 55 62 57 53 50 48 47 49
100 100 98 86 100 72 65 74 48 47 47 36 45 47 51 50 57 57 66 78 62 68 80 73 89 98 93 85 70 66 59 55 59 54 55 41 58 62 59 53 49 47 44 41 39
100 93 99 97 98 62 63 66 46 42 41 32 45 53 50 53 59 59 52 58 66 65 61 65 67 79 77 73 65 67 58 54 48 45 57 43 60 63 59 56 52 50 50 50 48
98 97 97 98 88 60 63 63 46 40 36 29 40 51 48 50 52 56 57 47 55 63 59 54 52 59 62 68 58 64 52 47 43 59 56 56 72 76 68 64 62 59 55 51 48
96 80 78 80 64 57 64 60 41 36 33 28 38 50 48 49 52 53 53 56 54 49 59 62 74 70 68 67 66 63 59 55 49 51 61 68 74 66 58 52 49 50 51 52 52
94 90 86 58 48 56 66 58 53 31 29 28 31 41 46 51 53 53 53 55 58 52 45 57 69 65 69 71 70 66 62 65 63 58 51 54 54 58 56 51 48 47 46 45 44
69 61 77 34 37 52 54 57 59 46 32 32 39 40 48 56 53 53 53 54 58 62 59 51 55 54 64 57 54 60 58 60 60 58 54 56 49 50 49 47 45 44 44 44 44

GFSSW_700_rhum_105.txt.gz
RH
10 42 87 65 91 100 100 99 92 94 88 88 89 55 13 14 19 25 28 28 29 27 28 29 31 30 33 32 70 98 100 71 58 52 45 43 46 64 64 83 75 79 83 88 94
4 14 61 52 62 100 100 96 88 98 100 93 92 20 18 21 23 26 25 28 30 30 33 36 40 35 40 51 91 100 95 69 57 52 47 44 45 47 54 83 69 88 82 93 74
3 7 12 37 49 81 100 99 91 94 94 96 95 25 24 20 26 25 29 33 36 42 48 54 55 53 49 86 90 96 88 76 61 55 59 54 50 60 75 72 94 83 87 91 95
4 3 3 14 40 62 91 100 98 97 98 98 88 34 25 27 54 44 50 51 53 55 53 50 46 42 70 77 82 83 82 79 76 72 90 84 91 87 88 91 76 80 98 98 90
3 3 3 3 14 62 76 98 98 97 97 97 58 31 31 43 55 48 44 38 36 30 33 35 33 75 72 58 61 66 69 74 77 81 86 90 98 85 86 77 79 84 98 91 90
4 3 3 4 4 22 70 87 96 100 100 84 42 34 41 43 42 32 30 29 30 35 34 30 26 37 38 73 78 66 58 59 64 70 86 83 81 88 84 94 85 92 69 100 87
5 5 4 4 4 25 72 90 96 99 95 58 36 40 28 44 33 29 31 34 39 41 45 52 34 40 88 96 94 93 88 72 65 69 78 85 82 81 75 96 83 94 96 94 88
9 8 6 7 54 55 84 95 99 100 71 36 36 24 30 34 30 34 36 42 49 54 47 48 38 57 93 83 83 100 96 87 61 60 70 79 73 60 69 94 84 94 91 74 82
28 15 9 10 8 25 97 73 90 82 39 37 23 23 39 38 36 37 43 53 97 65 59 59 66 80 93 99 97 98 90 74 63 48 64 78 80 64 67 75 56 69 69 62 80
43 33 13 11 8 15 73 99 96 56 40 28 25 36 48 44 44 47 50 55 58 83 74 62 81 88 84 100 87 91 92 61 57 44 65 76 84 75 72 71 60 45 66 58 74
51 46 20 89 45 82 99 100 99 70 44 27 32 42 49 53 67 80 91 80 69 65 100 100 92 96 99 98 94 100 79 68 72 42 84 65 82 84 91 67 64 70 68 50 72
50 46 28 67 76 99 99 78 94 56 34 40 44 53 60 66 78 92 98 100 100 100 98 97 87 94 96 93 96 95 81 76 62 77 71 65 74 73 77 45 43 70 81 79 72
53 41 22 14 54 98 98 71 53 47 37 38 47 68 87 87 86 100 97 96 99 97 97 97 94 95 98 88 90 93 87 82 97 77 74 62 72 86 76 63 42 54 92 77 73
44 35 22 30 45 69 87 98 61 41 34 34 57 76 84 92 89 95 100 100 98 97 97 95 99 100 94 96 94 72 72 94 91 74 74 71 65 89 91 75 62 74 58 70 76
45 47 88 58 99 87 98 80 45 44 71 39 67 81 90 92 97 99 100 98 100 100 98 100 99 85 95 95 91 89 86 91 94 69 73 96 99 100 100 99 60 65 66 67 76
39 42 95 74 96 97 97 52 54 39 69 48 71 88 89 90 96 99 98 99 95 96 99 95 99 99 99 97 90 100 97 93 98 87 65 88 85 99 99 100 100 89 97 80 92
39 68 95 96 98 98 99 57 44 77 38 57 83 90 100 84 84 91 99 96 97 98 98 98 97 86 83 96 95 98 98 93 89 93 72 88 78 99 96 98 100 100 99 90 100
29 35 63 84 98 98 96 55 83 52 51 68 85 80 86 75 78 90 97 97 93 92 99 86 89 78 79 97 98 96 92 83 92 82 72 84 96 98 98 99 99 100 99 100 99
26 90 100 91 98 98 74 93 70 43 59 78 74 76 74 63 65 85 91 99 92 87 99 98 96 98 96 83 82 90 79 62 67 52 60 86 93 99 90 99 100 100 99 99 100
91 99 99 98 98 98 82 89 47 49 68 72 62 67 61 71 74 76 82 82 81 88 94 93 94 90 81 77 84 69 58 70 64 52 57 79 98 96 86 82 96 98 90 86 88
74 94 99 97 98 90 91 77 44 58 62 54 70 66 66 70 68 78 84 85 71 78 85 92 94 80 72 85 79 85 74 62 58 52 36 47 60 73 68 78 75 62 67 70 74
73 98 95 96 100 95 86 61 45 61 48 40 51 49 72 52 79 78 91 70 62 76 92 83 95 96 76 67 67 91 87 70 64 41 45 41 65 79 78 63 66 53 52 51 50
62 74 95 99 100 97 57 56 41 51 37 40 47 44 44 55 78 70 44 60 65 57 64 70 77 80 73 71 70 79 74 70 49 58 60 44 66 75 80 79 59 49 46 47 46
74 76 81 88 81 95 52 52 42 44 36 34 46 44 42 58 49 61 66 44 54 57 51 55 75 76 70 82 63 78 74 49 49 58 52 61 74 76 77 61 58 55 53 49 46
72 76 73 75 51 46 51 58 37 43 35 32 46 52 54 69 67 52 51 60 46 53 54 69 76 58 63 63 62 61 60 68 48 67 64 66 76 81 59 53 52 50 49 47 46
78 73 46 69 34 41 49 56 59 40 34 34 41 43 47 53 48 76 49 53 58 48 55 58 64 58 57 57 62 56 54 69 59 76 76 77 66 63 59 55 53 50 47 45 42
64 71 70 27 27 36 43 53 46 36 32 30 34 54 45 46 46 46 46 49 56 50 41 39 47 70 68 51 53 55 48 50 50 53 62 64 58 52 48 47 48 52 55 53 48

GFSSW_700_rhum_111.txt.gz
RH
11 10 8 17 24 44 96 82 74 99 100 84 86 83 76 70 62 52 34 28 23 21 21 23 25 23 22 22 25 33 86 100 88 78 62 44 50 50 46 45 50 51 51 60 66
6 8 8 7 10 31 50 70 98 70 86 98 81 85 79 71 64 55 38 31 24 22 21 23 24 24 26 26 31 56 61 63 59 52 70 66 63 50 46 44 50 58 59 60 67
7 4 4 6 5 12 36 55 96 73 76 71 92 87 73 72 60 42 40 31 32 36 36 39 37 37 34 42 42 47 67 68 60 56 52 69 63 55 55 50 47 52 64 63 68
61 9 4 4 4 4 11 52 63 63 69 75 95 86 79 73 43 44 32 34 36 34 33 35 45 48 46 44 44 68 73 91 88 86 79 78 76 59 57 57 53 60 72 75 65
93 21 6 5 4 5 4 24 66 72 77 76 85 86 71 52 35 38 36 32 26 20 20 21 26 27 26 35 45 63 66 70 78 80 81 71 70 74 55 61 61 86 65 66 84
91 33 11 5 5 5 5 38 99 91 81 84 78 80 62 36 32 34 31 21 18 19 21 24 24 22 24 32 50 39 41 29 30 38 51 59 45 64 52 59 64 83 81 61 78
86 43 18 8 5 5 9 57 100 79 81 83 85 81 43 37 24 31 26 23 19 22 25 20 25 25 22 25 27 25 28 24 22 20 22 25 47 43 50 52 60 71 86 89 74
74 76 30 10 11 42 37 60 94 79 73 83 96 44 36 26 28 33 31 26 21 26 22 21 25 23 20 20 23 38 41 33 22 44 33 56 36 17 14 26 49 54 78 75 60
83 90 44 11 76 97 80 67 98 96 89 91 49 34 26 31 36 39 36 34 23 22 17 22 22 18 20 30 58 60 65 66 74 66 73 79 68 35 34 27 27 41 50 56 60
88 72 42 12 57 100 98 100 88 98 84 47 36 27 38 44 49 55 58 62 56 43 40 52 45 55 68 88 89 80 97 94 88 51 67 74 81 68 56 47 45 50 39 51 45
74 61 36 15 12 50 94 100 98 94 76 41 31 38 43 51 59 70 83 82 76 76 80 83 71 63 78 90 97 100 100 93 76 56 84 75 72 56 50 48 59 62 69 68 27
68 51 78 80 18 20 75 82 97 83 59 39 42 63 67 74 68 83 76 76 82 87 90 88 71 80 94 97 98 97 96 86 72 61 91 84 70 62 42 52 76 68 59 66 45
41 45 97 99 70 69 87 98 100 59 47 54 57 74 77 84 94 97 89 90 89 87 92 98 92 98 98 97 95 86 87 77 84 75 56 64 55 44 46 70 81 82 70 60 60
43 42 96 79 98 95 98 100 96 48 42 54 68 75 74 94 94 90 87 75 82 86 89 83 85 97 98 97 96 87 68 86 92 100 84 80 90 52 58 74 79 84 65 46 39
42 38 46 41 60 92 96 97 61 52 78 71 76 86 91 90 97 97 98 96 99 92 91 92 85 98 92 86 97 74 88 82 98 99 97 63 97 93 83 82 87 87 88 67 52
36 22 32 52 90 93 89 52 42 58 72 69 78 87 91 95 97 93 99 100 97 96 99 100 99 91 99 91 98 96 92 97 98 98 98 80 88 96 96 98 95 95 91 67 81
29 57 90 70 79 84 62 47 59 55 67 73 75 80 85 93 91 91 100 98 98 94 92 98 74 93 82 78 85 98 97 96 97 96 98 88 98 98 98 98 85 95 91 93 89
58 74 85 86 58 56 51 64 55 88 90 77 75 75 74 84 89 92 92 86 95 99 96 87 72 80 82 97 98 99 98 98 96 97 98 98 98 98 99 100 98 89 96 98 100
48 73 81 75 51 50 47 41 76 80 80 77 80 80 74 74 76 90 92 80 76 90 83 88 78 86 95 98 98 99 99 97 98 89 89 98 98 97 98 99 99 99 99 100 100
72 76 74 55 43 42 42 62 70 72 75 76 71 66 67 71 74 78 85 75 68 82 88 97 88 76 91 75 80 84 85 84 84 96 96 97 98 98 97 98 99 99 100 98 100
74 72 40 40 46 41 52 72 72 60 60 73 71 70 65 73 75 79 72 75 78 77 90 95 96 72 67 72 75 75 72 67 74 72 90 93 98 98 97 98 100 100 99 100 100
71 54 49 42 36 39 53 52 49 45 57 60 62 65 64 71 68 63 62 64 66 78 86 85 84 69 66 69 65 70 67 61 67 63 62 86 98 99 97 95 91 92 90 86 83
66 43 34 35 33 36 43 50 38 39 43 46 60 68 64 68 68 52 49 58 58 58 64 72 70 74 73 53 45 62 57 55 63 72 78 82 97 96 80 77 74 62 57 55 52
60 45 32 36 25 32 42 41 31 38 47 49 62 55 69 60 55 54 56 53 55 54 56 56 69 65 72 72 70 68 59 44 42 69 83 88 95 79 67 58 55 54 53 52 49
53 53 31 29 28 24 32 33 32 27 34 48 51 44 47 55 60 39 45 54 44 54 59 55 56 60 64 63 60 59 69 63 63 60 61 79 66 63 57 54 50 46 43 41 38
83 59 34 25 24 22 23 28 26 25 25 29 33 29 37 32 35 39 39 38 43 47 50 57 53 67 51 56 61 48 69 61 54 59 68 66 59 56 51 47 44 41 39 34 28
45 67 45 24 25 26 21 22 20 23 21 19 22 25 36 32 26 30 32 40 42 40 37 42 52 52 60 43 54 60 42 51 53 49 50 51 46 47 47 41 32 24 21 14 10

GFSSW_700_rhum_114.txt.gz
RH
20 13 14 13 27 57 88 98 99 86 77 96 92 90 76 67 66 59 57 45 40 37 28 23 20 20 19 18 17 15 26 17 30 30 19 14 51 57 61 58 52 48 53 64 57
58 19 10 10 10 13 91 61 89 99 77 96 90 68 68 70 67 63 51 44 37 31 26 21 20 22 22 23 26 27 26 32 34 40 37 24 27 29 55 58 52 47 47 64 72
98 62 14 7 6 8 12 37 62 80 96 75 77 72 79 67 66 53 45 39 32 28 26 26 26 25 26 27 28 36 35 34 39 46 45 34 38 49 45 51 51 46 48 59 85
96 88 60 9 6 6 6 19 85 70 99 77 69 79 78 72 57 47 37 31 29 24 22 19 28 35 36 34 33 38 36 41 43 50 50 48 50 27 41 41 50 51 58 61 77
98 98 90 45 6 5 5 6 50 76 72 67 58 72 86 67 54 40 32 29 27 19 14 11 15 22 30 32 37 42 31 35 37 37 37 33 34 33 20 30 46 53 60 85 82
97 95 81 59 37 6 5 5 35 60 79 84 84 84 81 67 48 33 30 27 22 17 13 12 16 20 21 21 22 18 18 17 19 22 32 45 31 43 26 29 39 52 53 80 92
96 94 45 38 42 9 8 31 40 82 95 78 85 80 83 57 39 29 29 25 22 17 15 17 23 25 22 22 18 17 19 19 18 19 24 28 24 18 20 20 30 49 56 60 80
97 78 44 16 22 10 48 40 100 98 96 77 79 88 44 34 27 30 32 28 21 18 14 16 20 26 23 21 22 21 28 27 22 37 37 53 36 25 22 25 14 29 44 59 75
93 68 36 73 39 40 64 89 92 89 79 71 87 39 31 29 33 38 38 34 30 25 22 22 21 30 24 27 41 48 56 44 36 44 62 76 79 44 38 51 38 16 22 39 60
79 63 38 90 98 86 53 97 96 95 98 76 40 28 39 41 49 52 57 61 54 54 56 65 67 57 65 76 69 73 80 54 62 38 64 71 57 55 42 59 56 33 18 18 39
64 45 33 51 97 99 68 100 91 100 78 48 35 43 49 55 59 68 68 62 70 74 84 83 74 70 74 74 80 88 81 78 42 53 89 59 51 48 46 51 54 45 32 21 39
53 54 42 12 94 97 95 92 90 70 47 41 56 64 72 74 70 72 70 79 88 96 88 81 70 70 78 80 87 90 100 81 65 64 87 79 58 47 48 52 48 37 34 37 47
48 99 85 16 23 54 97 95 85 49 46 63 81 81 85 84 88 86 77 93 94 84 89 99 79 74 85 94 95 85 90 71 72 81 79 85 50 68 36 39 58 48 41 61 69
52 95 80 45 17 24 94 87 51 39 45 76 81 80 91 86 84 90 90 83 85 83 92 74 82 88 81 78 84 97 79 89 92 98 95 93 88 51 50 39 57 65 83 67 62
74 67 88 97 50 92 89 75 39 48 64 76 93 89 87 87 92 94 94 91 91 92 94 96 89 89 84 85 92 76 100 95 94 99 98 91 88 75 72 58 71 74 77 80 72
42 31 46 81 87 84 78 58 47 41 70 73 86 93 93 98 92 94 96 98 99 98 99 93 91 92 87 96 97 100 100 95 99 92 100 72 80 98 92 92 81 78 87 79 58
38 46 56 67 73 70 48 38 41 64 66 75 84 90 93 92 92 91 91 90 95 98 98 79 78 88 83 94 93 98 98 96 96 96 96 98 98 98 95 98 95 95 99 85 71
69 74 72 68 55 40 38 48 65 82 82 74 80 79 76 86 92 91 95 96 100 100 100 98 81 84 92 96 99 99 98 98 96 97 96 98 97 98 98 99 100 100 99 99 98
71 68 47 43 35 36 38 58 80 81 78 83 80 76 73 78 84 85 91 82 79 94 90 93 79 71 81 84 96 96 98 96 98 99 89 98 98 97 100 99 80 94 98 99 99
74 64 45 38 30 40 49 65 78 75 75 72 72 71 73 77 77 81 83 80 77 82 90 94 85 69 66 72 76 93 96 97 97 94 96 84 98 98 98 99 99 99 99 100 100
68 50 37 32 36 42 52 69 69 66 68 75 72 71 73 73 74 76 62 72 75 80 84 84 92 58 70 66 71 77 73 79 83 89 97 96 97 97 98 98 98 99 100 99 98
53 38 30 41 48 42 46 44 46 54 58 60 59 66 66 55 48 52 58 59 58 66 74 74 73 67 60 65 61 68 62 66 59 74 68 87 96 96 97 98 94 77 67 65 58
57 31 32 38 37 30 32 35 40 45 45 50 61 56 56 61 55 44 52 57 49 52 62 66 64 66 40 41 46 61 56 59 69 64 79 82 94 92 88 87 78 65 59 55 55
40 40 34 32 35 33 27 28 36 38 40 41 44 48 51 57 46 49 53 50 53 48 49 48 49 54 59 65 68 72 54 51 57 56 77 77 97 92 69 64 64 60 58 57 56
27 31 36 33 35 35 28 23 22 21 28 31 28 38 43 46 46 37 36 43 49 51 50 50 52 48 51 54 56 73 59 47 50 50 54 68 72 73 66 58 52 50 47 46 45
27 33 31 33 29 30 26 23 22 22 22 26 27 31 34 37 34 36 38 40 42 45 45 47 47 59 44 41 48 52 69 52 43 46 51 58 57 55 53 48 46 43 40 33 24
20 22 27 25 28 28 30 27 21 19 23 22 20 26 33 27 26 29 35 36 37 38 38 41 40 38 50 41 40 48 42 48 49 46 46 47 48 43 41 41 33 24 20 11 10

GFSSW_700_rhum_117.txt.gz
RH
97 58 24 18 23 70 99 95 84 100 79 85 59 85 81 76 56 55 50 48 42 40 39 38 34 26 21 17 15 13 19 14 15 20 15 14 15 32 22 36 52 59 56 55 59
98 96 76 22 13 21 72 100 77 100 98 86 94 85 70 64 59 50 49 46 44 41 39 35 29 23 20 19 18 17 17 22 23 22 18 16 17 16 40 30 38 58 57 50 59
98 98 95 91 18 10 21 74 81 94 99 84 78 86 65 74 62 51 44 40 36 32 29 26 24 23 21 20 22 23 23 22 24 26 26 20 17 20 19 25 43 53 59 50 57
97 99 98 92 48 10 8 32 71 77 98 92 92 80 65 71 55 48 44 36 32 26 21 19 17 18 20 22 23 22 23 24 26 29 36 31 23 18 16 14 22 43 59 53 52
98 97 98 88 93 10 6 9 24 67 76 76 91 68 60 84 63 53 42 32 20 17 15 12 10 12 12 17 23 30 25 27 31 30 31 32 28 24 17 21 19 24 45 59 57
97 97 94 78 87 26 6 6 28 98 88 76 69 61 59 80 60 49 31 25 21 18 14 12 13 14 12 12 14 13 12 13 16 18 21 23 18 22 21 25 22 22 22 35 59
98 92 82 51 58 31 6 38 42 56 70 75 65 68 80 67 55 34 26 27 22 17 14 14 15 16 15 16 15 16 15 15 16 18 19 21 17 11 14 16 11 20 25 34 56
93 92 55 31 66 39 14 54 67 69 83 92 71 74 71 54 33 23 30 30 23 19 17 15 16 16 16 18 18 18 21 19 22 24 26 30 26 32 31 25 18 13 14 23 30
88 72 24 34 50 38 76 79 94 84 99 81 82 67 38 29 26 34 36 34 34 30 27 24 23 25 25 26 31 45 51 54 52 47 46 55 54 47 34 37 31 20 15 10 19
68 56 47 84 56 98 87 99 98 83 95 82 56 38 32 33 45 51 51 51 53 58 59 55 56 58 57 57 67 74 74 69 65 50 60 64 44 37 32 39 35 32 24 23 11
62 48 78 87 94 93 91 85 88 99 75 54 42 38 44 56 55 59 60 61 69 69 70 70 66 64 70 77 78 77 78 73 43 43 76 45 62 38 42 42 40 49 37 32 27
83 42 36 97 92 77 99 100 91 74 50 50 46 50 58 58 65 71 71 78 77 75 70 68 60 71 74 75 74 80 84 57 46 58 82 74 65 49 56 41 36 42 46 40 26
80 39 30 94 97 99 93 89 80 39 60 80 79 71 76 82 85 81 74 68 67 62 89 93 70 57 57 53 69 78 90 76 90 87 76 86 61 35 53 48 40 49 58 42 33
91 57 12 24 93 95 91 74 44 42 57 80 78 87 86 86 88 84 76 76 74 68 73 58 69 66 67 69 88 99 82 98 97 99 97 98 91 47 70 55 58 63 64 81 85
78 65 37 20 60 87 72 44 41 40 85 86 88 83 94 87 84 92 80 78 85 83 88 82 85 94 95 83 98 90 100 98 93 100 100 86 100 48 75 64 56 66 70 74 74
46 60 58 69 70 71 43 43 42 40 82 84 90 95 94 90 87 85 86 94 97 99 99 81 85 86 86 93 100 100 100 100 99 100 99 84 96 82 84 86 76 67 65 63 65
60 65 71 75 68 72 42 44 48 68 75 81 90 91 91 89 84 81 81 89 94 96 93 85 74 77 82 94 94 99 99 94 95 96 92 97 98 97 97 99 99 86 80 78 67
60 64 69 70 67 48 41 50 60 78 80 77 81 78 82 91 89 85 86 93 88 94 99 94 56 63 80 86 97 99 99 98 98 96 91 92 98 97 98 99 100 99 86 94 90
62 65 50 41 30 35 43 59 78 79 74 80 78 77 78 81 83 83 92 87 72 89 92 83 56 63 64 77 89 96 98 97 100 99 93 92 94 96 98 98 99 97 95 90 96
38 44 40 30 27 38 52 64 78 76 77 73 72 71 78 79 80 84 82 75 76 75 85 86 77 53 58 61 74 86 95 96 97 97 93 88 97 98 97 98 98 98 98 99 99
31 29 27 33 45 46 48 59 66 64 66 68 68 68 72 76 78 79 64 65 72 78 85 86 85 53 61 57 71 78 82 83 87 86 93 95 96 98 98 96 97 98 98 98 93
27 32 34 42 53 43 45 45 48 53 56 55 58 61 65 63 55 57 59 59 59 66 79 80 78 66 51 60 64 73 76 75 70 68 74 86 94 97 96 95 98 93 84 73 65
26 33 40 46 42 33 37 39 39 42 46 51 54 56 64 67 60 45 52 58 58 62 66 65 65 55 31 37 48 68 77 73 70 65 72 82 88 95 97 99 99 86 75 68 64
22 28 37 34 27 27 30 35 37 40 41 40 40 45 46 49 45 42 47 50 52 54 56 55 54 55 55 52 55 52 62 67 74 66 59 66 71 91 92 84 74 67 61 57 52
21 22 25 32 28 22 23 29 34 32 38 32 29 37 37 37 43 36 34 37 39 49 50 50 51 48 44 46 47 44 55 50 53 54 55 52 59 69 74 66 54 48 46 42 37
24 20 16 23 30 25 18 19 21 23 26 30 29 33 34 31 28 30 32 33 34 38 38 40 45 38 32 34 37 36 38 46 53 51 49 52 50 50 49 47 46 44 34 22 13
17 18 19 17 20 26 25 22 19 19 23 22 22 26 34 30 26 23 26 31 33 32 33 35 36 39 33 35 25 23 27 32 35 42 49 48 45 45 38 36 31 22 15 14 13

GFSSW_700_rhum_120.txt.gz
RH
97 98 97 44 23 52 78 77 88 89 86 88 88 69 71 84 70 57 52 45 40 38 38 38 37 35 32 27 22 17 19 15 15 15 17 17 17 19 19 16 22 39 55 58 55
86 96 98 96 46 27 98 90 84 73 86 92 85 81 76 68 61 60 42 44 45 44 42 41 39 36 32 26 24 22 21 21 21 21 20 18 17 18 19 20 18 23 51 57 58
95 97 100 92 98 23 80 92 98 99 99 99 93 88 78 62 50 46 38 35 36 36 35 34 32 30 29 26 25 25 26 25 25 24 22 20 19 20 20 18 17 22 38 64 59
99 97 95 89 98 49 17 36 97 95 98 99 94 94 74 61 52 44 41 38 35 33 28 24 19 15 12 15 15 19 21 20 20 20 22 22 20 19 20 21 21 18 19 40 62
96 96 98 93 95 78 22 16 68 99 90 99 94 89 78 67 72 54 51 42 32 19 14 12 12 9 8 9 14 21 16 18 18 18 18 19 14 14 12 19 20 20 19 17 35
87 97 97 88 82 50 42 9 44 86 86 87 86 88 65 58 63 55 45 27 20 18 16 12 9 9 8 10 11 11 10 10 11 11 12 12 12 12 10 10 9 13 18 19 18
98 96 88 76 62 38 36 17 41 58 87 83 77 75 60 59 57 47 26 24 25 20 14 11 10 10 10 11 11 11 10 11 12 13 15 18 17 16 16 16 16 13 10 13 17
93 88 65 43 64 26 31 35 88 58 93 96 71 66 62 60 52 31 26 29 25 19 16 14 13 12 12 12 13 14 16 16 22 35 39 40 26 33 30 28 26 22 17 11 8
85 61 22 60 58 34 98 78 78 84 86 93 79 62 58 43 27 31 34 32 28 27 28 28 26 27 29 32 33 34 40 46 41 37 40 45 18 12 21 39 26 22 25 22 16
70 35 40 58 88 72 96 75 93 88 96 97 71 49 41 31 36 41 41 42 43 47 50 50 50 50 52 55 58 60 61 53 43 37 49 38 22 33 47 57 34 29 22 23 22
42 34 96 89 98 95 96 97 95 98 94 63 46 37 35 49 49 50 51 50 54 59 53 48 49 57 59 59 64 61 63 63 33 55 51 48 57 42 54 55 56 42 37 26 24
54 75 98 97 97 98 97 88 88 60 50 51 44 45 55 58 61 63 58 52 44 38 35 37 46 52 52 56 57 60 60 46 51 72 88 72 52 42 44 50 54 37 36 36 45
41 68 95 94 96 91 98 82 62 42 72 87 80 77 80 72 67 52 47 38 39 40 40 43 49 45 46 48 57 68 76 77 91 95 88 89 63 52 55 76 56 50 52 50 46
17 66 89 87 99 84 87 55 51 54 59 84 86 79 83 75 70 62 46 45 45 51 51 52 65 69 78 81 90 93 88 97 98 99 96 100 91 71 57 73 83 86 66 73 75
20 42 87 94 64 71 61 44 48 43 89 81 82 84 77 72 73 65 49 56 63 73 73 72 80 85 90 100 97 97 98 100 100 99 100 94 99 63 79 75 77 74 76 78 73
43 36 66 76 72 55 42 41 39 46 92 85 87 84 81 78 73 72 80 78 80 78 72 67 79 84 89 100 99 98 99 100 100 98 98 86 97 79 95 99 98 94 73 77 72
68 68 71 72 52 39 40 42 51 73 79 84 89 88 84 80 78 81 83 84 86 82 72 64 62 69 81 92 96 100 99 94 90 94 92 96 98 95 88 98 98 99 98 92 91
61 63 60 63 38 35 43 50 60 78 80 80 85 84 87 89 83 80 78 74 78 93 98 89 56 69 79 85 97 98 99 98 98 97 94 90 95 97 97 98 99 98 100 99 97
52 53 50 50 32 38 46 54 74 78 73 77 77 76 81 83 83 83 73 74 77 85 98 98 68 65 70 73 79 88 99 100 98 99 96 86 91 89 98 98 99 99 98 100 96
39 30 26 27 32 51 54 62 71 67 68 65 68 72 81 80 78 82 69 68 79 88 95 98 87 53 58 63 72 78 92 94 94 95 95 81 95 99 97 98 98 98 98 98 98
21 21 28 42 46 47 49 64 67 63 62 62 64 66 69 76 70 72 59 63 68 75 87 92 92 52 56 58 70 75 81 84 89 86 98 96 91 98 98 98 98 97 98 95 90
23 29 34 39 46 40 46 56 59 65 66 60 56 52 53 50 46 54 56 59 58 61 70 85 88 72 51 58 58 69 76 82 90 71 80 86 93 85 89 85 84 90 88 85 77
30 31 32 36 36 28 33 39 40 43 46 46 48 48 51 52 53 44 48 49 54 60 67 63 64 58 39 47 42 52 67 72 81 81 75 84 82 84 81 78 78 80 71 62 56
26 32 35 31 27 27 28 29 30 34 36 38 41 42 43 39 38 38 37 42 46 57 60 62 52 49 50 45 47 38 44 56 74 80 66 60 50 61 66 75 71 65 55 52 45
16 23 30 28 22 23 24 25 28 28 34 33 33 39 40 40 41 42 31 35 40 50 56 63 53 47 37 39 39 33 34 41 50 54 58 52 52 53 53 48 51 51 46 36 23
16 16 22 18 25 21 16 15 17 18 25 29 28 28 36 35 30 30 32 36 37 40 40 42 50 43 27 27 38 28 23 34 41 43 42 42 46 48 45 44 42 38 26 18 13
11 15 12 17 21 24 19 16 18 19 20 20 20 20 23 28 26 25 24 25 31 33 35 39 43 42 26 23 18 16 14 22 23 26 31 32 31 34 37 38 32 21 14 15 13

GFSSW_700_rhum_123.txt.gz
RH
96 98 98 98 52 40 81 97 100 88 96 99 91 74 59 70 71 61 54 48 46 41 38 37 36 35 33 31 27 23 21 20 19 21 22 21 20 20 18 16 16 19 26 38 50
87 92 97 94 94 46 35 81 85 99 99 99 91 80 71 63 72 64 52 44 43 40 40 40 38 36 36 32 29 27 26 25 24 23 22 22 22 22 23 20 17 17 18 20 37
87 84 86 94 86 61 39 73 91 97 93 98 92 82 82 71 52 43 42 38 32 36 36 36 36 34 33 31 29 28 28 26 26 25 24 23 22 22 21 20 20 19 16 18 18
89 88 94 92 95 64 54 38 83 87 99 99 99 95 85 64 47 40 39 36 32 31 31 30 27 25 24 22 22 23 21 19 18 16 14 12 12 11 12 14 15 16 18 17 16
95 95 97 90 83 85 40 56 95 90 99 99 99 97 84 65 60 52 48 44 38 34 26 17 13 12 11 11 12 11 9 9 9 8 8 9 8 8 6 7 7 7 9 12 16
90 89 96 85 82 86 29 48 96 96 99 98 95 87 79 66 49 58 44 40 29 22 16 14 12 10 8 8 8 8 8 8 9 10 10 10 10 11 10 13 13 13 11 10 7
76 85 82 76 76 70 19 14 47 98 97 98 87 80 73 60 43 43 38 23 20 20 18 14 11 9 9 9 9 9 9 9 10 11 14 20 16 16 20 17 15 15 18 17 14
92 75 68 49 66 63 59 38 98 97 83 91 70 64 61 51 52 42 27 22 25 20 16 14 14 14 14 14 14 16 20 20 21 27 29 29 11 12 13 17 15 16 16 12 11
59 32 40 64 36 64 84 87 98 97 84 79 72 63 47 48 36 23 22 26 22 21 23 25 30 31 30 30 33 34 36 36 28 23 24 21 12 17 28 38 30 24 24 25 21
26 70 66 84 77 94 80 92 84 87 85 80 60 44 41 32 22 29 29 25 27 31 36 41 42 40 42 44 46 44 41 32 23 31 34 28 30 35 45 36 29 33 37 30 28
98 93 98 94 96 98 93 98 97 91 92 60 48 36 29 34 36 33 38 41 42 41 36 35 32 35 36 38 39 39 40 36 30 50 48 54 57 47 30 28 34 45 41 29 27
87 95 96 97 98 96 92 94 94 76 59 41 37 37 44 46 53 50 40 31 28 27 26 27 30 32 33 35 40 42 44 51 64 77 94 76 65 52 43 58 56 62 43 34 40
98 93 88 95 96 95 82 76 67 46 46 59 60 62 61 54 48 41 38 31 35 39 38 38 41 44 54 61 67 79 86 80 91 94 90 93 78 67 64 67 77 79 63 61 58
78 86 79 75 79 84 53 47 47 48 51 71 67 62 63 62 54 48 40 38 42 48 47 52 68 72 82 94 95 92 96 99 92 99 96 90 90 68 64 73 88 83 70 68 73
79 81 79 77 72 52 46 47 40 39 81 66 72 68 66 62 60 54 42 48 55 58 63 69 76 77 85 98 98 97 99 100 99 100 100 96 100 73 77 68 94 100 84 76 82
76 71 61 66 48 40 38 35 38 51 94 74 73 74 75 72 65 59 60 64 61 58 62 64 65 71 77 90 98 99 99 100 98 100 98 77 96 80 95 96 98 98 97 94 95
59 59 59 50 34 36 40 40 52 69 72 74 77 74 67 69 64 67 74 79 78 77 67 55 59 67 72 82 97 100 100 93 88 93 84 85 100 90 98 96 98 99 99 99 88
54 53 44 30 30 38 47 44 52 72 79 73 78 81 78 68 65 70 73 76 76 78 87 78 56 64 77 85 90 100 99 98 96 93 90 90 97 98 98 98 98 98 99 99 98
43 42 30 29 33 45 50 52 70 70 68 75 76 74 72 77 76 75 68 73 74 72 85 90 62 63 73 76 77 85 100 98 99 95 98 87 93 98 97 98 98 98 99 98 97
26 26 28 32 47 50 49 64 75 72 71 67 64 65 68 70 71 68 66 67 63 71 82 90 87 57 62 66 76 77 79 91 97 96 92 75 94 98 95 96 98 97 98 97 98
23 33 42 47 49 45 40 56 64 62 64 64 63 62 60 64 59 59 60 58 55 61 68 81 84 48 55 60 62 73 76 84 94 93 90 89 91 93 95 89 95 95 90 67 34
21 24 36 41 39 40 44 48 46 51 52 49 46 44 43 45 44 47 51 52 56 61 73 80 81 64 42 49 55 58 62 74 90 78 85 86 78 66 79 88 76 66 62 60 50
20 21 24 27 31 30 34 38 41 42 43 43 47 45 43 48 50 48 44 49 55 61 68 70 74 56 30 39 40 45 48 57 77 83 78 80 70 50 64 63 63 57 57 52 38
19 21 21 20 20 25 28 30 30 31 36 41 41 39 41 42 44 40 40 45 54 58 65 71 66 60 47 42 45 40 36 48 59 79 65 59 51 48 52 48 43 47 44 33 19
10 14 19 23 19 17 20 24 26 28 29 28 27 28 32 32 31 33 33 34 36 47 54 58 49 49 39 32 36 27 28 35 41 52 52 41 38 39 41 42 39 28 22 18 14
10 10 11 15 14 19 15 13 17 18 17 21 26 26 26 32 31 25 25 27 32 37 41 42 44 44 21 17 24 23 18 21 26 31 33 34 25 26 29 30 25 16 12 13 13
14 11 9 9 10 13 15 13 11 14 16 17 17 17 17 17 28 26 24 24 26 26 29 38 43 40 24 23 24 14 8 9 12 15 16 18 19 18 20 18 14 11 10 12 13

GFSSW_700_rhum_126.txt.gz
RH
90 100 98 63 57 91 96 99 99 99 91 82 72 59 51 50 43 42 39 36 36 33 32 31 32 32 31 30 29 28 23 29 24 23 23 22 23 22 21 20 19 16 14 14 16
97 98 97 87 73 56 68 98 97 99 97 94 80 70 58 46 49 39 39 41 37 35 32 29 29 28 30 31 29 28 25 26 23 23 23 24 24 24 23 23 22 20 17 15 13
98 87 89 85 74 70 57 90 98 99 99 98 96 80 68 52 45 42 40 35 27 24 23 26 28 29 30 30 28 26 26 25 25 25 24 23 22 22 22 21 21 21 20 20 18
85 86 84 83 75 82 56 49 86 96 98 97 93 84 78 68 42 33 28 27 23 19 20 21 26 27 27 27 26 25 24 23 20 17 14 11 10 9 8 9 8 9 9 10 14
90 88 88 75 71 92 51 43 66 57 98 98 94 87 86 67 41 38 34 32 29 27 27 26 24 19 16 14 12 11 10 8 7 7 7 7 7 8 7 7 8 8 9 9 7
92 88 96 82 70 79 55 38 97 98 97 99 99 87 80 63 54 48 39 38 34 29 23 17 14 12 11 10 9 8 7 7 7 7 7 8 9 10 11 13 13 15 15 15 14
84 83 81 78 69 79 64 40 76 98 86 99 94 82 72 59 43 41 36 27 22 19 18 17 15 12 10 8 8 9 9 11 12 14 15 18 17 18 13 10 10 10 8 8 8
80 72 65 56 89 68 60 55 98 100 96 86 85 78 57 44 38 39 33 21 21 20 16 13 11 11 13 15 16 17 20 23 20 24 25 24 21 14 15 23 20 18 17 16 16
28 40 58 68 77 34 52 81 97 90 79 76 74 65 49 43 37 27 20 22 21 17 16 17 18 22 26 30 33 33 40 33 24 20 19 18 15 17 31 34 22 17 20 23 20
89 86 66 61 87 93 89 98 98 88 82 82 75 57 37 30 21 24 25 23 23 26 29 31 32 32 31 32 42 43 40 33 24 28 28 23 20 24 43 39 29 26 27 29 32
90 96 90 96 98 82 98 93 89 91 96 59 45 35 27 28 30 24 32 36 25 21 20 19 20 24 23 26 29 30 33 37 40 59 50 45 50 43 42 36 39 50 50 44 42
93 96 98 96 97 92 81 93 79 61 44 38 34 33 36 34 39 31 24 23 22 19 17 18 21 24 31 38 45 53 67 79 64 70 79 73 59 47 55 58 61 68 66 59 56
85 84 95 96 96 93 83 75 62 40 42 52 49 51 45 36 31 26 26 29 30 33 35 38 43 45 57 74 80 83 89 90 92 88 81 84 76 64 64 69 73 73 89 92 69
81 84 67 71 72 72 68 55 41 40 43 60 52 43 40 35 32 30 31 35 38 39 40 50 63 64 75 88 92 94 92 98 91 96 84 96 78 82 66 69 71 88 94 77 70
69 72 60 45 48 54 50 45 41 38 69 55 57 45 40 39 33 31 33 46 48 48 56 64 65 68 78 89 92 94 98 100 99 100 98 91 99 77 75 62 64 75 80 86 85
52 59 44 46 46 40 36 38 42 43 83 59 54 50 42 39 49 54 59 58 58 54 53 54 56 62 67 80 92 99 95 99 99 98 94 86 96 76 94 95 76 92 98 98 94
50 43 35 30 33 40 39 42 48 66 58 60 56 50 50 56 58 64 72 69 65 59 50 50 55 59 66 76 85 93 99 87 88 92 73 82 99 95 98 89 90 97 99 98 98
42 31 25 30 33 36 43 43 50 65 73 61 60 64 69 65 61 62 65 68 65 61 66 62 62 54 66 72 76 95 96 97 86 72 68 89 91 87 97 96 99 98 98 98 97
23 23 25 30 44 48 43 45 71 70 65 64 66 64 64 64 66 63 64 66 64 61 74 79 61 55 64 67 75 79 99 96 96 91 86 81 91 91 96 98 98 98 98 97 88
29 34 37 41 42 35 33 43 53 56 58 56 58 57 64 63 61 60 58 56 54 56 62 72 74 52 56 62 66 76 72 96 92 84 76 60 90 94 91 88 96 94 89 87 34
26 27 30 30 33 34 35 49 54 53 54 56 59 60 58 56 51 49 50 54 49 54 60 72 79 55 51 60 71 68 84 84 92 95 67 62 74 70 76 72 68 61 50 38 13
19 22 20 21 25 32 38 40 43 48 50 49 49 48 51 54 51 42 42 42 44 47 56 63 74 67 42 41 52 58 65 65 87 70 78 74 70 45 51 60 62 54 45 32 20
18 19 18 14 16 19 24 30 34 35 34 33 37 37 40 41 43 46 40 36 39 43 52 59 76 79 46 40 41 46 47 55 62 89 85 60 48 50 47 51 50 51 37 20 15
18 19 17 14 11 11 13 17 19 22 24 26 29 31 33 30 33 34 34 37 34 41 50 62 52 52 54 43 41 52 47 46 58 87 69 60 43 39 41 35 34 32 24 14 13
10 13 20 20 16 13 11 11 12 14 15 17 19 20 22 23 23 24 26 30 31 40 52 60 54 42 31 28 35 28 24 33 38 35 63 50 34 32 35 33 28 20 12 11 12
9 9 10 13 16 14 15 11 9 9 10 11 13 14 14 14 17 24 24 21 22 30 44 43 48 40 16 16 17 20 18 18 21 24 22 22 15 22 22 25 23 16 10 11 12
22 11 10 9 10 11 12 16 14 12 11 10 11 11 11 12 11 16 20 22 27 31 32 38 39 43 33 16 21 18 6 6 7 9 11 13 12 15 15 16 15 12 9 11 12

GFSSW_700_rhum_129.txt.gz
RH
98 97 96 56 49 98 99 100 100 95 100 90 80 72 63 57 48 39 35 31 32 29 26 30 30 29 29 29 27 27 26 34 34 39 42 25 22 23 22 21 21 19 17 15 14
95 96 92 96 59 91 99 99 99 100 97 94 87 68 51 50 51 40 32 30 29 27 25 27 26 26 26 24 23 25 29 38 31 25 24 22 21 23 21 23 26 21 21 21 20
94 92 93 87 92 63 93 98 99 99 98 94 77 69 51 42 38 41 35 32 29 26 24 23 20 21 18 18 18 20 26 26 22 21 21 22 22 21 20 19 17 18 16 16 19
87 84 86 82 82 70 85 91 97 99 100 92 87 79 66 47 38 30 32 30 25 20 19 19 18 21 21 22 22 23 23 22 21 18 17 15 14 12 10 10 8 7 7 7 7
79 88 94 72 61 55 65 83 98 99 99 95 88 74 72 61 36 30 24 21 20 17 16 16 17 20 21 18 17 15 13 11 10 8 8 7 7 6 7 7 7 7 8 7 7
77 76 76 70 66 67 77 94 96 97 99 99 85 82 75 55 43 38 33 27 24 23 23 23 20 16 14 12 11 10 10 8 7 7 7 8 8 9 9 12 12 11 11 11 10
81 83 86 79 68 77 71 98 99 95 99 99 83 77 70 52 39 38 32 27 25 21 18 16 16 15 13 10 9 8 9 10 12 14 16 16 15 20 18 13 10 10 9 8 8
69 78 71 63 66 78 74 99 99 98 97 100 86 66 54 42 33 28 27 23 20 17 16 14 12 10 10 12 14 17 19 27 31 26 28 24 19 27 17 12 18 18 17 17 15
36 49 51 67 80 68 63 98 99 88 91 78 72 54 45 30 28 26 21 18 18 17 14 13 13 16 21 25 37 42 33 36 43 42 26 22 18 13 18 22 30 26 28 27 21
84 70 78 50 66 98 73 60 87 77 68 59 58 46 35 27 21 19 20 19 18 18 22 24 29 31 31 35 48 54 49 46 45 51 58 32 27 29 35 59 69 43 48 34 32
86 74 72 98 91 70 65 90 77 73 62 57 53 37 27 24 25 22 28 29 18 16 18 18 18 21 18 19 21 22 31 62 64 73 49 50 50 42 70 75 68 67 55 52 51
92 83 96 98 88 72 84 66 62 56 43 35 33 33 32 31 31 21 18 19 20 20 16 18 25 30 42 53 59 59 67 78 81 85 84 68 49 69 67 52 62 70 57 56 51
100 99 95 94 88 93 71 57 46 32 41 52 50 45 36 24 25 27 29 32 33 35 39 43 48 46 56 67 78 90 84 84 90 87 78 83 62 66 71 72 89 67 64 72 64
94 99 96 77 85 78 59 45 39 41 44 51 45 38 35 33 34 35 34 35 40 38 39 48 57 61 68 73 85 84 82 92 91 96 81 84 77 71 84 65 69 64 63 70 72
76 81 90 84 83 76 51 44 37 35 80 49 50 41 38 40 38 39 34 34 39 41 48 52 54 57 64 77 81 94 92 97 99 94 99 86 98 72 84 72 61 70 76 89 86
41 42 42 46 44 41 43 39 40 43 81 49 45 46 53 50 45 39 38 40 43 45 46 47 54 58 63 71 76 84 93 95 95 95 95 80 90 71 84 78 68 71 77 94 91
29 26 29 31 35 36 36 41 43 80 54 54 52 50 52 43 41 42 44 48 60 54 48 48 50 53 60 72 71 78 88 94 93 95 72 75 99 79 83 77 76 79 99 96 85
24 26 28 30 34 36 39 37 47 63 61 49 48 46 41 43 45 45 46 90 60 59 92 92 84 49 51 62 68 100 91 98 86 68 61 82 81 77 71 77 86 88 93 86 60
29 30 37 42 38 35 31 34 63 53 45 45 42 49 64 50 51 52 62 72 58 58 90 86 83 50 54 52 64 98 97 97 94 79 81 65 80 75 67 71 79 80 59 30 40
28 28 28 28 26 26 28 37 46 40 42 43 69 49 65 71 64 67 72 53 51 51 53 87 84 54 50 49 58 57 73 90 98 78 73 53 64 83 60 66 71 56 48 31 12
18 20 22 23 23 24 22 29 33 34 35 39 45 53 63 67 47 66 65 52 45 46 48 54 78 72 55 57 77 84 82 80 86 77 64 52 56 54 40 47 52 52 42 16 11
12 13 16 18 20 20 22 23 24 26 31 34 35 36 42 45 57 67 57 44 39 42 72 58 74 84 62 60 39 47 65 65 70 62 64 66 63 52 35 40 44 37 34 17 13
13 13 12 14 16 14 15 17 20 22 24 25 27 28 27 28 41 36 33 27 25 30 44 51 81 76 54 44 44 43 56 64 68 71 83 58 35 42 33 32 34 32 27 14 13
18 15 11 11 13 14 14 14 13 13 14 17 19 18 19 18 20 23 20 21 24 26 30 38 56 72 52 41 51 60 60 73 75 78 57 55 43 39 42 27 28 24 21 15 13
10 11 16 17 12 10 12 13 13 14 16 15 14 14 14 14 14 16 17 19 16 20 31 51 71 63 51 23 26 27 31 56 70 61 58 37 44 38 37 41 27 20 13 11 12
11 11 10 11 17 13 12 10 11 13 13 11 12 14 14 15 18 33 27 23 27 20 26 45 44 42 27 37 27 16 14 17 23 37 50 26 12 15 15 15 18 22 15 10 12
45 29 13 10 10 11 11 12 12 10 11 11 13 13 14 15 16 15 16 17 23 30 53 68 63 73 60 43 41 31 6 6 8 8 9 37 17 14 12 13 13 12 10 10 11